[[{"header":{"parameterUnit":"m.s-1","parameterCategory":1,"la1":30.6,"la2":29.2853,"lo1":-89.7004,"lo2":-87.6739,"dx":0.0162,"dy":0.0183,"nx":112,"ny":82,"refTime":"2022-12-13T06:00:00:Z","depth":0,"parameterNumber":2,"parameterNumberName":"U-component_of_WINDS"},"data":[0.0,0.0,0.0,0.0,0.0,0.0,0.0,0.0,0.0,0.0,0.0,0.0,0.0,0.0,0.0,0.0,0.0,0.0,0.0,0.0,0.0,0.0,0.0,0.0,0.0,0.0,0.0,0.0,0.0,0.0,0.0,0.0,0.0,0.0,0.0,0.0,0.0,0.0,0.0,0.0,0.0,0.0,0.0,0.0,0.0,0.0,0.0,0.0,0.0,0.0,0.0,0.0,0.0,0.0,0.0,0.0,0.0,0.0,0.0,0.0,0.0,0.0,0.0,0.0,0.0,0.0,0.0,0.0,0.0,0.0,0.0,0.0,0.0,0.0,0.0,0.0,0.0,0.0,0.0,0.0,0.0,0.0,0.0,0.0,0.0,0.0,0.0,0.0,0.0,0.0,3.716,3.7425,3.992,4.11,4.0034,4.0826,3.9261,3.4326,0.0,0.0,0.0,0.0,0.0,0.0,0.0,0.0,0.0,0.0,0.0,0.0,0.0,0.0,0.0,0.0,0.0,0.0,0.0,0.0,0.0,0.0,0.0,0.0,0.0,0.0,0.0,0.0,0.0,0.0,0.0,0.0,0.0,0.0,0.0,0.0,0.0,0.0,0.0,0.0,0.0,0.0,0.0,0.0,0.0,0.0,0.0,0.0,0.0,0.0,0.0,0.0,0.0,0.0,0.0,0.0,0.0,0.0,0.0,0.0,0.0,0.0,0.0,0.0,0.0,0.0,0.0,0.0,0.0,0.0,0.0,0.0,0.0,0.0,0.0,0.0,0.0,0.0,0.0,0.0,0.0,0.0,0.0,0.0,0.0,0.0,0.0,0.0,0.0,0.0,0.0,0.0,0.0,0.0,0.0,0.0,0.0,0.0,0.0,0.0,0.0,0.0,0.0,0.0,3.6648,4.12,4.2026,4.2375,4.2766,4.1899,3.9587,3.5588,0.0,0.0,0.0,0.0,0.0,0.0,0.0,0.0,0.0,0.0,0.0,0.0,0.0,0.0,0.0,0.0,0.0,0.0,0.0,0.0,0.0,0.0,0.0,0.0,0.0,0.0,0.0,0.0,0.0,0.0,0.0,0.0,0.0,0.0,0.0,0.0,0.0,0.0,0.0,0.0,0.0,0.0,0.0,0.0,0.0,0.0,0.0,0.0,0.0,0.0,0.0,0.0,0.0,0.0,0.0,0.0,0.0,0.0,0.0,0.0,0.0,0.0,0.0,0.0,0.0,0.0,0.0,0.0,0.0,0.0,0.0,0.0,0.0,0.0,0.0,0.0,0.0,0.0,0.0,0.0,0.0,0.0,0.0,0.0,0.0,0.0,0.0,0.0,0.0,0.0,0.0,0.0,0.0,0.0,0.0,0.0,0.0,0.0,0.0,0.0,0.0,0.0,0.0,3.5911,3.8856,4.3197,4.3671,4.3676,4.3491,4.2692,4.0324,3.5983,3.4287,0.0,0.0,0.0,0.0,0.0,0.0,0.0,0.0,0.0,0.0,0.0,0.0,0.0,0.0,0.0,0.0,0.0,0.0,0.0,0.0,0.0,0.0,0.0,0.0,0.0,0.0,0.0,0.0,0.0,0.0,0.0,0.0,0.0,0.0,0.0,0.0,0.0,0.0,0.0,0.0,0.0,0.0,0.0,0.0,0.0,0.0,0.0,0.0,0.0,0.0,0.0,0.0,0.0,0.0,0.0,0.0,0.0,0.0,0.0,0.0,0.0,0.0,0.0,0.0,0.0,0.0,0.0,0.0,0.0,0.0,0.0,0.0,0.0,0.0,0.0,0.0,0.0,0.0,0.0,0.0,0.0,0.0,0.0,0.0,0.0,0.0,0.0,0.0,0.0,0.0,0.0,0.0,0.0,0.0,0.0,0.0,0.0,0.0,0.0,0.0,0.0,0.0,3.9476,4.1872,4.4832,4.5309,4.5035,4.4252,4.3407,4.091,3.6355,3.4635,0.0,0.0,0.0,0.0,0.0,0.0,0.0,0.0,0.0,0.0,0.0,0.0,0.0,0.0,0.0,0.0,0.0,0.0,0.0,0.0,0.0,0.0,0.0,0.0,0.0,0.0,0.0,0.0,0.0,0.0,0.0,0.0,0.0,0.0,0.0,0.0,0.0,0.0,0.0,0.0,0.0,0.0,0.0,0.0,0.0,0.0,0.0,0.0,0.0,0.0,0.0,0.0,0.0,0.0,0.0,0.0,0.0,0.0,0.0,0.0,0.0,0.0,0.0,0.0,0.0,0.0,0.0,0.0,0.0,0.0,0.0,0.0,0.0,0.0,0.0,0.0,0.0,0.0,0.0,0.0,0.0,0.0,0.0,0.0,0.0,0.0,0.0,0.0,0.0,0.0,0.0,0.0,0.0,0.0,0.0,0.0,0.0,0.0,0.0,0.0,0.0,0.0,4.1855,4.5071,4.6781,4.7048,4.6772,4.5986,4.3936,4.105,3.7138,3.4857,0.0,0.0,0.0,0.0,0.0,0.0,0.0,0.0,0.0,0.0,0.0,0.0,0.0,0.0,0.0,0.0,0.0,0.0,0.0,0.0,0.0,0.0,0.0,0.0,0.0,0.0,0.0,0.0,0.0,0.0,0.0,0.0,0.0,0.0,0.0,0.0,0.0,0.0,0.0,0.0,0.0,0.0,0.0,0.0,0.0,0.0,0.0,0.0,0.0,0.0,0.0,0.0,0.0,0.0,0.0,0.0,0.0,0.0,0.0,0.0,0.0,0.0,0.0,0.0,0.0,0.0,0.0,0.0,0.0,0.0,0.0,0.0,0.0,0.0,0.0,0.0,0.0,0.0,0.0,0.0,0.0,0.0,0.0,0.0,0.0,0.0,0.0,0.0,0.0,0.0,0.0,0.0,0.0,0.0,0.0,0.0,0.0,0.0,0.0,0.0,0.0,0.0,4.0945,4.4687,4.7504,4.7427,4.717,4.7009,4.5383,4.2483,3.8094,0.0,0.0,0.0,0.0,0.0,0.0,0.0,0.0,0.0,0.0,0.0,0.0,0.0,0.0,0.0,0.0,0.0,0.0,0.0,0.0,0.0,0.0,0.0,0.0,0.0,0.0,0.0,0.0,0.0,0.0,0.0,0.0,0.0,0.0,0.0,0.0,0.0,0.0,0.0,0.0,0.0,0.0,0.0,0.0,0.0,0.0,0.0,0.0,0.0,0.0,0.0,0.0,0.0,0.0,0.0,0.0,0.0,0.0,0.0,0.0,0.0,0.0,0.0,0.0,0.0,0.0,0.0,0.0,0.0,0.0,0.0,0.0,0.0,0.0,0.0,0.0,0.0,0.0,0.0,0.0,0.0,0.0,0.0,0.0,0.0,0.0,0.0,0.0,0.0,0.0,0.0,0.0,0.0,0.0,0.0,0.0,0.0,0.0,0.0,0.0,0.0,0.0,3.75,4.1607,4.5591,4.8703,4.847,4.8037,4.7911,4.6404,4.3494,3.902,0.0,0.0,0.0,0.0,0.0,0.0,0.0,0.0,0.0,0.0,0.0,0.0,0.0,0.0,0.0,0.0,0.0,0.0,0.0,0.0,0.0,0.0,0.0,0.0,0.0,0.0,0.0,0.0,0.0,0.0,0.0,0.0,0.0,0.0,0.0,0.0,0.0,0.0,0.0,0.0,0.0,0.0,0.0,0.0,0.0,0.0,0.0,0.0,0.0,0.0,0.0,0.0,0.0,0.0,0.0,0.0,0.0,0.0,0.0,0.0,0.0,0.0,0.0,0.0,0.0,0.0,0.0,0.0,0.0,0.0,0.0,0.0,0.0,0.0,0.0,0.0,0.0,0.0,0.0,0.0,0.0,0.0,0.0,0.0,0.0,0.0,0.0,0.0,0.0,0.0,0.0,0.0,0.0,0.0,0.0,0.0,0.0,0.0,0.0,0.0,0.0,0.0,4.0154,4.4502,4.8369,5.0669,5.0341,4.97,4.8907,4.6769,4.3786,0.0,0.0,0.0,0.0,0.0,0.0,0.0,0.0,0.0,0.0,0.0,0.0,0.0,0.0,0.0,0.0,0.0,0.0,0.0,0.0,0.0,0.0,0.0,0.0,0.0,0.0,0.0,0.0,0.0,0.0,0.0,0.0,0.0,0.0,0.0,0.0,0.0,0.0,0.0,0.0,0.0,0.0,0.0,0.0,0.0,0.0,0.0,0.0,0.0,0.0,0.0,0.0,0.0,0.0,0.0,0.0,0.0,0.0,0.0,0.0,0.0,0.0,0.0,0.0,0.0,0.0,0.0,0.0,0.0,0.0,0.0,0.0,0.0,0.0,0.0,0.0,0.0,0.0,0.0,0.0,0.0,0.0,0.0,0.0,0.0,0.0,0.0,0.0,0.0,0.0,0.0,0.0,0.0,0.0,0.0,0.0,0.0,0.0,0.0,0.0,0.0,0.0,0.0,3.9851,4.4394,4.8575,5.1356,5.1073,5.0582,5.0459,4.9355,4.6955,4.303,0.0,0.0,0.0,0.0,0.0,0.0,0.0,0.0,0.0,0.0,0.0,0.0,0.0,0.0,0.0,0.0,0.0,0.0,0.0,0.0,0.0,0.0,0.0,0.0,0.0,0.0,0.0,0.0,0.0,0.0,0.0,0.0,0.0,0.0,0.0,0.0,0.0,0.0,0.0,0.0,0.0,0.0,0.0,0.0,0.0,0.0,0.0,0.0,0.0,0.0,0.0,0.0,0.0,0.0,0.0,0.0,0.0,0.0,0.0,0.0,0.0,0.0,0.0,0.0,0.0,0.0,0.0,0.0,0.0,0.0,0.0,0.0,0.0,0.0,0.0,0.0,0.0,0.0,0.0,0.0,0.0,0.0,0.0,0.0,0.0,0.0,0.0,0.0,0.0,0.0,0.0,0.0,0.0,0.0,0.0,0.0,0.0,0.0,0.0,0.0,0.0,0.0,4.0985,4.5446,4.9447,5.1855,5.1718,5.1443,5.1563,5.0597,4.8574,4.5318,0.0,0.0,0.0,0.0,0.0,0.0,0.0,0.0,0.0,0.0,0.0,0.0,0.0,0.0,0.0,0.0,0.0,0.0,0.0,0.0,0.0,0.0,0.0,0.0,0.0,0.0,0.0,0.0,0.0,0.0,0.0,0.0,0.0,0.0,0.0,0.0,0.0,0.0,0.0,0.0,0.0,0.0,0.0,0.0,0.0,0.0,0.0,0.0,0.0,0.0,0.0,0.0,0.0,0.0,0.0,0.0,0.0,0.0,0.0,0.0,0.0,0.0,0.0,0.0,0.0,0.0,0.0,0.0,0.0,0.0,0.0,0.0,0.0,0.0,0.0,0.0,0.0,0.0,0.0,0.0,0.0,0.0,0.0,0.0,0.0,0.0,0.0,0.0,0.0,0.0,0.0,0.0,0.0,0.0,0.0,0.0,0.0,0.0,0.0,0.0,0.0,0.0,4.2842,4.7093,5.0562,5.2046,5.2287,5.2321,5.2321,5.1045,4.9286,4.7148,0.0,0.0,0.0,0.0,0.0,0.0,0.0,0.0,0.0,0.0,0.0,0.0,0.0,0.0,0.0,0.0,0.0,0.0,0.0,0.0,0.0,0.0,0.0,0.0,0.0,0.0,0.0,0.0,0.0,0.0,0.0,0.0,0.0,0.0,0.0,0.0,0.0,0.0,0.0,0.0,0.0,0.0,0.0,0.0,0.0,0.0,0.0,0.0,0.0,0.0,0.0,0.0,0.0,0.0,0.0,0.0,0.0,0.0,0.0,0.0,3.7707,3.4582,0.0,0.0,0.0,0.0,0.0,0.0,0.0,0.0,0.0,0.0,0.0,0.0,0.0,0.0,0.0,0.0,0.0,0.0,0.0,0.0,0.0,0.0,0.0,0.0,0.0,0.0,0.0,0.0,0.0,0.0,0.0,0.0,0.0,0.0,0.0,0.0,0.0,0.0,0.0,0.0,4.3166,4.7182,5.0562,5.2046,5.277,5.3149,5.3149,5.2287,5.1287,5.0218,4.8148,0.0,0.0,0.0,0.0,0.0,0.0,0.0,0.0,0.0,0.0,0.0,0.0,0.0,0.0,0.0,0.0,0.0,0.0,0.0,0.0,0.0,0.0,0.0,0.0,0.0,0.0,0.0,0.0,0.0,0.0,0.0,0.0,0.0,0.0,0.0,0.0,0.0,0.0,0.0,0.0,0.0,0.0,0.0,0.0,0.0,0.0,0.0,0.0,0.0,0.0,0.0,0.0,0.0,0.0,0.0,0.0,0.0,0.0,0.0,4.0763,3.8351,0.0,0.0,0.0,0.0,0.0,0.0,0.0,0.0,0.0,0.0,0.0,0.0,0.0,0.0,0.0,0.0,0.0,0.0,0.0,0.0,0.0,0.0,0.0,0.0,0.0,0.0,0.0,0.0,0.0,0.0,0.0,0.0,0.0,0.0,0.0,0.0,0.0,0.0,0.0,0.0,4.5906,4.9252,5.1942,5.2701,5.3494,5.3942,5.3942,5.3218,5.2632,5.2252,5.0424,0.0,0.0,0.0,0.0,0.0,0.0,0.0,0.0,0.0,0.0,0.0,0.0,0.0,0.0,0.0,0.0,0.0,0.0,0.0,0.0,0.0,0.0,0.0,0.0,0.0,0.0,0.0,0.0,0.0,0.0,0.0,0.0,0.0,0.0,0.0,0.0,0.0,0.0,0.0,0.0,0.0,0.0,0.0,0.0,0.0,0.0,0.0,0.0,0.0,0.0,0.0,0.0,0.0,4.3764,4.4453,4.3876,4.5395,4.6499,4.7106,4.4065,4.2825,4.2597,3.953,0.0,0.0,0.0,0.0,0.0,0.0,0.0,0.0,0.0,0.0,0.0,0.0,0.0,0.0,0.0,0.0,0.0,0.0,0.0,0.0,0.0,0.0,4.3009,4.3147,4.4147,4.4423,4.2009,0.0,0.0,0.0,0.0,0.0,0.0,0.0,0.0,0.0,0.0,0.0,4.901,5.1701,5.3529,5.3425,5.408,5.4494,5.4494,5.3839,5.346,5.3598,5.2287,5.1183,0.0,0.0,0.0,0.0,0.0,0.0,0.0,0.0,0.0,0.0,0.0,0.0,0.0,0.0,0.0,0.0,0.0,0.0,0.0,0.0,0.0,0.0,0.0,0.0,0.0,0.0,0.0,0.0,0.0,0.0,0.0,0.0,3.4745,3.5641,0.0,0.0,0.0,0.0,0.0,0.0,0.0,0.0,0.0,0.0,0.0,0.0,0.0,4.0223,4.2701,4.4144,4.5784,4.7777,4.9163,4.9801,4.9728,5.0643,5.0717,5.0208,4.9728,0.0,4.4841,4.3679,0.0,0.0,0.0,0.0,0.0,0.0,0.0,0.0,0.0,0.0,0.0,0.0,0.0,0.0,0.0,0.0,0.0,0.0,0.0,0.0,0.0,0.0,4.7113,4.7769,4.8079,4.8321,4.8596,4.4906,4.1698,4.2181,4.2748,4.3113,0.0,0.0,0.0,0.0,0.0,0.0,5.008,5.2494,5.4115,5.346,5.408,5.4494,5.4494,5.3839,5.3667,5.4322,5.3563,5.2735,5.1942,5.0597,0.0,0.0,0.0,0.0,0.0,0.0,0.0,0.0,0.0,0.0,0.0,0.0,0.0,0.0,0.0,0.0,0.0,0.0,0.0,0.0,0.0,0.0,0.0,0.0,0.0,0.0,0.0,0.0,0.0,3.3908,3.5652,3.7506,3.6432,3.5678,0.0,0.0,0.0,0.0,0.0,0.0,0.0,0.0,0.0,4.3023,4.3728,4.5431,4.827,4.8835,4.9866,5.1323,5.2333,5.2821,5.2858,5.3665,5.3812,5.3482,5.3004,5.1894,5.019,4.7361,4.5766,4.5072,0.0,0.0,0.0,0.0,4.1267,4.1698,4.2092,4.2664,4.3354,4.3906,0.0,0.0,0.0,0.0,0.0,0.0,0.0,4.5768,4.6596,4.7907,4.9286,5.0459,5.0735,5.0838,5.1183,4.939,4.7355,4.5975,4.5975,4.6493,4.7355,4.8596,0.0,0.0,0.0,5.3667,5.2666,5.3701,5.4563,5.4632,5.4943,5.5322,5.577,5.5081,5.477,5.5115,5.4425,5.4046,5.4115,5.2287,5.0424,0.0,0.0,0.0,0.0,0.0,0.0,0.0,0.0,0.0,0.0,0.0,0.0,0.0,0.0,0.0,0.0,0.0,0.0,0.0,0.0,0.0,0.0,0.0,0.0,0.0,0.0,0.0,0.0,3.5648,3.7363,4.0164,3.9328,3.8883,0.0,0.0,0.0,0.0,0.0,0.0,4.1751,4.3224,4.4971,4.7004,4.8302,5.0138,5.2601,5.2601,5.3004,5.3812,5.4436,5.4693,5.473,5.5537,5.5794,5.5574,5.517,5.4913,5.4436,5.0879,4.9488,4.945,4.8127,4.738,4.69,4.5576,4.5211,4.5416,4.58,4.6221,4.669,4.7696,4.7741,4.732,4.6527,0.0,0.0,0.0,0.0,4.801,4.9114,4.9976,5.0907,5.2218,5.2528,5.2563,5.277,5.2666,5.1804,4.9355,4.9045,4.9459,5.0424,5.1045,0.0,5.3942,5.4701,5.4943,5.4563,5.4839,5.5219,5.5563,5.5805,5.615,5.6736,5.6253,5.5908,5.5908,5.5391,5.5253,5.5598,5.4184,5.277,5.1425,0.0,0.0,0.0,0.0,0.0,0.0,0.0,0.0,0.0,0.0,0.0,0.0,0.0,0.0,0.0,0.0,0.0,0.0,0.0,0.0,0.0,0.0,0.0,0.0,0.0,0.0,0.0,0.0,0.0,4.515,4.3798,0.0,0.0,0.0,0.0,4.2167,4.2625,4.3866,4.6157,4.7669,4.9471,5.1605,5.1988,5.2826,5.4289,5.4289,5.4693,5.5464,5.55,5.5537,5.5574,5.6381,5.6308,5.5647,5.6381,5.6235,5.5464,5.4473,5.3017,5.1522,5.1989,5.106,4.9661,5.0823,5.1272,5.1472,5.2973,5.3087,5.2558,5.1926,5.0871,4.97,4.8872,4.9148,0.0,0.0,4.9735,5.0907,5.0976,5.1563,5.2321,5.3149,5.3356,5.3529,5.4253,5.3839,5.308,5.2183,5.2597,5.2908,5.2218,0.0,5.4908,5.3632,5.5288,5.615,5.4701,5.577,5.6426,5.5701,5.6288,5.6771,5.6805,5.6771,5.6736,5.6736,5.6702,5.6357,5.5632,5.6219,5.5184,5.2218,5.2804,0.0,0.0,0.0,0.0,0.0,0.0,0.0,0.0,0.0,0.0,0.0,0.0,0.0,0.0,0.0,0.0,0.0,0.0,0.0,0.0,0.0,0.0,0.0,0.0,0.0,0.0,0.0,0.0,4.449,4.4558,0.0,4.6694,4.5997,4.611,4.7696,4.84,4.9395,5.0785,5.184,5.2724,5.3518,5.4159,5.4964,5.5941,5.5941,5.6345,5.7152,5.7152,5.7152,5.7152,5.7446,5.7409,5.7152,5.7446,5.7409,5.7116,5.6822,5.5725,5.4163,5.4428,5.4179,5.3692,5.3724,5.354,5.3333,5.3403,5.3028,5.2577,5.282,5.2572,5.2218,5.2425,5.2356,5.2149,5.1839,5.2494,5.3184,5.2701,5.3494,5.446,5.477,5.5219,5.5667,5.5908,5.577,5.5495,5.5219,5.4218,5.377,5.4977,5.5839,5.6529,5.6943,5.7288,5.7322,5.6771,5.6736,5.6874,5.7081,5.7357,5.7702,5.8185,5.7771,5.7529,5.7529,5.7047,5.6874,5.7081,5.6426,5.5977,5.5874,5.5184,5.3701,0.0,0.0,0.0,0.0,0.0,0.0,0.0,0.0,0.0,0.0,0.0,0.0,0.0,0.0,0.0,0.0,0.0,0.0,0.0,0.0,0.0,0.0,0.0,0.0,0.0,4.103,4.3433,4.529,4.6494,4.7769,4.9409,4.9591,5.03,5.1903,5.2491,5.3151,5.3959,5.4766,5.5207,5.5207,5.5978,5.6675,5.7189,5.7189,5.7483,5.7997,5.7997,5.7997,5.7997,5.7997,5.8143,5.84,5.84,5.8547,5.8804,5.8804,5.818,5.7152,5.6602,5.6353,5.6247,5.5982,5.5699,5.5384,5.4504,5.3914,5.3648,5.3998,5.4149,5.4287,5.5046,5.4943,5.4563,5.4563,5.4908,5.515,5.4667,5.5288,5.6012,5.6012,5.6426,5.6805,5.6805,5.6805,5.6805,5.6805,5.5563,5.4943,5.6184,5.6391,5.684,5.8081,5.7391,5.6943,5.746,5.7116,5.6978,5.7495,5.7978,5.8495,5.8978,5.9047,5.8944,5.8702,5.8219,5.8047,5.8254,5.7564,5.7391,5.7909,5.6667,5.5529,5.4529,0.0,0.0,0.0,0.0,0.0,0.0,0.0,0.0,0.0,0.0,0.0,0.0,0.0,0.0,0.0,0.0,0.0,0.0,0.0,0.0,0.0,0.0,0.0,4.205,4.3651,4.5773,4.8159,4.9921,5.1536,5.3115,5.3298,5.3628,5.4399,5.4473,5.484,5.5611,5.6418,5.6859,5.6859,5.7593,5.7997,5.7997,5.8033,5.8033,5.8033,5.807,5.807,5.807,5.807,5.851,5.9245,5.9245,5.9685,6.0419,6.0419,6.0419,6.0236,5.8694,5.7752,5.7289,5.7847,5.807,5.7894,5.6776,5.6347,5.6288,5.5862,5.5697,5.5805,5.6564,5.6805,5.6805,5.6805,5.6805,5.6805,5.6805,5.6805,5.684,5.684,5.684,5.6874,5.6909,5.6909,5.6909,5.6943,5.6943,5.6667,5.5805,5.5701,5.5977,5.6736,5.5632,0.0,5.6736,5.6943,5.6943,5.6978,5.8288,5.915,5.915,6.053,6.1082,6.0323,6.0254,5.9875,5.9081,5.9771,5.9461,5.8012,5.7253,5.6909,5.6909,0.0,0.0,0.0,0.0,0.0,0.0,0.0,0.0,0.0,0.0,0.0,0.0,0.0,0.0,0.0,0.0,0.0,0.0,0.0,0.0,0.0,4.4162,4.5041,4.4821,4.7277,4.9811,5.1646,5.2784,5.3812,5.484,5.495,5.528,5.6088,5.6161,5.6492,5.7299,5.7556,5.7666,5.7666,5.7886,5.7997,5.7997,5.8584,5.8877,5.8877,5.9465,5.9758,5.9758,5.9758,5.9869,6.0089,6.0089,6.0199,6.0419,6.0419,6.0419,6.0346,5.9905,5.9626,5.953,5.9674,5.9481,5.9045,5.8322,5.8009,5.7989,5.7859,5.755,5.7157,5.7402,5.7126,5.6805,5.6805,5.6805,5.6805,5.6805,5.7219,5.7598,5.7598,5.8012,5.8564,5.915,5.9254,5.9426,5.9944,6.0047,5.9288,5.6909,5.7357,5.815,5.8357,5.9012,5.9599,6.0013,6.0047,6.0289,6.0875,6.1772,6.2324,6.2324,6.322,6.322,6.1944,6.1323,6.0668,5.9909,5.953,5.9392,5.9564,5.9357,5.9254,0.0,0.0,0.0,0.0,0.0,0.0,0.0,0.0,0.0,0.0,0.0,0.0,0.0,0.0,0.0,0.0,0.0,0.0,0.0,0.0,0.0,0.0,4.7021,4.8563,4.893,5.0618,5.227,5.3555,5.473,5.5574,5.6051,5.6418,5.6785,5.7262,5.7299,5.7519,5.796,5.7997,5.8143,5.851,5.851,5.8657,5.8988,5.9465,5.9722,5.9722,6.0199,6.0419,6.0419,6.0419,6.0566,6.0896,6.0896,6.108,6.141,6.141,6.141,6.1337,0.0,0.0,0.0,0.0,6.0188,5.9838,5.9276,5.8912,5.8667,5.8792,5.836,5.7869,5.8499,5.8194,5.7803,5.8033,5.7901,5.7805,5.815,5.853,5.8944,5.9254,5.9668,6.0082,6.0565,6.0668,6.0806,6.122,6.1289,0.0,5.8978,5.915,5.9599,5.9944,6.0185,6.0565,6.122,6.1013,6.1151,6.191,6.2668,6.3255,6.3565,6.4565,0.0,0.0,0.0,6.2875,6.2117,6.1047,0.0,0.0,0.0,6.0496,6.0185,5.9288,0.0,0.0,5.4805,5.3632,0.0,0.0,0.0,0.0,0.0,0.0,0.0,0.0,0.0,0.0,0.0,0.0,0.0,0.0,0.0,0.0,4.9774,5.2564,5.3482,5.3628,5.3885,5.4583,5.6014,5.6932,5.6932,5.7593,5.7997,5.7997,5.807,5.8143,5.8143,5.8217,0.0,0.0,0.0,5.9685,6.0382,6.0493,6.0529,6.0529,6.0639,6.0676,6.0676,6.0676,6.108,6.1741,6.1851,6.2291,6.2952,6.3062,6.3099,6.2915,6.13,6.0676,6.0676,6.0676,6.0676,6.0628,6.0253,0.0,0.0,5.9537,5.9137,5.8824,6.0008,5.9892,5.9459,6.0023,5.9693,5.9426,6.0151,6.0323,6.0496,6.1151,6.1289,6.1323,6.1427,6.1427,6.1461,6.153,6.1565,6.1565,6.1565,6.0944,6.0668,6.1323,6.0427,6.0151,6.1496,6.1185,6.1116,6.1875,6.2668,0.0,6.4048,6.5428,6.5876,6.5014,6.5462,6.5428,6.4738,6.3427,6.2772,6.2875,6.2082,6.1358,6.0703,6.0634,6.0909,6.1496,5.8633,5.7322,0.0,0.0,0.0,0.0,0.0,0.0,0.0,0.0,0.0,0.0,0.0,0.0,0.0,0.0,0.0,5.0655,5.2564,5.4436,5.5904,5.6124,5.6161,5.6345,5.7189,5.7776,5.7776,5.7923,5.7997,5.7997,5.8621,5.8988,5.8988,5.9575,6.0015,6.0162,6.0162,6.0236,6.0419,6.1043,6.1374,6.1374,6.2034,0.0,6.2365,6.2365,6.2438,6.2622,6.3319,6.3686,6.3906,6.4567,6.4824,6.4677,6.2989,6.2365,6.2365,6.2365,6.2365,6.2438,6.3035,6.3152,6.3158,6.3855,6.3599,6.2987,6.2745,6.2216,0.0,6.1155,6.0911,6.0909,6.1047,6.1082,6.1116,6.1254,6.1289,6.1496,6.2117,6.2255,6.2427,6.3048,6.3151,6.3151,6.3151,6.253,6.2082,6.2255,6.3013,6.3703,6.4014,6.4462,6.5083,6.5807,6.6566,6.7049,6.7221,6.8083,6.8049,6.6635,6.5531,6.4841,6.4703,6.4427,6.4565,6.5221,6.4462,6.3979,6.3841,6.322,6.3013,6.3117,6.1289,6.0427,0.0,0.0,0.0,0.0,0.0,0.0,0.0,0.0,0.0,0.0,0.0,4.6985,4.6581,0.0,5.2123,5.2527,5.4289,5.5904,5.6712,5.7152,5.7409,5.7409,5.7776,5.7997,5.7997,5.8364,5.8621,5.8621,5.9355,5.9795,5.9795,6.0199,6.0566,6.1006,6.1006,6.119,6.1594,6.1998,6.2438,6.2842,6.3246,6.3649,6.4053,6.4053,6.4053,6.409,6.453,6.4714,6.4714,6.5154,6.5301,6.5228,6.4383,6.4053,6.4053,6.4053,6.4053,6.4127,6.4567,6.4485,6.4256,6.4658,6.408,6.327,6.3306,6.2611,6.1779,6.1813,6.1571,6.1392,6.1806,6.191,6.1979,6.2358,6.2461,6.2565,6.2944,6.3048,6.3255,6.4014,6.4152,6.4393,6.5152,6.4979,6.4462,6.3703,6.4565,6.529,6.529,6.5635,6.6152,6.6911,6.7325,6.7704,6.8049,6.8463,6.8532,6.8152,6.6704,6.6014,6.6393,6.5669,6.5462,6.5876,6.5497,6.529,6.529,6.491,6.4738,6.4703,6.3945,6.3186,0.0,0.0,0.0,0.0,0.0,0.0,0.0,4.5037,4.6176,4.614,4.8087,4.9703,4.9517,5.1903,5.3922,5.3922,5.5684,5.7042,5.7042,5.7593,5.807,5.8217,5.8217,5.8217,5.8217,5.8988,5.9428,5.9428,6.0199,6.0639,6.0639,6.0786,6.1153,6.1814,6.1998,6.2401,6.3062,6.3209,6.3649,6.431,6.431,6.4677,6.5301,6.5301,6.5301,6.5301,6.5485,6.5632,6.5778,6.5778,6.5778,6.5778,6.5778,6.5778,6.5742,6.5411,6.5301,6.5338,6.5485,6.5167,6.4766,6.4947,6.4219,6.3421,6.3672,6.3005,6.2162,6.2472,6.2127,6.191,6.253,6.2806,6.3082,6.3669,6.391,6.4048,6.4048,6.4152,6.4427,6.5014,6.5255,6.5773,6.698,6.7325,6.6945,6.5566,6.6048,6.6531,6.6531,6.6669,6.698,6.7601,6.7635,6.7876,6.8497,6.8532,6.8808,6.9463,6.8325,6.7911,6.8532,6.7394,6.6773,6.6773,6.6773,6.6773,6.6773,6.6773,6.6773,6.6773,6.6773,6.5773,4.0818,4.1451,4.2479,4.3384,4.5201,4.72,0.0,5.0342,5.1411,5.1332,5.3244,5.4712,5.3891,5.5207,5.6418,5.6418,5.7226,5.7886,5.7886,5.7923,5.8253,5.8988,5.9098,5.9098,5.9098,5.9795,6.0272,6.0272,6.1006,6.1484,6.1484,6.2144,6.2585,6.2658,6.3429,6.387,6.3943,6.4677,6.5081,6.5191,6.5191,6.5228,6.5301,6.5301,6.5301,6.5338,6.6072,6.6769,6.743,6.743,6.743,6.743,6.743,6.743,6.7247,6.5852,6.5301,6.5411,6.6109,6.6313,6.637,6.7066,6.7231,6.6882,6.5715,6.5212,6.4888,6.3796,6.3397,6.3358,6.3427,6.3945,6.4462,6.4565,6.5117,6.5635,6.5635,6.6152,6.6635,6.6738,6.7256,6.7773,6.7945,6.8566,6.8739,6.7842,6.8394,6.8911,6.8911,6.9463,6.9911,6.998,7.0015,7.0049,7.0118,7.0118,7.0153,7.0256,7.0118,7.0049,7.0118,6.998,6.9877,6.9877,6.9877,6.9877,6.9877,6.9877,6.9877,6.9877,6.9877,6.8359,4.5453,4.5268,4.549,4.8229,4.9268,5.0084,5.1637,5.2892,5.3665,5.358,5.5122,5.6374,5.5999,5.6793,5.7483,5.761,5.7822,5.8143,5.8621,5.8694,5.9034,5.989,6.0357,6.0419,5.9942,6.0687,6.1213,6.108,6.1851,6.2291,6.2291,6.3099,6.3576,6.3576,6.4347,6.4787,6.4787,6.5154,6.5558,6.5999,6.5999,6.6256,6.6696,6.6801,6.6853,6.6957,6.7288,6.762,6.7952,6.7952,6.7899,6.7847,6.7847,6.7794,6.7614,6.6953,6.6696,6.6733,6.7063,6.7173,6.7193,6.7157,6.6852,6.6307,6.5303,6.5019,6.4917,6.4443,6.4565,6.4945,6.4945,6.5497,6.6048,6.6048,6.66,6.7187,6.7187,6.7428,6.7773,6.8221,6.8566,6.9049,6.9911,7.036,7.0601,7.0739,7.0291,6.9911,6.9911,7.0187,7.0394,7.0394,7.0394,7.0394,7.0394,7.0394,7.0567,7.1015,7.0636,7.0567,7.1015,7.0601,7.0394,7.0394,7.0394,7.0394,7.0394,7.0394,7.0394,7.0394,7.0394,6.9704,4.8855,4.8707,4.8855,5.1825,5.2566,5.2826,5.3711,5.467,5.5406,5.536,5.6461,5.7376,5.7376,5.7765,5.8088,5.8179,5.8272,5.8547,5.9181,5.9438,5.9926,6.0877,6.1419,6.1592,6.1165,6.1691,6.2059,6.1924,6.2695,6.3172,6.3172,6.398,6.442,6.442,6.5228,6.5632,6.5683,6.5904,6.6308,6.6912,6.6912,6.7242,6.7847,6.7899,6.8004,6.8107,6.8328,6.8402,6.8439,6.8609,6.8668,6.8562,6.8509,6.8456,6.8348,6.8348,6.8201,6.8017,6.8017,6.8019,6.798,6.7506,6.7014,6.6423,6.5721,6.5718,6.5902,6.5711,6.6048,6.6497,6.6497,6.7049,6.7601,6.7601,6.8187,6.8739,6.8739,6.8877,6.9187,6.9773,7.0084,7.0567,7.1636,7.1808,7.2015,7.2602,7.1739,7.1015,7.1015,7.1015,7.1015,7.1015,7.1015,7.1015,7.1015,7.1015,7.1256,7.1774,7.1325,7.1256,7.1808,7.1291,7.1015,7.1015,7.1015,7.1015,7.1015,7.1015,7.1015,7.1015,7.1015,7.1118,4.975,5.112,5.2344,5.2531,5.4388,5.5949,5.5169,5.6166,5.7233,5.7233,5.7851,5.8356,5.8356,5.8268,5.8215,5.8179,5.875,5.9218,5.9394,6.0056,6.0913,6.1865,6.2068,6.2401,6.2855,6.2818,6.2768,6.2768,6.3576,6.4053,6.4053,6.4824,6.5264,6.5264,6.6035,6.6528,6.6648,6.7421,6.7878,6.8033,6.8033,6.807,6.807,6.807,6.807,6.8107,6.8919,6.9252,6.9289,6.9942,7.0219,7.0219,7.0055,7.0036,7.0036,7.0036,6.9522,6.8862,6.8862,6.8909,6.8959,6.8898,6.893,6.8813,6.808,6.8425,6.8943,6.8215,6.8014,6.8014,6.8014,6.8601,6.9222,6.9222,6.9773,7.0325,7.0325,7.0877,7.1394,7.1429,7.205,7.2602,7.2636,7.2636,7.2636,7.2671,7.2636,7.2602,7.2602,7.2602,7.2602,7.2602,7.2602,7.2602,7.2602,7.2602,7.2602,7.2636,7.2602,7.2602,7.2636,7.2602,7.2602,7.2602,7.2602,7.2602,7.2602,7.2602,7.2602,7.2602,7.2602,7.2981,5.2828,5.3756,5.4424,5.5577,5.6469,5.7175,5.7398,5.7839,5.8206,5.8085,5.8301,5.8443,5.8393,5.8305,5.826,5.8305,5.8878,5.9578,6.0222,6.1006,6.1865,6.2854,6.2882,6.3168,6.3944,6.4055,6.391,6.3649,6.4522,6.5,6.4897,6.5668,6.6109,6.6109,6.6985,6.77,6.8268,6.8631,6.9089,6.9658,6.9658,6.971,6.985,7.0406,7.042,6.999,7.0893,7.0879,7.0258,7.0502,7.0454,7.0367,7.0864,7.0606,7.022,7.1284,7.1505,7.1081,6.9486,6.9298,6.9543,6.8596,6.8682,6.896,6.8252,6.8613,6.9237,6.8956,6.9222,6.9635,6.9635,7.0187,7.0739,7.0739,7.1325,7.1912,7.1912,7.2084,7.2291,7.2291,7.2498,7.2671,7.2671,7.2671,7.2843,7.3326,7.2981,7.2843,7.336,7.3395,7.3602,7.4119,7.4188,7.4154,7.4154,7.4154,7.4188,7.4188,7.4188,7.4188,7.4188,7.4188,7.4188,7.4188,7.4188,7.4188,7.4188,7.4188,7.4188,7.4188,7.4188,7.4292,5.5092,5.5835,5.6172,5.7249,5.7732,5.7992,5.8215,5.8471,5.8614,5.8572,5.8794,5.8931,5.8887,5.8799,5.8866,5.9206,5.9862,6.0563,6.1209,6.2253,6.3187,6.3799,6.3826,6.4113,6.4975,6.5356,6.5286,6.4632,6.5419,6.5897,6.5742,6.6476,6.6969,6.7022,6.7553,6.832,6.9236,6.9341,6.9947,7.1109,7.1109,7.1309,7.171,7.2266,7.2229,7.1747,7.2652,7.2585,7.1907,7.215,7.2189,7.206,7.2556,7.2333,7.1945,7.2973,7.3377,7.3039,7.0992,7.059,7.0811,6.9635,6.9608,6.9888,6.9451,6.9877,7.0498,7.0498,7.0843,7.1187,7.1187,7.1567,7.1912,7.1912,7.2291,7.2671,7.2671,7.2671,7.2671,7.2671,7.2877,7.3084,7.3084,7.3291,7.3636,7.4119,7.3774,7.3671,7.4119,7.4188,7.4395,7.4878,7.4947,7.4912,7.4912,7.4912,7.4947,7.4947,7.4947,7.4947,7.4947,7.4947,7.4947,7.4947,7.4947,7.4947,7.4947,7.4947,7.4947,7.4947,7.4947,7.5085,5.6533,5.7464,5.7583,5.7583,5.8141,5.8512,5.7732,5.8058,5.8572,5.8656,5.9245,5.9715,5.9641,5.9715,5.9967,6.0618,6.1422,6.2022,6.216,6.353,6.4614,6.4744,6.4828,6.5116,6.5912,6.6786,6.6876,6.5741,6.6316,6.6706,6.6549,6.7283,6.7794,6.7899,6.7989,6.8498,6.9531,6.9679,7.0634,7.2295,7.2332,7.2778,7.3521,7.3558,7.3506,7.3384,7.4162,7.4386,7.4182,7.4843,7.5117,7.5058,7.5014,7.4955,7.4918,7.4992,7.5028,7.4725,7.3216,7.2741,7.262,7.1814,7.1524,7.1567,7.1567,7.2084,7.2671,7.2671,7.2671,7.2671,7.2671,7.2671,7.2671,7.2671,7.2671,7.2671,7.2671,7.2671,7.2705,7.274,7.3326,7.3843,7.3843,7.4464,7.4947,7.4981,7.4981,7.4981,7.4981,7.4981,7.5016,7.505,7.505,7.505,7.505,7.505,7.505,7.505,7.505,7.505,7.505,7.505,7.505,7.505,7.505,7.505,7.505,7.505,7.505,7.505,7.505,7.5464,5.7951,5.8359,5.8401,5.8401,5.8549,5.8661,5.8438,5.8508,5.8656,5.8698,5.88,5.8826,5.8826,5.9257,5.9553,5.9153,6.0818,6.1974,6.1552,6.2851,6.4076,6.4753,6.4828,6.5338,6.6786,6.712,6.7369,6.758,6.7664,6.7672,6.7516,6.7736,6.7899,6.7899,6.8661,6.9517,7.0383,7.2303,7.3558,7.4004,7.4598,7.497,7.5193,7.5716,7.5624,7.5051,7.5754,7.5547,7.488,7.5006,7.5058,7.5014,7.5542,7.5432,7.5065,7.6276,7.6313,7.5654,7.4713,7.4011,7.3404,7.2624,7.2405,7.236,7.236,7.2533,7.2671,7.2671,7.2671,7.2671,7.2671,7.2671,7.2671,7.2671,7.2671,7.2671,7.2671,7.2671,7.2843,7.3395,7.4119,7.4636,7.4636,7.4809,7.5119,7.5706,7.5809,7.5809,7.5809,7.5809,7.6016,7.6568,7.6637,7.6637,7.6637,7.6637,7.6637,7.6637,7.6637,7.6637,7.6637,7.6637,7.6637,7.6637,7.6637,7.6637,7.6637,7.6637,7.6637,7.6637,7.6637,7.674,5.8401,5.8698,5.8698,5.8698,5.8698,5.8698,5.8698,5.8698,5.8624,5.8252,5.8396,5.8683,5.8974,5.9418,5.9937,6.0567,6.1871,6.2658,6.2339,6.3342,6.4456,6.5274,6.5385,6.6017,6.7688,6.7837,6.7974,6.8371,6.8259,6.8158,6.7967,6.8336,6.8572,6.8624,6.9554,7.062,7.1858,7.3707,7.497,7.5676,7.6121,7.6567,7.6902,7.733,7.7144,7.6681,7.7012,7.686,7.6184,7.6184,7.6066,7.6019,7.646,7.6166,7.5588,7.6501,7.6308,7.5551,7.512,7.4506,7.3704,7.2967,7.2706,7.2671,7.2671,7.2671,7.2671,7.2671,7.2671,7.2671,7.2671,7.2671,7.2671,7.2671,7.2912,7.3153,7.3153,7.3429,7.3878,7.4671,7.5154,7.5568,7.5878,7.5947,7.6085,7.6533,7.6602,7.6602,7.6602,7.6602,7.6775,7.7189,7.7223,7.7223,7.7223,7.7223,7.7223,7.7223,7.7223,7.7223,7.7223,7.7223,7.7223,7.7223,7.7223,7.7223,7.7223,7.7223,7.7223,7.7223,7.7223,7.7223,5.8326,5.8698,5.8698,5.8698,5.8698,5.8698,5.8698,5.8624,5.8364,5.7658,5.7992,5.8582,5.9276,5.9579,6.0401,6.2464,6.3029,6.3342,6.3453,6.4048,6.4939,6.6128,6.6165,6.6722,6.8357,6.8506,6.8543,6.8654,6.8556,6.8407,6.8306,6.8971,6.9466,6.9878,7.0546,7.1747,7.3521,7.4338,7.5527,7.7087,7.7199,7.7608,7.8276,7.8276,7.8165,7.8014,7.8014,7.7842,7.762,7.762,7.7524,7.7341,7.7243,7.6765,7.6203,7.6068,7.5618,7.501,7.4864,7.4381,7.3641,7.3018,7.2755,7.2671,7.2671,7.2671,7.2671,7.2671,7.2671,7.2671,7.2671,7.274,7.2843,7.2843,7.3395,7.3947,7.3947,7.4533,7.5292,7.5982,7.6189,7.6464,7.712,7.7223,7.7223,7.7223,7.7223,7.7223,7.7223,7.7223,7.7223,7.7223,7.7223,7.7223,7.7223,7.7223,7.7223,7.7223,7.7223,7.7223,7.7223,7.7223,7.7223,7.7223,7.7223,7.7223,7.7223,7.7223,7.7223,7.7223,7.7223,7.7223,5.8624,5.8698,5.8698,5.8698,5.8698,5.8698,5.8698,5.8215,5.7695,5.7546,5.6982,5.6829,5.7728,5.8354,5.8905,5.9436,6.0704,6.1856,6.2524,6.2747,6.3899,6.676,6.65,6.6722,6.8357,6.8506,6.8803,6.9472,6.9459,6.9409,6.9272,6.942,7.0175,7.1701,7.1886,7.2741,7.4375,7.5193,7.6084,7.7087,7.7756,7.8165,7.8276,7.8127,7.8014,7.8014,7.79,7.782,7.7762,7.7762,7.7703,7.7463,7.6793,7.6432,7.6135,7.5441,7.5155,7.4937,7.4264,7.3956,7.3799,7.3677,7.3183,7.2671,7.2671,7.2671,7.2671,7.2671,7.2671,7.2671,7.2671,7.3119,7.3602,7.3602,7.4188,7.474,7.474,7.5361,7.5947,7.6085,7.6602,7.7085,7.7189,7.7223,7.7223,7.7223,7.7223,7.7223,7.7223,7.7223,7.7223,7.7223,7.7223,7.7223,7.7223,7.7223,7.7223,7.7223,7.7223,7.7223,7.7223,7.7223,7.7223,7.7223,7.7223,7.7223,7.7223,7.7223,7.7223,7.7223,7.7223,7.7223,5.8215,5.8401,5.8698,5.8698,5.9032,5.9107,5.8289,5.8103,5.7658,5.5949,5.5241,5.5164,5.606,5.6466,5.7241,5.9069,6.037,6.1484,6.2301,6.3119,6.4419,6.6425,6.7094,6.7837,6.9026,6.9509,6.9917,7.0326,7.0326,7.0276,7.0226,7.0634,7.1501,7.2778,7.2815,7.3595,7.5193,7.5601,7.6456,7.7719,7.809,7.8276,7.8276,7.8221,7.8165,7.8127,7.8108,7.7994,7.79,7.7666,7.7426,7.7243,7.63,7.5721,7.5263,7.4642,7.4111,7.3791,7.3392,7.3508,7.3821,7.3821,7.3282,7.274,7.3153,7.3257,7.3326,7.374,7.3843,7.3843,7.3843,7.4119,7.4361,7.4361,7.4981,7.5637,7.6051,7.643,7.6671,7.6671,7.6982,7.7223,7.7223,7.7223,7.7223,7.7223,7.7223,7.7223,7.7223,7.7568,7.7672,7.7258,7.7603,7.7844,7.7844,7.8189,7.843,7.843,7.843,7.843,7.843,7.8051,7.8017,7.8396,7.7637,7.743,7.7844,7.743,7.7223,7.7223,7.7223,7.7223,5.7843,5.8215,5.8735,5.8921,5.9292,5.9292,5.7843,5.7732,5.7026,5.3943,5.3162,5.32,5.3831,5.424,5.5466,5.8364,5.9738,6.089,6.2227,6.349,6.4828,6.6202,6.7651,6.884,6.962,7.0437,7.0995,7.118,7.1366,7.1366,7.1218,7.1998,7.2741,7.3372,7.3372,7.4153,7.5787,7.5679,7.6495,7.8165,7.8165,7.8165,7.8165,7.8221,7.8276,7.8276,7.8276,7.8165,7.7863,7.751,7.7144,7.6793,7.5895,7.5191,7.4563,7.3991,7.3472,7.2922,7.2838,7.3322,7.3945,7.386,7.3498,7.3257,7.3843,7.4016,7.4154,7.4774,7.4947,7.4947,7.4912,7.505,7.5223,7.5395,7.5913,7.6499,7.7085,7.7223,7.7223,7.7223,7.7223,7.7223,7.7223,7.7223,7.7223,7.7223,7.7223,7.7223,7.7223,7.7913,7.8154,7.7534,7.8189,7.8637,7.8637,7.9189,7.95,7.95,7.95,7.95,7.95,7.8948,7.8913,7.95,7.8327,7.8017,7.8637,7.7844,7.7465,7.7465,7.7292,7.7223,5.8215,5.8661,5.8884,5.9627,5.9292,5.8586,5.7695,5.6395,5.4648,5.2122,5.1008,5.045,5.0562,5.1788,5.3423,5.5169,5.6803,5.8921,6.1967,6.2524,6.375,6.6834,6.7986,6.884,6.962,7.0437,7.1255,7.1998,7.2741,7.2852,7.2109,7.2852,7.3298,7.3372,7.3372,7.4153,7.5787,7.5346,7.5985,7.757,7.757,7.757,7.7629,7.8071,7.8276,7.8276,7.8276,7.8014,7.7533,7.7473,7.7107,7.6469,7.5688,7.5191,7.4935,7.4216,7.3826,7.3782,7.338,7.3739,7.4281,7.3945,7.4223,7.474,7.4809,7.4843,7.4843,7.4912,7.4947,7.4912,7.4912,7.5464,7.6189,7.6844,7.7085,7.7154,7.7223,7.7223,7.7223,7.7223,7.7223,7.7223,7.7223,7.7223,7.7223,7.7223,7.7223,7.7223,7.7223,7.7913,7.8361,7.8292,7.8982,7.9396,7.9396,7.9465,7.95,7.95,7.95,7.95,7.95,7.9431,7.9431,7.95,7.9362,7.9327,7.9396,7.8672,7.8292,7.8292,7.7568,7.7223,5.6432,5.7918,5.9404,5.9218,5.9292,5.8846,5.6543,5.5094,5.346,5.0488,4.9224,4.8667,4.8667,5.0042,5.1676,5.3311,5.5763,5.8475,6.1298,6.2933,6.4716,6.702,6.8468,6.936,6.9694,7.092,7.2035,7.2852,7.3187,7.3261,7.2927,7.3224,7.3372,7.3372,7.3372,7.3787,7.4626,7.4916,7.5492,7.6349,7.6825,7.7169,7.7473,7.7747,7.7805,7.7805,7.7805,7.751,7.6983,7.6728,7.6439,7.6104,7.519,7.4858,7.4709,7.4139,7.394,7.3931,7.4227,7.4764,7.5164,7.5532,7.5933,7.6223,7.5775,7.5637,7.574,7.6189,7.6292,7.6292,7.6292,7.6533,7.6844,7.7154,7.7223,7.7223,7.7223,7.7223,7.7223,7.7223,7.7223,7.7223,7.7223,7.7223,7.7223,7.7223,7.7223,7.7223,7.7223,7.8292,7.9086,7.9086,7.9741,8.0189,8.0189,8.0603,8.0879,8.0879,8.0879,8.0879,8.0879,8.0431,8.0396,8.0879,7.9982,7.9741,8.0189,7.9431,7.9086,7.9051,7.8741,7.8293,5.528,5.7249,5.9181,5.9107,5.8772,5.7806,5.5243,5.346,5.1416,4.8147,4.6995,4.6624,4.6624,4.7961,4.9782,5.1899,5.4797,5.7732,6.0444,6.271,6.4828,6.6722,6.8394,6.9546,7.0029,7.1552,7.2778,7.3335,7.3372,7.3372,7.3372,7.3372,7.332,7.3215,7.3215,7.3369,7.3692,7.4322,7.4884,7.537,7.6105,7.6664,7.7045,7.7169,7.7292,7.7292,7.7292,7.6983,7.6469,7.614,7.5934,7.5655,7.5042,7.4744,7.4744,7.4405,7.447,7.4675,7.5002,7.5603,7.6384,7.652,7.6955,7.7298,7.6602,7.643,7.6533,7.7085,7.7223,7.7223,7.7223,7.7223,7.7223,7.7223,7.7223,7.7223,7.7223,7.7223,7.7223,7.7223,7.7223,7.7223,7.7223,7.7223,7.7223,7.7223,7.7223,7.7292,7.7534,7.8706,7.9603,7.981,8.05,8.0983,8.0983,8.1466,8.181,8.181,8.181,8.181,8.181,8.1259,8.1224,8.1776,8.0741,8.0431,8.0983,7.9982,7.9638,7.981,7.9396,7.875,5.5429,5.6878,5.7918,5.9515,5.7472,5.4834,5.4017,5.1305,4.8036,4.4729,4.4023,4.4023,4.4023,4.5398,4.759,5.0896,5.346,5.6172,5.9478,6.1373,6.3342,6.5831,6.754,6.9137,7.0735,7.2406,7.3372,7.3372,7.3372,7.3372,7.3372,7.3372,7.3215,7.2742,7.2686,7.2884,7.3216,7.345,7.3982,7.4844,7.5606,7.6003,7.6003,7.6469,7.6728,7.6728,7.6728,7.6403,7.6003,7.6003,7.5691,7.5225,7.5225,7.5189,7.5189,7.5189,7.5688,7.6217,7.5372,7.6393,7.7823,7.6522,7.6955,7.7807,7.7278,7.7223,7.7223,7.7223,7.7223,7.7223,7.7223,7.7223,7.7223,7.7223,7.7223,7.7223,7.7223,7.7223,7.7223,7.7223,7.7223,7.7223,7.7223,7.7223,7.7223,7.7223,7.7223,7.7499,7.8292,7.9051,7.9776,8.0534,8.1328,8.1776,8.1776,8.181,8.181,8.181,8.181,8.181,8.181,8.181,8.181,8.181,8.1776,8.1776,8.1776,8.0258,7.9879,8.0569,7.9086,7.7995,5.1676,5.3125,5.4426,5.5466,5.4128,5.2308,5.1491,4.8779,4.5992,4.4358,4.354,4.3355,4.3912,4.5807,4.8036,5.0228,5.3088,5.6172,5.9441,6.1336,6.3527,6.6574,6.8357,6.9769,7.0809,7.1923,7.2778,7.3335,7.3372,7.3372,7.3372,7.3372,7.3215,7.2686,7.2686,7.2453,7.182,7.246,7.2988,7.3436,7.426,7.5152,7.6003,7.6104,7.6239,7.6239,7.6239,7.5934,7.5478,7.5478,7.5334,7.5225,7.5225,7.5225,7.526,7.5831,7.6188,7.6545,7.7275,7.7831,7.8089,7.7881,7.7891,7.7807,7.7313,7.7223,7.7223,7.7223,7.7223,7.7223,7.7223,7.7223,7.7223,7.7223,7.7223,7.7223,7.7223,7.7223,7.7223,7.7223,7.7223,7.7223,7.7223,7.7223,7.7223,7.7223,7.7223,7.7499,7.8292,7.9051,7.9776,8.0534,8.1328,8.181,8.181,8.181,8.181,8.181,8.181,8.181,8.181,8.181,8.181,8.181,8.181,8.181,8.181,8.1328,8.0596,7.9775,7.8714,7.7345,4.8633,5.0413,5.1862,5.2679,5.1454,4.9856,4.9336,4.6698,4.4209,4.3652,4.2909,4.2797,4.4209,4.5992,4.8073,5.0673,5.3311,5.606,5.9032,6.063,6.2673,6.5979,6.8617,7.0363,7.0883,7.1961,7.2852,7.3335,7.3372,7.3372,7.3372,7.3511,7.3351,7.2899,7.2569,7.1951,7.0979,7.1704,7.2358,7.2798,7.3619,7.4583,7.5655,7.5655,7.5655,7.5655,7.5655,7.555,0.0,7.5225,7.5225,7.5225,7.5225,7.5403,7.5724,7.6224,7.6759,7.7401,7.8212,7.8591,7.8673,7.8434,7.798,7.7544,7.7313,7.7223,7.7223,7.7223,7.7223,7.7223,7.7223,7.7223,7.7223,7.7223,7.7223,7.7223,7.7223,7.7223,7.7223,7.7223,7.7223,7.7223,7.7223,7.7223,7.7223,7.7223,7.7223,7.7603,7.8706,7.9224,7.9913,8.0948,8.15,8.181,8.181,8.181,8.181,8.181,8.1455,8.1359,8.1359,8.1068,8.097,8.1262,8.097,8.097,8.1262,8.076,7.9785,7.8536,7.8046,7.6944,0.0,4.841,4.9893,5.0896,4.9373,4.7627,4.7701,4.5249,0.0,4.2983,4.2389,4.2575,4.4952,4.6141,4.8036,5.1974,5.4017,5.5949,5.8364,5.9589,6.141,6.4531,6.8394,7.0883,7.0995,7.2406,7.3335,7.3372,7.3447,7.3484,7.3394,7.3758,7.3648,7.313,7.2401,7.1603,7.0657,7.1406,7.212,7.2798,7.3619,7.4404,7.5118,7.5189,7.5225,7.5225,7.5225,7.5225,7.5225,7.5225,7.5225,7.5225,7.5225,7.5688,7.6402,7.6438,7.7401,7.8609,7.8292,7.8982,7.9665,7.8406,7.7632,7.7223,7.7223,7.7223,7.7223,7.7223,7.7223,7.7223,7.7223,7.7223,7.7223,7.7223,7.7223,7.7223,7.7223,7.7223,7.7223,7.7223,7.7223,7.7223,7.7223,7.7223,7.7223,7.7223,7.7223,7.7775,7.9258,7.9465,8.0086,8.1569,8.1776,8.181,8.181,8.181,8.181,8.181,8.1034,8.0573,8.0474,7.9769,7.9701,8.0408,7.9701,7.9667,8.034,7.8926,7.7816,7.7046,7.708,7.6627,4.1815,0.0,4.5955,4.8036,4.7664,4.6921,0.0,4.6141,4.4692,4.4692,4.4544,4.4804,4.5992,4.7924,5.0042,5.2234,5.45,5.6617,5.8438,6.1558,6.4159,6.5571,6.8246,7.0512,7.1775,7.2221,7.2741,7.3335,7.3967,7.4142,7.3739,7.438,7.4372,7.3494,7.3313,7.2911,7.2263,7.2441,7.262,7.2798,7.3619,7.4118,7.4332,7.4939,7.5225,7.5225,7.5225,7.5225,7.5225,7.5225,7.5225,7.5225,7.5225,7.5688,7.6474,7.7045,7.7865,7.8757,7.9322,7.9679,7.9743,7.8741,7.8151,7.7632,7.7313,7.7223,7.7223,7.7223,7.7223,7.7223,7.7223,7.7223,7.7223,7.7223,7.7223,7.7223,7.7223,7.7223,7.7223,7.7223,7.7223,7.7223,7.7223,7.7223,7.7223,7.7223,7.7223,7.7568,7.8534,7.9155,7.9879,8.081,8.1431,8.181,8.181,8.181,8.181,8.181,8.1585,8.1262,8.0474,8.0308,8.0006,7.9598,7.9392,7.909,7.8724,7.8352,7.7176,7.5336,7.5973,7.5171,3.9896,4.1629,4.3623,4.583,4.6049,4.5971,4.6925,4.6178,4.5398,4.5769,4.5547,4.5769,4.733,4.9336,5.1528,5.3905,5.606,5.8103,6.011,6.3305,6.5571,6.6017,6.8543,7.0623,7.1515,7.2295,7.2986,7.3498,7.3979,7.4275,7.4359,7.4714,7.4779,7.4457,7.4388,7.383,7.2798,7.2798,7.2976,7.3369,7.3797,7.4225,7.4582,7.501,7.5225,7.5225,7.5225,7.5225,7.5225,7.5225,7.5439,7.576,7.576,7.6438,7.7473,7.7901,7.8543,7.9293,7.9757,7.9743,7.9471,7.8823,7.8237,7.7807,7.7313,7.7223,7.7223,7.7223,7.7223,7.7223,7.7223,7.7223,7.7223,7.7223,7.7223,7.7223,7.7223,7.7223,7.7223,7.7223,7.7223,7.7223,7.7223,7.7223,7.7223,7.7223,7.7534,7.8051,7.881,7.9258,7.9913,8.1052,8.0914,8.0879,8.1224,8.1259,8.1431,8.1776,8.1393,8.0936,8.0508,8.0107,7.9598,7.8763,7.8712,7.8074,7.6505,7.6208,7.545,7.4361,7.4769,7.4469,3.9327,4.0957,4.2775,4.4704,4.5178,4.5506,4.6743,4.6513,4.6215,4.6921,4.6698,4.707,4.9262,5.1119,5.3274,5.6209,5.8029,5.985,6.2116,6.4419,6.6017,6.6239,6.8914,7.0846,7.1069,7.2429,7.3404,7.3791,7.397,7.4353,7.5028,7.4986,7.5092,7.5451,7.5296,7.4547,7.3191,7.3155,7.344,7.4011,7.4154,7.4511,7.5046,7.526,7.5403,7.5403,7.551,7.5546,7.5546,7.5439,7.5867,7.6545,7.6438,7.733,7.8686,7.8686,7.9221,7.9899,7.9899,7.9629,7.9196,7.8741,7.8322,7.7893,7.7402,7.7223,7.7223,7.7223,7.7223,7.7223,7.7223,7.7223,7.7223,7.7223,7.7223,7.7223,7.7223,7.7223,7.7223,7.7223,7.7223,7.7223,7.7223,7.7223,7.7223,7.7223,7.781,7.8465,7.9086,7.9258,7.9879,8.1293,8.0396,7.9982,8.0741,8.081,8.1086,8.1776,8.1068,8.0641,8.0508,7.9701,7.8908,7.8031,7.7965,7.692,7.4637,7.3977,7.3616,7.3492,7.3665,7.397,3.9439,4.1751,4.4193,4.6397,4.691,4.7388,4.9154,4.9447,4.941,4.9522,5.0599,5.1788,5.2865,5.4983,5.6952,5.8141,5.9738,6.1187,6.2264,6.3899,6.5534,6.6945,6.8766,7.0437,7.1849,7.2408,7.2981,7.3734,7.4702,7.5107,7.476,7.5422,7.5616,7.5299,7.519,7.5082,7.4832,7.4832,7.4547,7.4011,7.4689,7.4725,7.4261,7.5581,7.6224,7.6259,7.6866,7.7152,7.708,7.6474,7.6652,7.7259,7.6652,7.733,7.8686,7.8686,7.9221,7.9899,7.9899,7.9822,7.9665,7.8823,7.8574,7.8322,7.7456,7.7223,7.7223,7.7223,7.7223,7.7223,7.7223,7.7223,7.7223,7.7223,7.7223,7.7223,7.7223,7.7223,7.7223,7.7223,7.7223,7.7223,7.7223,7.7223,7.7223,7.7223,7.7327,7.743,7.7568,7.8154,7.8913,7.9776,8.0224,8.0776,8.1569,8.1638,8.1672,8.181,8.1681,8.1262,8.0474,7.9701,7.8883,7.8111,7.7523,7.6406,7.4708,7.3933,7.3296,7.2688,7.3389,7.3389,3.9455,4.1685,4.4493,4.7599,4.9193,5.0341,5.1751,5.2791,5.3088,5.1751,5.2754,5.4166,5.502,5.6432,5.8364,6.0927,6.2747,6.4122,6.4939,6.6054,6.7094,6.7874,6.8989,7.0177,7.1366,7.2169,7.2994,7.4006,7.4679,7.5158,7.5426,7.5546,7.5621,7.5621,7.5334,7.5225,7.5225,7.5225,7.501,7.4654,7.5046,7.501,7.4689,7.5403,7.5974,7.6402,7.6759,7.7116,7.7473,7.7116,7.7437,7.8115,7.7758,7.8329,7.9364,7.9364,7.9578,7.9899,7.9899,7.9899,7.9822,7.915,7.887,7.8705,7.7893,7.7544,7.7579,7.7313,7.7223,7.7223,7.7223,7.7223,7.7223,7.7223,7.7223,7.7223,7.7223,7.7223,7.7223,7.7223,7.7223,7.7223,7.7223,7.7223,7.7223,7.7223,7.7603,7.7844,7.7844,7.8534,7.9293,8.0017,7.9707,7.9741,8.05,8.0189,8.05,8.1707,8.181,8.1413,8.0645,8.0224,7.9423,7.815,7.7077,7.586,7.4752,7.3584,7.2832,7.2508,7.29,7.3077,3.9842,4.2175,4.5264,4.8592,5.0501,5.1962,5.368,5.5243,5.5763,5.3868,5.4909,5.6354,5.7126,5.8127,5.9795,6.2946,6.4782,6.6165,6.7168,6.7837,6.832,6.8506,6.9397,7.0239,7.0953,7.2226,7.342,7.4352,7.4663,7.5148,7.576,7.5406,7.5406,7.5796,7.5406,7.5225,7.5225,7.5225,7.5225,7.5225,7.5225,7.5225,7.5225,7.5403,7.5831,7.6402,7.6759,7.7259,7.7794,7.7794,7.8258,7.8936,7.8757,7.9186,7.9899,7.9899,7.9899,7.9899,7.9899,7.9899,7.9822,7.9356,7.9196,7.9034,7.8322,7.8066,7.798,7.749,7.7402,7.7313,7.7223,7.7223,7.7223,7.7223,7.7223,7.7223,7.7223,7.7223,7.7223,7.7223,7.7223,7.7223,7.7223,7.7223,7.7223,7.7223,7.7741,7.8189,7.8396,7.8913,7.9603,8.0534,7.9603,7.9155,7.9707,7.9258,7.9672,8.1431,8.1707,8.1535,8.0914,8.0707,7.9943,7.8552,7.7033,7.5773,7.4695,7.3443,7.2688,7.2508,7.2508,7.2794,4.0962,4.4037,4.7644,4.9422,4.961,5.0395,5.4086,5.5652,5.6246,5.606,5.7918,5.9647,6.0149,6.154,6.2682,6.2977,6.4076,6.5459,6.7094,6.7354,6.7688,6.8431,6.988,7.0939,7.1287,7.3031,7.4352,7.4663,7.4976,7.5226,7.5262,7.5189,7.5225,7.5262,7.5189,7.5225,7.5225,7.5225,7.5225,7.5225,7.5225,7.5225,7.5225,7.5974,7.6331,7.6474,7.7901,7.8543,7.8579,7.8579,7.9079,7.9757,7.8972,7.9186,7.9899,7.9899,7.9899,7.9899,7.9899,7.9899,7.9822,7.9356,7.9196,7.9115,7.8657,7.8574,7.8406,7.798,7.7807,7.7719,7.7313,7.7223,7.7223,7.7223,7.7223,7.7223,7.7223,7.7223,7.7223,7.7223,7.7223,7.7223,7.7223,7.7223,7.7223,7.7223,7.7258,7.7568,7.8292,7.8465,7.9017,8.0465,8.0534,8.0465,8.0534,8.05,8.0534,8.0707,8.1397,8.1776,8.1707,8.1017,8.0258,7.9407,7.7869,7.6323,7.487,7.4003,7.3181,7.2508,7.2508,7.2508,4.2583,4.5427,4.8497,5.0813,5.2361,5.3945,5.6418,5.8437,5.9516,5.8693,6.011,6.1537,6.1945,6.2751,6.3807,6.5041,6.4758,6.5286,6.7714,6.7827,6.7986,6.9125,6.9517,7.0159,7.1287,7.2401,7.3284,7.3982,7.4726,7.5225,7.5225,7.5225,7.5225,7.5225,7.5225,7.5225,7.5225,7.5225,7.5225,7.5225,7.5225,7.5225,7.5225,7.551,7.5938,7.6438,7.7508,7.8222,7.8722,7.9221,7.965,7.9864,7.9578,7.965,7.9899,7.9899,7.9899,7.9899,7.9899,7.9899,7.9899,7.9708,7.9629,7.955,7.915,7.8823,7.849,7.798,7.7719,7.7402,7.7223,7.7223,7.7223,7.7223,7.7223,7.7223,7.7223,7.7223,7.7223,7.7223,7.7223,7.7223,7.7223,7.7223,7.7223,7.7223,7.7223,7.7327,7.7637,7.8085,7.8603,7.9189,7.9224,7.9051,7.8534,7.8948,7.9224,7.9224,8.0396,8.0845,8.0396,7.9638,7.8879,7.8085,7.7007,7.6198,7.5546,7.477,7.4003,7.3285,7.3285,7.3005,4.3921,4.6712,4.9448,5.1705,5.4074,5.6319,5.8307,5.9973,6.0932,6.0395,6.1596,6.2704,6.256,6.332,6.4365,6.5667,6.5359,6.5804,6.8197,6.8084,6.8277,6.9571,6.9665,7.0089,7.1394,7.2387,7.3182,7.3676,7.4655,7.5225,7.5225,7.5225,7.5225,7.5225,7.5225,7.5225,7.5225,7.5225,7.5225,7.5225,7.5225,7.5225,7.5225,7.5225,7.551,7.6045,7.683,7.758,7.8365,7.9186,7.9685,7.9899,7.9899,7.9899,7.9899,7.9899,7.9899,7.9899,7.9899,7.9822,7.9629,7.9629,7.9629,7.9629,7.9276,7.915,7.8906,7.849,7.798,7.7632,7.749,7.7313,7.7223,7.7223,7.7223,7.7223,7.7223,7.7223,7.7223,7.7223,7.7223,7.7223,7.7223,7.7223,7.7223,7.7223,7.7223,7.7327,7.7568,7.8085,7.8499,7.8741,7.8534,7.8189,7.7637,7.8085,7.8396,7.8396,7.9362,7.9776,7.9534,7.881,7.8154,7.7603,7.6748,7.6207,7.5986,7.545,7.4868,7.4072,7.3767,7.3389,4.489,4.785,5.0807,5.1946,5.4025,5.6595,5.9356,5.9711,5.9743,6.0951,6.239,6.3158,6.2034,6.3387,6.4636,6.4278,6.5543,6.7059,6.8346,6.8084,6.8277,6.9571,7.0437,7.1152,7.1829,7.3348,7.4175,7.4012,7.4761,7.5225,7.5225,7.5225,7.5225,7.5225,7.5225,7.5225,7.5225,7.5225,7.5225,7.5225,7.5225,7.5225,7.5225,7.5225,7.5225,7.526,7.6045,7.6795,7.7544,7.8365,7.915,7.9899,7.9899,7.9899,7.9899,7.9899,7.9899,7.9899,7.9899,7.955,7.9196,7.9196,7.9196,7.9196,7.9196,7.955,7.9822,7.9356,7.887,7.849,7.798,7.7579,7.7223,7.7223,7.7223,7.7223,7.7223,7.7223,7.7223,7.7223,7.7223,7.7223,7.7223,7.7223,7.7223,7.7223,7.7223,7.7499,7.8292,7.8396,7.8672,7.9396,7.8844,7.8396,7.8396,7.8396,7.8396,7.8396,7.8396,7.8741,7.9465,7.8775,7.8396,7.8396,7.7637,7.6828,7.5986,7.5986,7.5642,7.4902,7.4072,7.3665,4.6319,4.9698,5.2595,5.4337,5.6964,5.9325,6.0213,6.0341,6.0361,6.0674,6.2714,6.4132,6.3254,6.402,6.5127,6.6096,6.5696,6.593,6.7746,6.763,6.8145,7.03,7.048,7.079,7.1829,7.3098,7.3627,7.3226,7.444,7.5225,7.5225,7.5225,7.5225,7.5225,7.5225,7.5225,7.5225,7.5225,7.5225,7.5225,7.5225,7.5225,7.5225,7.5225,7.5225,7.526,7.6045,7.6509,7.683,7.8151,7.915,7.9899,7.9899,7.9899,7.9899,7.9899,7.9899,7.9899,7.9899,7.955,7.9196,7.9196,7.9034,7.8823,7.9115,7.9115,7.8987,7.9196,7.887,7.849,7.798,7.7807,7.7632,7.7313,7.7223,7.7223,7.7223,7.7223,7.7223,7.7223,7.7223,7.7223,7.7223,7.7223,7.7223,7.7223,7.7223,7.7292,7.7534,7.7568,7.7672,7.7879,7.7706,7.7568,7.7568,7.7568,7.7568,7.7568,7.7568,7.7913,7.8706,7.7982,7.7568,7.7568,7.7327,7.7133,7.6828,7.6828,7.6427,7.5642,7.5417,7.4736,4.9177,5.2354,5.5014,5.712,5.9023,6.0456,6.1134,6.1228,6.1208,6.168,6.3368,6.4709,6.4595,6.5361,6.6273,6.7022,6.6335,6.6208,6.7834,6.7523,6.7945,7.0189,7.0443,7.0735,7.1354,7.288,7.3585,7.2869,7.4297,7.5225,7.5225,7.5225,7.5225,7.5225,7.5225,7.5225,7.5225,7.5225,7.5225,7.5225,7.5225,7.5225,7.5225,7.5225,7.5225,7.526,7.6045,7.6581,7.6937,7.8186,7.915,7.9899,7.9899,7.9899,7.9899,7.9899,7.9899,7.9899,7.9899,7.955,7.9196,7.9196,7.8987,7.8657,7.8906,7.8823,7.8657,7.887,7.8657,7.8237,7.798,7.7719,7.7579,7.7313,7.7223,7.7223,7.7223,7.7223,7.7223,7.7223,7.7223,7.7223,7.7223,7.7223,7.7223,7.7223,7.7223,7.7223,7.7223,7.7223,7.7223,7.7223,7.7223,7.7223,7.7223,7.7223,7.7223,7.7223,7.7223,7.743,7.7913,7.7465,7.7223,7.7223,7.7223,7.7223,7.7223,7.7223,7.6918,7.6519,7.6114,7.5512,5.2275,5.504,5.7601,5.9942,6.0408,6.0738,6.2279,6.2327,6.2288,6.3243,6.4168,6.5087,6.5864,6.7012,6.776,6.7358,6.7153,6.7415,6.8222,6.763,6.7799,6.9595,7.0475,7.0856,7.0807,7.2911,7.3913,7.2869,7.4297,7.5225,7.5225,7.5225,7.5225,7.5225,7.5225,7.5225,7.5225,7.5225,7.5225,7.5225,7.5225,7.5225,7.5225,7.5225,7.5225,7.526,7.5974,7.6759,7.7544,7.8294,7.9114,7.9899,7.9899,7.9899,7.9899,7.9899,7.9899,7.9899,7.9899,7.955,7.9196,7.9196,7.8987,7.8574,7.8657,7.8657,7.8574,7.8657,7.8322,7.798,7.7893,7.7544,7.7223,7.7223,7.7223,7.7223,7.7223,7.7223,7.7223,7.7223,7.7223,7.7223,7.7223,7.7223,7.7223,7.7223,7.7223,7.7223,7.7223,7.7223,7.7223,7.7223,7.7223,7.7223,7.7223,7.7223,7.7223,7.7223,7.7223,7.7223,7.7223,7.7223,7.7223,7.7223,7.7223,7.7223,7.7223,7.7223,7.7223,7.7223,7.6427,7.6114,4.9858,5.4018,5.7996,6.0037,6.1717,6.3086,6.4076,6.3992,6.3419,6.2409,6.4092,6.5767,6.5669,6.7148,6.8097,6.7303,6.7103,6.7157,6.736,6.7249,6.7982,7.0374,7.0809,7.1078,7.1573,7.3239,7.3913,7.2869,7.4297,7.5225,7.5225,7.5225,7.5225,7.5225,7.5225,7.5225,7.5225,7.5225,7.5225,7.5225,7.5225,7.5225,7.5225,7.5225,7.5225,7.5225,7.5403,7.6224,7.7508,7.7687,7.8615,7.9899,7.9899,7.9899,7.9899,7.9899,7.9899,7.9899,7.9899,7.955,7.9196,7.9196,7.8987,7.8657,7.8952,7.8823,7.8657,7.8952,7.8823,7.8322,7.798,7.7807,7.7667,7.7313,7.7223,7.7223,7.7223,7.7223,7.7223,7.7223,7.7223,7.7223,7.7223,7.7223,7.7223,7.7223,7.7223,7.7223,7.7223,7.7223,7.7223,7.7223,7.7223,7.7223,7.7223,7.7223,7.7223,7.7223,7.7223,7.7223,7.7223,7.7223,7.7223,7.7223,7.7223,7.7223,7.7223,7.7223,7.7223,7.7223,7.7009,7.6611,5.055,5.4282,5.7737,6.0488,6.2364,6.3713,6.4159,6.4392,6.4362,6.3955,6.5175,6.6433,6.684,6.7765,6.8321,6.7878,6.7577,6.7523,6.7736,6.7577,6.8125,7.0077,7.0698,7.1004,7.1281,7.3093,7.3913,7.2869,7.4297,7.5225,7.5225,7.5225,7.5225,7.5225,7.5225,7.5225,7.5225,7.5225,7.5225,7.5225,7.5225,7.5225,7.5225,7.5225,7.5225,7.5225,7.5225,7.6081,7.7508,7.7508,7.8436,7.9899,7.9899,7.9899,7.9899,7.9899,7.9899,7.9899,7.9899,7.9743,7.955,7.955,7.9231,7.8987,7.9115,7.887,7.8574,7.8539,7.8406,7.8151,7.7667,7.7544,7.7456,7.7223,7.7223,7.7223,7.7223,7.7223,7.7223,7.7223,7.7223,7.7223,7.7223,7.7223,7.7223,7.7223,7.7223,7.7223,7.7223,7.7223,7.7223,7.7223,7.7223,7.7223,7.7223,7.7223,7.7223,7.7223,7.7223,7.7223,7.7223,7.7223,7.7223,7.7223,7.7223,7.7223,7.7223,7.7223,7.7223,7.7223,7.7223,7.7009,5.1103,5.4632,5.7923,6.1245,6.2854,6.3639,6.3788,6.4456,6.5274,6.6128,6.6556,6.7073,6.8308,6.8506,6.8457,6.8408,6.8033,6.793,6.8321,6.8033,6.8277,6.9571,7.0437,7.0872,7.0814,7.2936,7.3913,7.3009,7.4369,7.5225,7.5225,7.5225,7.5225,7.5225,7.5225,7.5225,7.5225,7.5225,7.5225,7.5225,7.5225,7.5225,7.5225,7.5225,7.5225,7.5225,7.5225,7.601,7.733,7.7437,7.8365,7.9721,7.9864,7.9899,7.9899,7.9899,7.9899,7.9899,7.9899,7.9899,7.9899,7.9899,7.9629,7.9276,7.9276,7.9034,7.8657,7.8237,7.798,7.7807,7.7402,7.7223,7.7223,7.7223,7.7223,7.7223,7.7223,7.7223,7.7223,7.7223,7.7223,7.7223,7.7223,7.7223,7.7223,7.7223,7.7223,7.7223,7.7223,7.7223,7.7223,7.7223,7.7223,7.7223,7.7223,7.7223,7.7223,7.7223,7.7223,7.7223,7.7223,7.7223,7.7223,7.7223,7.7223,7.7223,7.7223,7.7223,7.7223,7.7223,7.7223,7.7223,4.7018,5.3474,6.0055,6.2695,6.3482,6.3788,6.4493,6.5311,6.6165,6.6982,6.7195,6.7492,6.8357,6.8506,6.8408,6.7982,6.7841,6.7789,6.7841,6.7841,6.8277,6.9571,7.0437,7.1013,7.1269,7.3117,7.4106,7.3519,7.4583,7.5225,7.5225,7.5225,7.5225,7.5225,7.5225,7.5225,7.5225,7.5225,7.5225,7.5225,7.5225,7.5225,7.5225,7.5225,7.5225,7.5225,7.5225,7.5724,7.6581,7.7223,7.8044,7.89,7.965,7.9899,7.9899,7.9899,7.9899,7.9899,7.9899,7.9899,7.9899,7.9899,7.9822,7.9822,7.9822,7.9471,7.9115,7.9034,7.8455,7.7893,7.7807,7.7456,7.7223,7.7223,7.7223,7.7223,7.7223,7.7223,7.7223,7.7223,7.7223,7.7223,7.7223,7.7223,7.7223,7.7223,7.7223,7.7223,7.7223,7.7223,7.7223,7.7223,7.7223,7.7223,7.7223,7.7223,7.7223,7.7223,7.7223,7.7223,7.7223,7.7223,7.7223,7.7223,7.7223,7.7223,7.7223,7.7223,7.7223,7.7223,7.7223,7.7223,4.6941,5.2961,5.8698,6.2079,6.3267,6.3825,6.4642,6.5125,6.5608,6.6462,6.6982,6.7577,6.8357,6.8506,6.8457,6.8222,6.8222,6.8222,6.8222,6.8222,6.8568,6.9571,7.0437,7.125,7.2042,7.3707,7.4726,7.476,7.5285,7.5691,7.5691,7.5334,7.5225,7.5225,7.5225,7.5225,7.5225,7.5225,7.5225,7.5225,7.5225,7.5225,7.5225,7.5225,7.5225,7.5225,7.5225,7.5653,7.6438,7.7187,7.7972,7.8757,7.9578,7.9899,7.9899,7.9899,7.9899,7.9899,7.9899,7.9899,7.9899,7.9899,7.9899,7.9899,7.9899,7.9743,7.955,7.9276,7.8952,7.8539,7.8322,7.7893,7.7544,7.7544,7.7402,7.7223,7.7223,7.7223,7.7223,7.7223,7.7223,7.7223,7.7223,7.7223,7.7223,7.7223,7.7223,7.7223,7.7223,7.7223,7.7223,7.7223,7.7223,7.7223,7.7223,7.7223,7.7223,7.7223,7.7223,7.7223,7.7223,7.7223,7.7223,7.7223,7.7223,7.7223,7.7223,7.7223,7.7223,7.7223,7.7223,7.7223,4.7165,5.1708,5.5874,6.0593,6.2227,6.3044,6.4493,6.4828,6.5051,6.5942,6.676,6.7503,6.8097,6.8357,6.8506,6.8506,6.8506,6.8506,6.8506,6.8506,6.8729,6.9323,7.014,7.1028,7.2169,7.3774,7.4978,7.5446,7.5923,7.6172,7.6172,7.5655,7.5406,7.5406,7.5406,7.5406,7.5406,7.5406,7.5334,7.5225,7.5225,7.5225,7.5225,7.5225,7.5225,7.5225,7.5225,7.5546,7.6152,7.7116,7.783,7.8472,7.9507,7.9899,7.9899,7.9899,7.9899,7.9899,7.9899,7.9899,7.9899,7.9899,7.9899,7.9899,7.9899,7.9899,7.9822,7.9471,7.9276,7.9115,7.8823,7.8406,7.8066,7.8066,7.7719,7.7313,7.7223,7.7223,7.7223,7.7223,7.7223,7.7223,7.7223,7.7223,7.7223,7.7223,7.7223,7.7223,7.7223,7.7223,7.7223,7.7223,7.7223,7.7223,7.7223,7.7223,7.7223,7.7223,7.7223,7.7223,7.7223,7.7223,7.7223,7.7223,7.7223,7.7223,7.7223,7.7223,7.7223,7.7223,7.7223,7.7223,4.6247,4.8899,5.1974,5.8438,6.0072,6.0927,6.4085,6.4828,6.5051,6.5942,6.676,6.7317,6.7354,6.7986,6.8506,6.8506,6.8506,6.8506,6.8506,6.8506,6.8543,6.858,6.9286,7.0053,7.0907,7.276,7.4212,7.5058,7.6042,7.6664,7.6664,7.6239,7.5934,7.5934,7.5934,7.5934,7.5934,7.5934,7.5655,7.5225,7.5225,7.5225,7.5225,7.5225,7.5225,7.5225,7.5225,7.5225,7.5403,7.6866,7.7508,7.7723,7.9293,7.9899,7.9899,7.9899,7.9899,7.9899,7.9899,7.9899,7.9899,7.9899,7.9899,7.9899,7.9899,7.9899,7.9899,7.9899,7.955,7.9196,7.9196,7.8906,7.8574,7.8574,7.8237,7.7719,7.7313,7.7223,7.7223,7.7223,7.7223,7.7223,7.7223,7.7223,7.7223,7.7223,7.7223,7.7223,7.7223,7.7223,7.7223,7.7223,7.7223,7.7223,7.7223,7.7223,7.7223,7.7223,7.7223,7.7223,7.7223,7.7223,7.7223,7.7223,7.7223,7.7223,7.7223,7.7223,7.7223,7.7223,7.7223,7.7223,4.4029,4.6715,4.9893,5.5391,5.7955,5.985,6.2636,6.3676,6.427,6.5088,6.6351,6.7317,6.7317,6.7986,6.8506,6.8506,6.8506,6.8506,6.8506,6.8506,6.8506,6.8506,6.9211,7.0252,7.1589,7.3289,7.4903,7.631,7.6884,7.7231,7.7231,7.6728,7.6403,7.6403,7.6403,7.6403,7.6403,7.6403,7.6336,7.6135,7.6135,7.6135,7.6135,7.5865,7.5726,7.5655,7.5334,7.5225,7.5332,7.6866,7.7508,7.7651,7.9293,7.9899,7.9899,7.9899,7.9899,7.9899,7.9899,7.9899,7.9899,7.9899,7.9899,7.9899,7.9899,7.9899,7.9899,7.9899,7.9822,7.9629,7.9629,7.9311,7.887,7.8322,7.798,7.7719,7.7313,7.7223,7.7223,7.7223,7.7223,7.7223,7.7223,7.7223,7.7223,7.7223,7.7223,7.7223,7.7223,7.7223,7.7223,7.7223,7.7223,7.7223,7.7223,7.7223,7.7223,7.7223,7.7223,7.7223,7.7223,7.7223,7.7223,7.7223,7.7223,7.7223,7.7223,7.7223,7.7223,7.7223,7.7223,7.7223,4.2575,4.4638,4.7218,5.2122,5.5243,5.7769,6.0518,6.2413,6.3825,6.4642,6.6128,6.7317,6.7317,6.7986,6.8506,6.8506,6.8506,6.8506,6.8506,6.8506,6.8506,6.8506,6.9211,7.0252,7.1626,7.3484,7.5156,7.653,7.7328,7.7747,7.7747,7.7231,7.6983,7.6983,7.6983,7.6983,7.6983,7.6983,7.692,7.6728,7.6728,7.6728,7.6728,7.6373,7.6239,7.6239,7.5829,7.5693,7.5688,7.6973,7.7651,7.8044,7.94,7.9899,7.9899,7.9899,7.9899,7.9899,7.9899,7.9899,7.9899,7.9899,7.9899,7.9899,7.9899,7.9899,7.9899,7.9899,7.9899,7.9899,7.9899,7.9629,7.9196,7.8539,7.8237,7.798,7.7579,7.7313,7.7223,7.7223,7.7223,7.7223,7.7223,7.7223,7.7223,7.7223,7.7223,7.7223,7.7223,7.7223,7.7223,7.7223,7.7223,7.7223,7.7223,7.7223,7.7223,7.7223,7.7223,7.7223,7.7223,7.7223,7.7223,7.7223,7.7223,7.7223,7.7223,7.7223,7.7223,7.7223,7.7223,7.7223,0.0,0.0,0.0,4.8779,5.1899,5.4611,5.7881,6.1187,6.3788,6.4568,6.6128,6.7317,6.728,6.7948,6.8506,6.8506,6.8506,6.8506,6.8543,6.8506,6.8506,6.8543,6.9249,7.0066,7.092,7.3187,7.497,7.5787,7.7347,7.8276,7.8276,7.7805,7.7533,7.7533,7.7533,7.7533,7.7533,7.7533,7.7231,7.6728,7.6728,7.6728,7.6728,7.6728,7.6728,7.6728,7.6728,7.6642,7.6548,7.7187,7.7972,7.8757,7.9578,7.9899,7.9899,7.9899,7.9899,7.9899,7.9899,7.9899,7.9899,7.9899,7.9899,7.9899,7.9899,7.9899,7.9899,7.9899,7.9899,7.9899,7.9899,7.9899,7.9822,7.9276,7.887,7.849,7.798,7.7579,7.7223,7.7223,7.7223,7.7223,7.7223,7.7223,7.7223,7.7223,7.7223,7.7223,7.7223,7.7223,7.7223,7.7223,7.7223,7.7223,7.7223,7.7223,7.7223,7.7223,7.7223,7.7223,7.7223,7.7223,7.7223,7.7223,7.7223,7.7223,7.7223,7.7223,7.7223,7.7223,7.7223,7.7223,4.0866,0.0,0.0,0.0,0.0,0.0,5.6209,5.9515,6.2116,6.2896,6.5348,6.7131,6.6537,6.7577,6.8506,6.8506,6.8506,6.8729,6.9286,6.8877,6.8729,6.9323,7.0103,7.1143,7.2555,7.4375,7.5824,7.6679,7.7682,7.8276,7.8276,7.8165,7.8071,7.8071,7.8071,7.8071,7.8071,7.8071,7.8014,7.7842,7.7842,7.7842,7.7842,7.745,7.7292,7.7231,7.6856,7.7298,7.8336,7.817,7.8311,7.8757,7.9578,7.9899,7.9899,7.9899,7.9899,7.9899,7.9899,7.9899,7.9899,7.9899,7.9899,7.9899,7.9899,7.9899,7.9899,7.9899,7.9899,7.9899,7.9899,7.9899,7.9822,7.9276,7.9115,7.8788,7.8066,7.7807,7.7667,7.7313,7.7223,7.7223,7.7223,7.7223,7.7223,7.7223,7.7223,7.7223,7.7223,7.7223,7.7223,7.7223,7.7223,7.7223,7.7223,7.7223,7.7223,7.7223,7.7223,7.7223,7.7223,7.7223,7.7223,7.7223,7.7223,7.7223,7.7223,7.7223,7.7223,7.7223,7.7223,7.7223,4.0308,4.1089,4.2314,4.4432,0.0,0.0,5.3571,5.7583,6.1001,6.2153,6.4753,6.6685,6.6202,6.6871,6.7725,6.8394,6.8246,6.8431,6.9546,6.9323,6.9323,7.0103,7.0958,7.1812,7.2778,7.4338,7.5639,7.6493,7.731,7.7942,7.8276,7.8276,7.8276,7.8276,7.8276,7.8276,7.8276,7.8276,7.8276,7.8276,7.8276,7.8276,7.8276,7.7957,7.7805,7.7842,7.7841,7.8479,7.9434,7.95,7.9465,7.9566,7.9798,7.9899,7.9899,7.9899,7.9899,7.9899,7.9899,7.9899,7.9899,7.9899,7.9899,7.9899,7.9899,7.9899,7.9899,7.9899,7.9899,7.9899,7.9899,7.9899,7.9822,7.955,7.9356,7.9034,7.8539,7.8151,7.7719,7.7313,7.7223,7.7223,7.7223,7.7223,7.7223,7.7223,7.7223,7.7223,7.7223,7.7223,7.7223,7.7223,7.7223,7.7223,7.7223,7.7223,7.7223,7.7223,7.7223,7.7223,7.7223,7.7223,7.7223,7.7223,7.7223,7.7223,7.7223,7.7223,7.7223,7.7223,7.7223,7.7223,4.016,4.0308,4.0754,4.2277,4.5064,0.0,5.0562,5.5243,5.9589,6.1224,6.3565,6.5274,6.5274,6.5496,6.6202,6.7725,6.7503,6.7725,6.936,6.9509,6.9732,7.0549,7.1403,7.1998,7.2295,7.3707,7.4933,7.5713,7.6604,7.7385,7.8128,7.8239,7.8276,7.8276,7.8276,7.8276,7.8276,7.8276,7.8276,7.8276,7.8276,7.8276,7.8276,7.8276,7.8276,7.8313,7.9131,7.9718,8.0076,8.0787,8.1014,8.0768,8.0171,7.9977,7.9977,7.9899,7.9899,7.9899,7.9899,7.9899,7.9899,7.9899,7.9899,7.9899,7.9899,7.9899,7.9899,7.9899,7.9899,7.9899,7.9899,7.9899,7.9899,7.9899,7.955,7.9276,7.9196,7.8539,7.7807,7.7313,7.7223,7.7223,7.7223,7.7223,7.7223,7.7223,7.7223,7.7223,7.7223,7.7223,7.7223,7.7223,7.7223,7.7223,7.7223,7.7223,7.7223,7.7223,7.7223,7.7223,7.7223,7.7223,7.7223,7.7223,7.7223,7.7223,7.7223,7.7223,7.7223,7.7223,7.7223,7.7223,4.0234,3.9863,4.0606,4.1571,4.3801,0.0,4.8816,5.1788,5.45,5.6134,5.8438,6.0147,6.0147,6.1781,6.3453,6.4419,6.5534,6.6834,6.8506,6.8208,6.8097,6.8877,6.9694,7.0958,7.2964,7.4041,7.4933,7.5713,7.6604,7.7162,7.731,7.7942,7.8276,7.8276,7.8276,7.8276,7.8276,7.8276,7.8276,7.8276,7.8276,7.8276,7.8276,7.8276,7.8276,7.8313,7.9131,7.9891,8.0555,8.0911,8.1212,8.1299,8.0768,8.0548,8.051,8.0018,7.9899,7.9899,7.9899,7.9899,7.9899,7.9899,7.9899,7.9899,7.9899,7.9899,7.9899,7.9899,7.9899,7.9899,7.9899,7.9899,7.9899,7.9899,7.9822,7.955,7.8906,7.8574,7.8237,7.7402,7.7223,7.7223,7.7223,7.7223,7.7223,7.7223,7.7223,7.7223,7.7223,7.7223,7.7223,7.7223,7.7223,7.7223,7.7223,7.7223,7.7223,7.7223,7.7223,7.7223,7.7223,7.7223,7.7223,7.7223,7.7223,7.7223,7.7223,7.7223,7.7223,7.7223,7.7223,7.7223,4.224,4.0977,4.0568,4.1386,4.2537,0.0,0.0,4.9299,5.1342,5.3385,5.5429,5.684,5.684,5.8549,6.0221,6.1038,6.2896,6.4233,6.4233,6.6685,6.8803,6.962,7.0066,7.0809,7.2035,7.2518,7.3261,7.4487,7.575,7.6456,7.6456,7.7236,7.7682,7.7682,7.809,7.8276,7.8276,7.8276,7.8276,7.8276,7.8276,7.8276,7.8276,7.8276,7.8499,7.8945,7.9725,8.058,8.1397,8.1941,8.2253,8.227,8.1437,8.1089,8.1018,8.051,8.0286,8.0247,7.9977,7.9899,7.9899,7.9899,7.9899,7.9899,7.9899,7.9899,7.9899,7.9899,7.9899,7.9899,7.9899,7.9899,7.9899,7.9899,7.9899,7.9743,7.9347,7.9069,7.8788,7.8287,7.7893,7.7456,7.7223,7.7223,7.7223,7.7223,7.7223,7.7223,7.7223,7.7223,7.7223,7.7223,7.7223,7.7223,7.7223,7.7223,7.7223,7.7223,7.7223,7.7223,7.7223,7.7223,7.7223,7.7223,7.7223,7.7223,7.7223,7.7223,7.743,7.781,7.781,7.8017,4.4687,4.2723,4.1237,4.1906,4.2203,4.302,0.0,0.0,0.0,5.0785,5.2234,5.3237,5.3534,5.4946,5.6283,5.6952,5.9404,6.0593,5.8772,6.3899,0.0,6.8951,6.9472,6.9917,7.04,7.1292,7.2221,7.3075,7.4933,7.5899,7.5564,7.653,7.7087,7.7087,7.7868,7.8276,7.8276,7.8276,7.8276,7.8276,7.8276,7.8276,7.8276,7.8276,7.8722,7.9539,8.0357,8.1174,8.2066,8.2846,8.318,8.3121,8.2076,8.1641,8.161,8.1055,8.0768,8.0622,8.0247,7.9977,7.9899,7.9899,7.9899,7.9899,7.9899,7.9899,7.9899,7.9899,7.9899,7.9899,7.9899,7.9899,7.9899,7.9899,7.9899,7.9899,7.9822,7.9471,7.9196,7.8952,7.8371,7.7807,7.7402,7.7223,7.7223,7.7223,7.7223,7.7223,7.7223,7.7223,7.7223,7.7223,7.7223,7.7223,7.7223,7.7223,7.7223,7.7223,7.7223,7.7223,7.7223,7.7223,7.7223,7.7223,7.7223,7.7223,7.7223,7.7223,7.7637,7.8396,7.8396,7.881,4.6238,4.4395,4.3615,4.3689,4.4321,4.4989,4.5361,0.0,4.5769,4.6067,0.0,4.6847,4.8259,0.0,0.0,5.1156,5.4426,5.6172,5.3757,5.7806,6.1336,6.219,6.4196,6.6388,6.858,7.2704,7.445,7.2481,7.5193,7.627,7.4821,7.6233,7.7087,7.7087,7.7868,7.8276,7.8276,7.8276,7.8276,7.8276,7.8276,7.8276,7.8276,7.8276,7.8722,7.9539,8.0357,8.1174,8.2066,8.2846,8.318,8.3121,8.2534,8.2343,8.2242,8.1678,8.1089,8.0695,8.0622,8.0286,7.9899,7.9899,7.9899,7.9899,7.9899,7.9899,7.9899,7.9899,7.9899,7.9899,7.9899,7.9899,7.9899,7.9899,7.9899,7.9822,7.9356,7.9276,7.8952,7.8237,7.798,7.7893,7.7807,7.749,7.7223,7.7223,7.7223,7.7223,7.7223,7.7223,7.7223,7.7223,7.7223,7.7223,7.7223,7.7223,7.7223,7.7223,7.7223,7.7223,7.7223,7.7223,7.7223,7.7223,7.7223,7.7223,7.7223,7.7223,7.7637,7.8396,7.8396,7.881,5.1599,5.0138,4.8846,4.669,4.6962,4.7311,4.5648,4.4544,4.3986,4.4432,0.0,0.0,0.0,0.0,0.0,0.0,4.9968,5.1491,0.0,0.0,5.6692,5.9441,0.0,0.0,6.6834,7.0252,7.1849,7.0846,7.3335,7.4227,7.2555,7.4933,7.6344,7.6344,7.7162,7.783,7.8276,7.783,7.783,7.8276,7.8276,7.8276,7.8313,7.8759,7.9428,8.0245,8.11,8.1917,8.2697,8.3032,8.318,8.318,8.2941,8.2843,8.2782,8.2242,8.1879,8.161,8.1336,8.1055,8.0768,8.0436,8.0171,7.9899,7.9899,7.9899,7.9899,7.9899,7.9899,7.9899,7.9899,7.9899,7.9899,7.9899,7.9899,7.9822,7.9629,7.9629,7.9391,7.8788,7.849,7.8237,7.798,7.749,7.7223,7.7223,7.7223,7.7223,7.7223,7.7223,7.7223,7.7223,7.7223,7.7223,7.7223,7.7223,7.7223,7.7223,7.7223,7.7223,7.7223,7.7223,7.7223,7.7223,7.7223,7.7223,7.7223,7.7223,7.7637,7.8396,7.8396,7.9017,5.6964,5.5498,5.3644,5.1174,5.0642,5.0108,4.7839,4.5844,4.4432,4.4358,4.354,0.0,0.0,0.0,0.0,0.0,0.0,4.7107,0.0,4.8519,0.0,0.0,0.0,0.0,0.0,6.7837,6.9769,6.91,7.1738,7.2666,7.0995,7.3595,7.5341,7.5787,7.6865,7.7682,7.8276,7.7719,7.7608,7.7942,7.8165,7.8165,7.7979,7.9019,7.9948,8.0728,8.162,8.2437,8.318,8.318,8.318,8.318,8.318,8.318,8.3121,8.2721,8.2534,8.2343,8.1879,8.1641,8.1437,8.1018,8.0584,8.0095,8.0095,8.0095,8.0095,7.9899,7.9977,8.0095,7.9899,7.9899,7.9899,7.9899,7.9899,7.9899,7.9899,7.9899,7.9743,7.9276,7.8906,7.8406,7.798,7.749,7.7223,7.7223,7.7223,7.7223,7.7223,7.7223,7.7223,7.7223,7.7223,7.7223,7.7223,7.7223,7.7223,7.7223,7.7223,7.7223,7.7223,7.7223,7.7223,7.7223,7.7223,7.7223,7.7223,7.7223,7.7534,7.8085,7.8292,7.9086,6.1103,5.8976,5.705,5.7629,5.5696,5.3423,5.2568,5.0488,4.8036,4.5732,0.0,0.0,0.0,0.0,0.0,0.0,0.0,0.0,0.0,0.0,0.0,0.0,0.0,0.0,0.0,6.6648,6.9917,0.0,7.1106,7.2666,7.0995,7.2555,7.419,7.575,7.7385,7.8239,7.8276,7.8239,7.7868,7.7125,7.7905,7.7868,7.7162,7.8759,7.9948,8.0728,8.162,8.2437,8.318,8.318,8.318,8.318,8.318,8.318,8.318,8.318,8.288,8.2407,8.2407,8.1945,8.1506,8.1506,8.1089,8.0695,8.0695,8.0695,8.0548,8.0054,8.0286,8.0548,8.0018,7.9899,7.9899,7.9899,7.9899,7.9899,7.9899,7.9899,7.9743,7.9276,7.8906,7.8406,7.798,7.749,7.7223,7.7223,7.7223,7.7223,7.7223,7.7223,7.7223,7.7223,7.7223,7.7223,7.7223,7.7223,7.7223,7.7223,7.7223,7.7223,7.7223,7.7223,7.7223,7.7223,7.7223,7.7223,7.7223,7.7223,7.7223,7.7292,7.8051,7.881,6.3802,6.3574,6.2955,6.0703,6.0236,5.9499,5.6138,5.2451,4.967,0.0,0.0,0.0,0.0,0.0,0.0,0.0,0.0,0.0,0.0,0.0,0.0,0.0,0.0,0.0,0.0,0.0,0.0,0.0,6.8468,0.0,6.936,7.1923,7.4115,7.575,7.6902,7.7756,7.8276,7.7756,7.7347,7.7087,7.7905,7.7868,7.7162,7.9316,8.0431,8.0765,8.2177,8.2957,8.318,8.318,8.318,8.318,8.318,8.318,8.318,8.318,8.3061,8.2941,8.2941,8.2597,8.2113,8.2113,8.1678,8.123,8.123,8.123,8.116,8.1055,8.084,8.0695,8.051,8.0171,7.9899,7.9899,7.9899,7.9899,7.9899,7.9899,7.9743,7.9276,7.9115,7.8788,7.8066,7.7719,7.7579,7.7223,7.7223,7.7223,7.7223,7.7223,7.7223,7.7223,7.7223,7.7223,7.7223,7.7223,7.7223,7.7223,7.7223,7.7223,7.7223,7.7223,7.7223,7.7223,7.7223,7.7223,7.7223,7.7223,7.7223,7.7223,7.7499,7.8051,6.6797,6.7016,6.671,6.4229,6.3886,6.346,6.077,5.7024,5.4259,0.0,0.0,0.0,0.0,0.0,0.0,0.0,0.0,0.0,0.0,4.0828,0.0,0.0,0.0,0.0,0.0,0.0,0.0,0.0,0.0,0.0,0.0,7.0772,7.3075,7.5304,7.6493,7.7459,7.8276,7.7496,7.6939,7.6642,7.7162,7.6976,7.627,7.9019,8.0245,8.0357,8.2326,8.318,8.318,8.318,8.318,8.318,8.318,8.318,8.318,8.318,8.318,8.318,8.318,8.3001,8.2659,8.2659,8.2307,8.1812,8.1812,8.1812,8.1812,8.1574,8.1368,8.1266,8.1018,8.0584,8.0171,8.0171,8.0054,7.9977,8.0171,8.0018,7.9899,7.975,7.94,7.9034,7.8455,7.8237,7.7893,7.7313,7.7223,7.7223,7.7223,7.7223,7.7223,7.7223,7.7223,7.7223,7.7223,7.7223,7.7223,7.7223,7.7223,7.7223,7.7223,7.7223,7.7223,7.7223,7.7223,7.7223,7.7223,7.7223,7.7223,7.7223,7.7223,7.7499]},{"header":{"parameterUnit":"m.s-1","parameterCategory":1,"la1":30.6,"la2":29.2853,"lo1":-89.7004,"lo2":-87.6739,"dx":0.0162,"dy":0.0183,"nx":112,"ny":82,"refTime":"2022-12-13T06:00:00:Z","depth":0,"parameterNumber":3,"parameterNumberName":"V-component_of_WINDS"},"data":[0.0,0.0,0.0,0.0,0.0,0.0,0.0,0.0,0.0,0.0,0.0,0.0,0.0,0.0,0.0,0.0,0.0,0.0,0.0,0.0,0.0,0.0,0.0,0.0,0.0,0.0,0.0,0.0,0.0,0.0,0.0,0.0,0.0,0.0,0.0,0.0,0.0,0.0,0.0,0.0,0.0,0.0,0.0,0.0,0.0,0.0,0.0,0.0,0.0,0.0,0.0,0.0,0.0,0.0,0.0,0.0,0.0,0.0,0.0,0.0,0.0,0.0,0.0,0.0,0.0,0.0,0.0,0.0,0.0,0.0,0.0,0.0,0.0,0.0,0.0,0.0,0.0,0.0,0.0,0.0,0.0,0.0,0.0,0.0,0.0,0.0,0.0,0.0,0.0,0.0,-2.6874,-2.6572,-2.6172,-2.5558,-2.4533,-2.4049,-2.3011,-2.1138,0.0,0.0,0.0,0.0,0.0,0.0,0.0,0.0,0.0,0.0,0.0,0.0,0.0,0.0,0.0,0.0,0.0,0.0,0.0,0.0,0.0,0.0,0.0,0.0,0.0,0.0,0.0,0.0,0.0,0.0,0.0,0.0,0.0,0.0,0.0,0.0,0.0,0.0,0.0,0.0,0.0,0.0,0.0,0.0,0.0,0.0,0.0,0.0,0.0,0.0,0.0,0.0,0.0,0.0,0.0,0.0,0.0,0.0,0.0,0.0,0.0,0.0,0.0,0.0,0.0,0.0,0.0,0.0,0.0,0.0,0.0,0.0,0.0,0.0,0.0,0.0,0.0,0.0,0.0,0.0,0.0,0.0,0.0,0.0,0.0,0.0,0.0,0.0,0.0,0.0,0.0,0.0,0.0,0.0,0.0,0.0,0.0,0.0,0.0,0.0,0.0,0.0,0.0,0.0,-2.7242,-2.8052,-2.7162,-2.6095,-2.5066,-2.53,-2.414,-2.0858,0.0,0.0,0.0,0.0,0.0,0.0,0.0,0.0,0.0,0.0,0.0,0.0,0.0,0.0,0.0,0.0,0.0,0.0,0.0,0.0,0.0,0.0,0.0,0.0,0.0,0.0,0.0,0.0,0.0,0.0,0.0,0.0,0.0,0.0,0.0,0.0,0.0,0.0,0.0,0.0,0.0,0.0,0.0,0.0,0.0,0.0,0.0,0.0,0.0,0.0,0.0,0.0,0.0,0.0,0.0,0.0,0.0,0.0,0.0,0.0,0.0,0.0,0.0,0.0,0.0,0.0,0.0,0.0,0.0,0.0,0.0,0.0,0.0,0.0,0.0,0.0,0.0,0.0,0.0,0.0,0.0,0.0,0.0,0.0,0.0,0.0,0.0,0.0,0.0,0.0,0.0,0.0,0.0,0.0,0.0,0.0,0.0,0.0,0.0,0.0,0.0,0.0,0.0,-2.5262,-2.6705,-2.6993,-2.637,-2.5599,-2.4983,-2.4648,-2.3281,-2.0566,-1.9597,0.0,0.0,0.0,0.0,0.0,0.0,0.0,0.0,0.0,0.0,0.0,0.0,0.0,0.0,0.0,0.0,0.0,0.0,0.0,0.0,0.0,0.0,0.0,0.0,0.0,0.0,0.0,0.0,0.0,0.0,0.0,0.0,0.0,0.0,0.0,0.0,0.0,0.0,0.0,0.0,0.0,0.0,0.0,0.0,0.0,0.0,0.0,0.0,0.0,0.0,0.0,0.0,0.0,0.0,0.0,0.0,0.0,0.0,0.0,0.0,0.0,0.0,0.0,0.0,0.0,0.0,0.0,0.0,0.0,0.0,0.0,0.0,0.0,0.0,0.0,0.0,0.0,0.0,0.0,0.0,0.0,0.0,0.0,0.0,0.0,0.0,0.0,0.0,0.0,0.0,0.0,0.0,0.0,0.0,0.0,0.0,0.0,0.0,0.0,0.0,0.0,0.0,-2.5636,-2.6165,-2.6408,-2.5896,-2.535,-2.4909,-2.3937,-2.256,-2.0464,-1.9298,0.0,0.0,0.0,0.0,0.0,0.0,0.0,0.0,0.0,0.0,0.0,0.0,0.0,0.0,0.0,0.0,0.0,0.0,0.0,0.0,0.0,0.0,0.0,0.0,0.0,0.0,0.0,0.0,0.0,0.0,0.0,0.0,0.0,0.0,0.0,0.0,0.0,0.0,0.0,0.0,0.0,0.0,0.0,0.0,0.0,0.0,0.0,0.0,0.0,0.0,0.0,0.0,0.0,0.0,0.0,0.0,0.0,0.0,0.0,0.0,0.0,0.0,0.0,0.0,0.0,0.0,0.0,0.0,0.0,0.0,0.0,0.0,0.0,0.0,0.0,0.0,0.0,0.0,0.0,0.0,0.0,0.0,0.0,0.0,0.0,0.0,0.0,0.0,0.0,0.0,0.0,0.0,0.0,0.0,0.0,0.0,0.0,0.0,0.0,0.0,0.0,0.0,-2.5523,-2.6153,-2.8248,-2.7026,-2.5926,-2.549,-2.4354,-2.2872,-2.0905,-1.9621,0.0,0.0,0.0,0.0,0.0,0.0,0.0,0.0,0.0,0.0,0.0,0.0,0.0,0.0,0.0,0.0,0.0,0.0,0.0,0.0,0.0,0.0,0.0,0.0,0.0,0.0,0.0,0.0,0.0,0.0,0.0,0.0,0.0,0.0,0.0,0.0,0.0,0.0,0.0,0.0,0.0,0.0,0.0,0.0,0.0,0.0,0.0,0.0,0.0,0.0,0.0,0.0,0.0,0.0,0.0,0.0,0.0,0.0,0.0,0.0,0.0,0.0,0.0,0.0,0.0,0.0,0.0,0.0,0.0,0.0,0.0,0.0,0.0,0.0,0.0,0.0,0.0,0.0,0.0,0.0,0.0,0.0,0.0,0.0,0.0,0.0,0.0,0.0,0.0,0.0,0.0,0.0,0.0,0.0,0.0,0.0,0.0,0.0,0.0,0.0,0.0,0.0,-2.5214,-2.6191,-2.7565,-2.6833,-2.6012,-2.5657,-2.4641,-2.3186,-2.1116,0.0,0.0,0.0,0.0,0.0,0.0,0.0,0.0,0.0,0.0,0.0,0.0,0.0,0.0,0.0,0.0,0.0,0.0,0.0,0.0,0.0,0.0,0.0,0.0,0.0,0.0,0.0,0.0,0.0,0.0,0.0,0.0,0.0,0.0,0.0,0.0,0.0,0.0,0.0,0.0,0.0,0.0,0.0,0.0,0.0,0.0,0.0,0.0,0.0,0.0,0.0,0.0,0.0,0.0,0.0,0.0,0.0,0.0,0.0,0.0,0.0,0.0,0.0,0.0,0.0,0.0,0.0,0.0,0.0,0.0,0.0,0.0,0.0,0.0,0.0,0.0,0.0,0.0,0.0,0.0,0.0,0.0,0.0,0.0,0.0,0.0,0.0,0.0,0.0,0.0,0.0,0.0,0.0,0.0,0.0,0.0,0.0,0.0,0.0,0.0,0.0,0.0,-2.3432,-2.4877,-2.619,-2.7275,-2.6729,-2.6218,-2.5878,-2.4804,-2.337,-2.1296,0.0,0.0,0.0,0.0,0.0,0.0,0.0,0.0,0.0,0.0,0.0,0.0,0.0,0.0,0.0,0.0,0.0,0.0,0.0,0.0,0.0,0.0,0.0,0.0,0.0,0.0,0.0,0.0,0.0,0.0,0.0,0.0,0.0,0.0,0.0,0.0,0.0,0.0,0.0,0.0,0.0,0.0,0.0,0.0,0.0,0.0,0.0,0.0,0.0,0.0,0.0,0.0,0.0,0.0,0.0,0.0,0.0,0.0,0.0,0.0,0.0,0.0,0.0,0.0,0.0,0.0,0.0,0.0,0.0,0.0,0.0,0.0,0.0,0.0,0.0,0.0,0.0,0.0,0.0,0.0,0.0,0.0,0.0,0.0,0.0,0.0,0.0,0.0,0.0,0.0,0.0,0.0,0.0,0.0,0.0,0.0,0.0,0.0,0.0,0.0,0.0,0.0,-2.295,-2.4541,-2.6262,-2.7511,-2.7049,-2.6426,-2.6004,-2.4867,-2.3404,0.0,0.0,0.0,0.0,0.0,0.0,0.0,0.0,0.0,0.0,0.0,0.0,0.0,0.0,0.0,0.0,0.0,0.0,0.0,0.0,0.0,0.0,0.0,0.0,0.0,0.0,0.0,0.0,0.0,0.0,0.0,0.0,0.0,0.0,0.0,0.0,0.0,0.0,0.0,0.0,0.0,0.0,0.0,0.0,0.0,0.0,0.0,0.0,0.0,0.0,0.0,0.0,0.0,0.0,0.0,0.0,0.0,0.0,0.0,0.0,0.0,0.0,0.0,0.0,0.0,0.0,0.0,0.0,0.0,0.0,0.0,0.0,0.0,0.0,0.0,0.0,0.0,0.0,0.0,0.0,0.0,0.0,0.0,0.0,0.0,0.0,0.0,0.0,0.0,0.0,0.0,0.0,0.0,0.0,0.0,0.0,0.0,0.0,0.0,0.0,0.0,0.0,0.0,-2.324,-2.4735,-2.6374,-2.7884,-2.7586,-2.7179,-2.683,-2.6243,-2.5098,-2.3242,0.0,0.0,0.0,0.0,0.0,0.0,0.0,0.0,0.0,0.0,0.0,0.0,0.0,0.0,0.0,0.0,0.0,0.0,0.0,0.0,0.0,0.0,0.0,0.0,0.0,0.0,0.0,0.0,0.0,0.0,0.0,0.0,0.0,0.0,0.0,0.0,0.0,0.0,0.0,0.0,0.0,0.0,0.0,0.0,0.0,0.0,0.0,0.0,0.0,0.0,0.0,0.0,0.0,0.0,0.0,0.0,0.0,0.0,0.0,0.0,0.0,0.0,0.0,0.0,0.0,0.0,0.0,0.0,0.0,0.0,0.0,0.0,0.0,0.0,0.0,0.0,0.0,0.0,0.0,0.0,0.0,0.0,0.0,0.0,0.0,0.0,0.0,0.0,0.0,0.0,0.0,0.0,0.0,0.0,0.0,0.0,0.0,0.0,0.0,0.0,0.0,0.0,-2.3306,-2.4932,-2.6569,-2.7863,-2.7789,-2.7641,-2.7416,-2.6903,-2.5964,-2.435,0.0,0.0,0.0,0.0,0.0,0.0,0.0,0.0,0.0,0.0,0.0,0.0,0.0,0.0,0.0,0.0,0.0,0.0,0.0,0.0,0.0,0.0,0.0,0.0,0.0,0.0,0.0,0.0,0.0,0.0,0.0,0.0,0.0,0.0,0.0,0.0,0.0,0.0,0.0,0.0,0.0,0.0,0.0,0.0,0.0,0.0,0.0,0.0,0.0,0.0,0.0,0.0,0.0,0.0,0.0,0.0,0.0,0.0,0.0,0.0,0.0,0.0,0.0,0.0,0.0,0.0,0.0,0.0,0.0,0.0,0.0,0.0,0.0,0.0,0.0,0.0,0.0,0.0,0.0,0.0,0.0,0.0,0.0,0.0,0.0,0.0,0.0,0.0,0.0,0.0,0.0,0.0,0.0,0.0,0.0,0.0,0.0,0.0,0.0,0.0,0.0,0.0,-2.3261,-2.5172,-2.6885,-2.7673,-2.7801,-2.782,-2.782,-2.7141,-2.6206,-2.5069,0.0,0.0,0.0,0.0,0.0,0.0,0.0,0.0,0.0,0.0,0.0,0.0,0.0,0.0,0.0,0.0,0.0,0.0,0.0,0.0,0.0,0.0,0.0,0.0,0.0,0.0,0.0,0.0,0.0,0.0,0.0,0.0,0.0,0.0,0.0,0.0,0.0,0.0,0.0,0.0,0.0,0.0,0.0,0.0,0.0,0.0,0.0,0.0,0.0,0.0,0.0,0.0,0.0,0.0,0.0,0.0,0.0,0.0,0.0,0.0,-1.7483,-1.6867,0.0,0.0,0.0,0.0,0.0,0.0,0.0,0.0,0.0,0.0,0.0,0.0,0.0,0.0,0.0,0.0,0.0,0.0,0.0,0.0,0.0,0.0,0.0,0.0,0.0,0.0,0.0,0.0,0.0,0.0,0.0,0.0,0.0,0.0,0.0,0.0,0.0,0.0,0.0,0.0,-2.3073,-2.5087,-2.6885,-2.7673,-2.8058,-2.826,-2.826,-2.7801,-2.727,-2.6701,-2.5601,0.0,0.0,0.0,0.0,0.0,0.0,0.0,0.0,0.0,0.0,0.0,0.0,0.0,0.0,0.0,0.0,0.0,0.0,0.0,0.0,0.0,0.0,0.0,0.0,0.0,0.0,0.0,0.0,0.0,0.0,0.0,0.0,0.0,0.0,0.0,0.0,0.0,0.0,0.0,0.0,0.0,0.0,0.0,0.0,0.0,0.0,0.0,0.0,0.0,0.0,0.0,0.0,0.0,0.0,0.0,0.0,0.0,0.0,0.0,-1.783,-1.7579,0.0,0.0,0.0,0.0,0.0,0.0,0.0,0.0,0.0,0.0,0.0,0.0,0.0,0.0,0.0,0.0,0.0,0.0,0.0,0.0,0.0,0.0,0.0,0.0,0.0,0.0,0.0,0.0,0.0,0.0,0.0,0.0,0.0,0.0,0.0,0.0,0.0,0.0,0.0,0.0,-2.4409,-2.6188,-2.7618,-2.8022,-2.8443,-2.8682,-2.8682,-2.8297,-2.7985,-2.7783,-2.6811,0.0,0.0,0.0,0.0,0.0,0.0,0.0,0.0,0.0,0.0,0.0,0.0,0.0,0.0,0.0,0.0,0.0,0.0,0.0,0.0,0.0,0.0,0.0,0.0,0.0,0.0,0.0,0.0,0.0,0.0,0.0,0.0,0.0,0.0,0.0,0.0,0.0,0.0,0.0,0.0,0.0,0.0,0.0,0.0,0.0,0.0,0.0,0.0,0.0,0.0,0.0,0.0,0.0,-1.8464,-1.8641,-1.8399,-1.8919,-1.8905,-1.8437,-1.8252,-1.8178,-1.8412,-1.7911,0.0,0.0,0.0,0.0,0.0,0.0,0.0,0.0,0.0,0.0,0.0,0.0,0.0,0.0,0.0,0.0,0.0,0.0,0.0,0.0,0.0,0.0,-2.2868,-2.2942,-2.3474,-2.362,-2.2337,0.0,0.0,0.0,0.0,0.0,0.0,0.0,0.0,0.0,0.0,0.0,-2.6059,-2.749,-2.8462,-2.8407,-2.8755,-2.8975,-2.8975,-2.8627,-2.8425,-2.8498,-2.7801,-2.7215,0.0,0.0,0.0,0.0,0.0,0.0,0.0,0.0,0.0,0.0,0.0,0.0,0.0,0.0,0.0,0.0,0.0,0.0,0.0,0.0,0.0,0.0,0.0,0.0,0.0,0.0,0.0,0.0,0.0,0.0,0.0,0.0,-1.5017,-1.5405,0.0,0.0,0.0,0.0,0.0,0.0,0.0,0.0,0.0,0.0,0.0,0.0,0.0,-1.8649,-1.8567,-1.806,-1.8382,-1.9182,-1.8749,-1.8496,-1.8469,-1.8809,-1.8836,-1.8523,-1.8469,0.0,-1.8003,-1.7647,0.0,0.0,0.0,0.0,0.0,0.0,0.0,0.0,0.0,0.0,0.0,0.0,0.0,0.0,0.0,0.0,0.0,0.0,0.0,0.0,0.0,0.0,-2.5051,-2.5399,-2.5564,-2.5693,-2.5839,-2.3877,-2.2171,-2.2428,-2.261,-2.2923,0.0,0.0,0.0,0.0,0.0,0.0,-2.6628,-2.7911,-2.8773,-2.8425,-2.8755,-2.8975,-2.8975,-2.8627,-2.8535,-2.8883,-2.848,-2.804,-2.7618,-2.6903,0.0,0.0,0.0,0.0,0.0,0.0,0.0,0.0,0.0,0.0,0.0,0.0,0.0,0.0,0.0,0.0,0.0,0.0,0.0,0.0,0.0,0.0,0.0,0.0,0.0,0.0,0.0,0.0,0.0,-1.5364,-1.6154,-1.6503,-1.6795,-1.7113,0.0,0.0,0.0,0.0,0.0,0.0,0.0,0.0,0.0,-1.7601,-1.8449,-1.8934,-1.8893,-1.8624,-1.8768,-1.9444,-1.9307,-1.9225,-1.9239,-1.9533,-1.9586,-1.9466,-1.9292,-1.9145,-1.9015,-1.8537,-1.884,-1.9481,0.0,0.0,0.0,0.0,-2.114,-2.2171,-2.2263,-2.2685,-2.3052,-2.3345,0.0,0.0,0.0,0.0,0.0,0.0,0.0,-2.4335,-2.4776,-2.5472,-2.6206,-2.683,-2.6976,-2.7031,-2.7215,-2.6261,-2.5179,-2.4445,-2.4445,-2.4721,-2.5179,-2.5839,0.0,0.0,0.0,-2.8535,-2.8003,-2.8553,-2.9012,-2.9048,-2.9214,-2.9415,-2.9654,-2.9287,-2.9122,-2.9305,-2.8938,-2.8737,-2.8773,-2.7801,-2.6811,0.0,0.0,0.0,0.0,0.0,0.0,0.0,0.0,0.0,0.0,0.0,0.0,0.0,0.0,0.0,0.0,0.0,0.0,0.0,0.0,0.0,0.0,0.0,0.0,0.0,0.0,0.0,0.0,-1.5779,-1.644,-1.7049,-1.7407,-1.7823,0.0,0.0,0.0,0.0,0.0,0.0,-1.7508,-1.8236,-1.8513,-1.8161,-1.9027,-1.9372,-1.9145,-1.9145,-1.9292,-1.9586,-1.9813,-1.9907,-1.992,-2.0214,-2.0307,-2.0227,-2.008,-1.9987,-1.9813,-1.9403,-1.9744,-2.0357,-2.0181,-2.1219,-2.2622,-2.1495,-2.1807,-2.2892,-2.3085,-2.3551,-2.4176,-2.4697,-2.5118,-2.5161,-2.4739,0.0,0.0,0.0,0.0,-2.5527,-2.6114,-2.6573,-2.7068,-2.7765,-2.793,-2.7948,-2.8058,-2.8003,-2.7545,-2.6243,-2.6078,-2.6298,-2.6811,-2.7141,0.0,-2.8682,-2.9085,-2.9214,-2.9012,-2.9159,-2.936,-2.9544,-2.9672,-2.9855,-3.0167,-2.991,-2.9727,-2.9727,-2.9452,-2.9379,-2.9562,-2.881,-2.8058,-2.7343,0.0,0.0,0.0,0.0,0.0,0.0,0.0,0.0,0.0,0.0,0.0,0.0,0.0,0.0,0.0,0.0,0.0,0.0,0.0,0.0,0.0,0.0,0.0,0.0,0.0,0.0,0.0,0.0,0.0,-1.6545,-1.6922,0.0,0.0,0.0,0.0,-1.8226,-1.7439,-1.739,-1.8182,-1.9138,-1.9362,-1.891,-2.0217,-2.0543,-1.976,-1.976,-1.9907,-2.0187,-2.0201,-2.0214,-2.0227,-2.0521,-2.0494,-2.0254,-2.0521,-2.0468,-2.0187,-1.9826,-2.1018,-2.267,-2.1269,-2.2069,-2.382,-2.2894,-2.256,-2.2783,-2.3447,-2.4614,-2.5634,-2.5326,-2.5781,-2.6426,-2.5986,-2.6133,0.0,0.0,-2.6444,-2.7068,-2.7105,-2.7416,-2.782,-2.826,-2.837,-2.8462,-2.8847,-2.8627,-2.8223,-2.7746,-2.7967,-2.8132,-2.7765,0.0,-2.9195,-2.8517,-2.9397,-2.9855,-2.9085,-2.9654,-3.0002,-2.9617,-2.9929,-3.0185,-3.0204,-3.0185,-3.0167,-3.0167,-3.0149,-2.9965,-2.958,-2.9892,-2.9342,-2.7765,-2.8077,0.0,0.0,0.0,0.0,0.0,0.0,0.0,0.0,0.0,0.0,0.0,0.0,0.0,0.0,0.0,0.0,0.0,0.0,0.0,0.0,0.0,0.0,0.0,0.0,0.0,0.0,0.0,0.0,-1.719,-1.7552,0.0,-1.8629,-1.8584,-1.8513,-1.8428,-1.8337,-1.8468,-1.8988,-1.9511,-1.9713,-1.9479,-2.0115,-2.0414,-2.0361,-2.0361,-2.0508,-2.0802,-2.0802,-2.0802,-2.0802,-2.0909,-2.0895,-2.0802,-2.0909,-2.0895,-2.0788,-2.0681,-2.0835,-2.1199,-2.0621,-2.1478,-2.3068,-2.2391,-2.3419,-2.5011,-2.5044,-2.6007,-2.7079,-2.7204,-2.7513,-2.7765,-2.7875,-2.7838,-2.7728,-2.7563,-2.7911,-2.8278,-2.8022,-2.8443,-2.8957,-2.9122,-2.936,-2.9599,-2.9727,-2.9654,-2.9507,-2.936,-2.8828,-2.859,-2.9232,-2.969,-3.0057,-3.0277,-3.0461,-3.0479,-3.0185,-3.0167,-3.0241,-3.0351,-3.0497,-3.0681,-3.0937,-3.0717,-3.0589,-3.0589,-3.0332,-3.0241,-3.0351,-3.0002,-2.9764,-2.9709,-2.9342,-2.8553,0.0,0.0,0.0,0.0,0.0,0.0,0.0,0.0,0.0,0.0,0.0,0.0,0.0,0.0,0.0,0.0,0.0,0.0,0.0,0.0,0.0,0.0,0.0,0.0,0.0,-1.5956,-1.6781,-1.7612,-1.7964,-1.8457,-1.909,-1.916,-1.9057,-1.8891,-1.9105,-1.9345,-1.9639,-1.9933,-2.0094,-2.0094,-2.0374,-2.0628,-2.0815,-2.0815,-2.0922,-2.1109,-2.1109,-2.1109,-2.1109,-2.1109,-2.1162,-2.1256,-2.1256,-2.1309,-2.1403,-2.1403,-2.1176,-2.0802,-2.0601,-2.1491,-2.2725,-2.1911,-2.2929,-2.4658,-2.5271,-2.615,-2.7041,-2.841,-2.8792,-2.8865,-2.9269,-2.9214,-2.9012,-2.9012,-2.9195,-2.9324,-2.9067,-2.9397,-2.9782,-2.9782,-3.0002,-3.0204,-3.0204,-3.0204,-3.0204,-3.0204,-2.9544,-2.9214,-2.9874,-2.9984,-3.0222,-3.0882,-3.0516,-3.0277,-3.0552,-3.0369,-3.0296,-3.0571,-3.0827,-3.1102,-3.1359,-3.1396,-3.1341,-3.1212,-3.0956,-3.0864,-3.0974,-3.0607,-3.0516,-3.0791,-3.013,-2.9525,-2.8993,0.0,0.0,0.0,0.0,0.0,0.0,0.0,0.0,0.0,0.0,0.0,0.0,0.0,0.0,0.0,0.0,0.0,0.0,0.0,0.0,0.0,0.0,0.0,-1.6564,-1.6429,-1.666,-1.7528,-1.817,-1.8758,-1.9332,-1.9399,-1.9519,-1.98,-1.9826,-1.996,-2.0241,-2.0535,-2.0695,-2.0695,-2.0962,-2.1109,-2.1109,-2.1122,-2.1122,-2.1122,-2.1136,-2.1136,-2.1136,-2.1136,-2.1296,-2.1563,-2.1563,-2.1724,-2.1991,-2.1991,-2.1991,-2.1924,-2.1363,-2.188,-2.2856,-2.1628,-2.1136,-2.1502,-2.41,-2.5087,-2.5504,-2.8463,-2.9459,-2.9672,-3.0075,-3.0204,-3.0204,-3.0204,-3.0204,-3.0204,-3.0204,-3.0204,-3.0222,-3.0222,-3.0222,-3.0241,-3.0259,-3.0259,-3.0259,-3.0277,-3.0277,-3.013,-2.9672,-2.9617,-2.9764,-3.0167,-2.958,0.0,-3.0167,-3.0277,-3.0277,-3.0296,-3.0992,-3.1451,-3.1451,-3.2184,-3.2478,-3.2074,-3.2038,-3.1836,-3.1414,-3.1781,-3.1616,-3.0846,-3.0442,-3.0259,-3.0259,0.0,0.0,0.0,0.0,0.0,0.0,0.0,0.0,0.0,0.0,0.0,0.0,0.0,0.0,0.0,0.0,0.0,0.0,0.0,0.0,0.0,-1.6402,-1.6728,-1.6647,-1.7324,-1.813,-1.8798,-1.9212,-1.9586,-1.996,-2.0,-2.012,-2.0414,-2.0441,-2.0561,-2.0855,-2.0949,-2.0989,-2.0989,-2.1069,-2.1109,-2.1109,-2.1323,-2.143,-2.143,-2.1643,-2.175,-2.175,-2.175,-2.179,-2.1871,-2.1871,-2.1911,-2.1991,-2.1991,-2.1991,-2.1964,-2.1804,-2.1997,-2.2257,-2.1867,-2.2387,-2.3407,-2.5057,-2.5676,-2.5818,-2.6673,-2.7604,-2.8497,-2.8619,-2.9422,-3.0204,-3.0204,-3.0204,-3.0204,-3.0204,-3.0424,-3.0626,-3.0626,-3.0846,-3.1139,-3.1451,-3.1506,-3.1598,-3.1873,-3.1928,-3.1524,-3.0259,-3.0497,-3.0919,-3.1029,-3.1377,-3.1689,-3.1909,-3.1928,-3.2056,-3.2368,-3.2845,-3.3138,-3.3138,-3.3615,-3.3615,-3.2936,-3.2606,-3.2258,-3.1854,-3.1653,-3.1579,-3.1671,-3.1561,-3.1506,0.0,0.0,0.0,0.0,0.0,0.0,0.0,0.0,0.0,0.0,0.0,0.0,0.0,0.0,0.0,0.0,0.0,0.0,0.0,0.0,0.0,0.0,-1.7114,-1.7675,-1.7809,-1.8424,-1.9025,-1.9492,-1.992,-2.0227,-2.0401,-2.0535,-2.0668,-2.0842,-2.0855,-2.0935,-2.1096,-2.1109,-2.1162,-2.1296,-2.1296,-2.1349,-2.147,-2.1643,-2.1737,-2.1737,-2.1911,-2.1991,-2.1991,-2.1991,-2.2044,-2.2164,-2.2164,-2.2231,-2.2352,-2.2352,-2.2352,-2.2325,0.0,0.0,0.0,0.0,-2.2504,-2.342,-2.4705,-2.5463,-2.612,-2.6793,-2.7993,-2.9168,-2.869,-2.9651,-3.0573,-3.0049,-3.0302,-3.0736,-3.0919,-3.1121,-3.1341,-3.1506,-3.1726,-3.1946,-3.2203,-3.2258,-3.2331,-3.2551,-3.2588,0.0,-3.1359,-3.1451,-3.1689,-3.1873,-3.2001,-3.2203,-3.2551,-3.2441,-3.2514,-3.2918,-3.3321,-3.3633,-3.3798,-3.433,0.0,0.0,0.0,-3.3431,-3.3028,-3.2459,0.0,0.0,0.0,-3.2166,-3.2001,-3.1524,0.0,0.0,-2.914,-2.8517,0.0,0.0,0.0,0.0,0.0,0.0,0.0,0.0,0.0,0.0,0.0,0.0,0.0,0.0,0.0,0.0,-1.8116,-1.9132,-1.9466,-1.9519,-1.9613,-1.9867,-2.0388,-2.0722,-2.0722,-2.0962,-2.1109,-2.1109,-2.1136,-2.1162,-2.1162,-2.1189,0.0,0.0,0.0,-2.1724,-2.1977,-2.2017,-2.2031,-2.2031,-2.2071,-2.2084,-2.2084,-2.2084,-2.2231,-2.2472,-2.2512,-2.2672,-2.2913,-2.2953,-2.2966,-2.2899,-2.2311,-2.2084,-2.2084,-2.2084,-2.2084,-2.2217,-2.3431,0.0,0.0,-2.7604,-2.9163,-3.0134,-2.943,-3.0188,-3.1117,-2.9927,-3.058,-3.1598,-3.1983,-3.2074,-3.2166,-3.2514,-3.2588,-3.2606,-3.2661,-3.2661,-3.268,-3.2716,-3.2735,-3.2735,-3.2735,-3.2404,-3.2258,-3.2606,-3.2129,-3.1983,-3.2698,-3.2533,-3.2496,-3.29,-3.3321,0.0,-3.4055,-3.4788,-3.5027,-3.4568,-3.4807,-3.4788,-3.4422,-3.3725,-3.3376,-3.3431,-3.301,-3.2625,-3.2276,-3.2239,-3.2386,-3.2698,-3.1176,-3.0479,0.0,0.0,0.0,0.0,0.0,0.0,0.0,0.0,0.0,0.0,0.0,0.0,0.0,0.0,0.0,-1.8437,-1.9132,-1.9813,-2.0347,-2.0428,-2.0441,-2.0508,-2.0815,-2.1029,-2.1029,-2.1082,-2.1109,-2.1109,-2.1336,-2.147,-2.147,-2.1683,-2.1844,-2.1897,-2.1897,-2.1924,-2.1991,-2.2218,-2.2338,-2.2338,-2.2579,0.0,-2.2699,-2.2699,-2.2726,-2.2792,-2.3046,-2.318,-2.326,-2.35,-2.3594,-2.3541,-2.2926,-2.2699,-2.2699,-2.2699,-2.2699,-2.2726,-2.3255,-2.3612,-2.3928,-2.4512,-2.5696,-2.7061,-2.81,-2.9343,0.0,-3.1666,-3.2217,-3.2386,-3.2459,-3.2478,-3.2496,-3.257,-3.2588,-3.2698,-3.3028,-3.3101,-3.3193,-3.3523,-3.3578,-3.3578,-3.3578,-3.3248,-3.301,-3.3101,-3.3505,-3.3872,-3.4037,-3.4275,-3.4605,-3.499,-3.5394,-3.565,-3.5742,-3.6201,-3.6182,-3.543,-3.4844,-3.4477,-3.4403,-3.4257,-3.433,-3.4678,-3.4275,-3.4018,-3.3945,-3.3615,-3.3505,-3.356,-3.2588,-3.2129,0.0,0.0,0.0,0.0,0.0,0.0,0.0,0.0,0.0,0.0,0.0,-1.7101,-1.6954,0.0,-1.8971,-1.9118,-1.976,-2.0347,-2.0641,-2.0802,-2.0895,-2.0895,-2.1029,-2.1109,-2.1109,-2.1243,-2.1336,-2.1336,-2.1603,-2.1764,-2.1764,-2.1911,-2.2044,-2.2205,-2.2205,-2.2271,-2.2418,-2.2565,-2.2726,-2.2873,-2.302,-2.3166,-2.3313,-2.3313,-2.3313,-2.3327,-2.3487,-2.3554,-2.3554,-2.3714,-2.3768,-2.3741,-2.3434,-2.3313,-2.3313,-2.3313,-2.3313,-2.334,-2.35,-2.395,-2.4666,-2.482,-2.6379,-2.817,-2.8186,-2.9696,-3.1478,-3.1496,-3.2052,-3.2643,-3.2863,-3.2918,-3.2955,-3.3156,-3.3211,-3.3266,-3.3468,-3.3523,-3.3633,-3.4037,-3.411,-3.4238,-3.4642,-3.455,-3.4275,-3.3872,-3.433,-3.4715,-3.4715,-3.4899,-3.5174,-3.5577,-3.5797,-3.5999,-3.6182,-3.6402,-3.6439,-3.6237,-3.5467,-3.51,-3.5302,-3.4917,-3.4807,-3.5027,-3.4825,-3.4715,-3.4715,-3.4513,-3.4422,-3.4403,-3.4,-3.3596,0.0,0.0,0.0,0.0,0.0,0.0,0.0,-1.617,-1.6579,-1.668,-1.7384,-1.7968,-1.8023,-1.8891,-1.9626,-1.9626,-2.0267,-2.0762,-2.0762,-2.0962,-2.1136,-2.1189,-2.1189,-2.1189,-2.1189,-2.147,-2.163,-2.163,-2.1911,-2.2071,-2.2071,-2.2124,-2.2258,-2.2498,-2.2565,-2.2712,-2.2953,-2.3006,-2.3166,-2.3407,-2.3407,-2.3541,-2.3768,-2.3768,-2.3768,-2.3768,-2.3834,-2.3888,-2.3941,-2.3941,-2.3941,-2.3941,-2.3941,-2.3941,-2.3928,-2.3808,-2.3768,-2.3781,-2.3834,-2.469,-2.5512,-2.5583,-2.726,-2.907,-2.8515,-3.0052,-3.1844,-3.1318,-3.1997,-3.2918,-3.3248,-3.3395,-3.3541,-3.3853,-3.3982,-3.4055,-3.4055,-3.411,-3.4257,-3.4568,-3.4697,-3.4972,-3.5614,-3.5797,-3.5595,-3.4862,-3.5119,-3.5375,-3.5375,-3.5449,-3.5614,-3.5944,-3.5962,-3.6091,-3.6421,-3.6439,-3.6586,-3.6934,-3.6329,-3.6109,-3.6439,-3.5834,-3.5504,-3.5504,-3.5504,-3.5504,-3.5504,-3.5504,-3.5504,-3.5504,-3.5504,-3.4972,-1.4155,-1.4475,-1.4731,-1.4621,-1.5344,-1.6137,0.0,-1.7211,-1.7828,-1.8052,-1.8855,-1.9509,-1.9482,-2.0094,-2.0535,-2.0535,-2.0828,-2.1069,-2.1069,-2.1082,-2.1203,-2.147,-2.151,-2.151,-2.151,-2.1764,-2.1937,-2.1937,-2.2205,-2.2378,-2.2378,-2.2619,-2.2779,-2.2806,-2.3086,-2.3247,-2.3273,-2.3541,-2.3688,-2.3728,-2.3728,-2.3741,-2.3768,-2.3768,-2.3768,-2.3781,-2.4048,-2.4302,-2.4543,-2.4543,-2.4543,-2.4543,-2.4543,-2.4543,-2.4476,-2.3968,-2.3768,-2.3808,-2.4062,-2.43,-2.4485,-2.4742,-2.497,-2.5674,-2.8233,-2.9376,-3.0086,-3.2681,-3.3532,-3.3688,-3.3725,-3.4,-3.4275,-3.433,-3.4623,-3.4899,-3.4899,-3.5174,-3.543,-3.5485,-3.576,-3.6036,-3.6127,-3.6457,-3.6549,-3.6072,-3.6366,-3.6641,-3.6641,-3.6934,-3.7173,-3.7209,-3.7228,-3.7246,-3.7283,-3.7283,-3.7301,-3.7356,-3.7283,-3.7246,-3.7283,-3.7209,-3.7154,-3.7154,-3.7154,-3.7154,-3.7154,-3.7154,-3.7154,-3.7154,-3.7154,-3.6347,-1.5208,-1.5146,-1.5221,-1.602,-1.6485,-1.6879,-1.7528,-1.8083,-1.8478,-1.8842,-1.952,-1.9963,-1.9968,-2.0531,-2.0922,-2.0684,-2.0903,-2.1162,-2.1336,-2.1363,-2.1341,-2.1503,-2.1819,-2.1991,-2.1817,-2.1939,-2.1978,-2.2231,-2.2512,-2.2672,-2.2672,-2.2966,-2.314,-2.314,-2.342,-2.3581,-2.3581,-2.3714,-2.3861,-2.4022,-2.4022,-2.4115,-2.4275,-2.3984,-2.3838,-2.3546,-2.3663,-2.378,-2.3896,-2.3896,-2.4044,-2.4193,-2.4193,-2.4341,-2.4609,-2.4369,-2.4275,-2.4289,-2.4409,-2.4449,-2.4622,-2.5611,-2.6502,-2.7635,-2.9932,-3.1361,-3.2543,-3.3726,-3.433,-3.4532,-3.4532,-3.4825,-3.5119,-3.5119,-3.5412,-3.5724,-3.5724,-3.5852,-3.6036,-3.6274,-3.6457,-3.6714,-3.7173,-3.7411,-3.7539,-3.7613,-3.7374,-3.7173,-3.7173,-3.7319,-3.7429,-3.7429,-3.7429,-3.7429,-3.7429,-3.7429,-3.7521,-3.7759,-3.7558,-3.7521,-3.7759,-3.7539,-3.7429,-3.7429,-3.7429,-3.7429,-3.7429,-3.7429,-3.7429,-3.7429,-3.7429,-3.7062,-1.5992,-1.5943,-1.5992,-1.7089,-1.7461,-1.7547,-1.8102,-1.8558,-1.8943,-1.9197,-1.9717,-2.0177,-2.0177,-2.0598,-2.0856,-2.0602,-2.0922,-2.1309,-2.1394,-2.1487,-2.1516,-2.1408,-2.175,-2.1962,-2.2111,-2.2149,-2.2281,-2.2539,-2.2819,-2.2993,-2.2993,-2.3287,-2.3447,-2.3447,-2.3741,-2.3888,-2.3745,-2.3824,-2.397,-2.4024,-2.4024,-2.4143,-2.4193,-2.4044,-2.3748,-2.3451,-2.3527,-2.3553,-2.3565,-2.3792,-2.398,-2.4279,-2.4429,-2.4578,-2.4877,-2.4877,-2.4823,-2.4756,-2.4756,-2.5093,-2.5755,-2.6762,-2.8273,-2.9921,-3.1524,-3.3124,-3.4306,-3.4755,-3.5119,-3.5357,-3.5357,-3.565,-3.5944,-3.5944,-3.6256,-3.6549,-3.6549,-3.6622,-3.6787,-3.7099,-3.7264,-3.7521,-3.8089,-3.8181,-3.8291,-3.8603,-3.8144,-3.7759,-3.7759,-3.7759,-3.7759,-3.7759,-3.7759,-3.7759,-3.7759,-3.7759,-3.7888,-3.8163,-3.7924,-3.7888,-3.8181,-3.7906,-3.7759,-3.7759,-3.7759,-3.7759,-3.7759,-3.7759,-3.7759,-3.7759,-3.7759,-3.7814,-1.6646,-1.7105,-1.7387,-1.7195,-1.7672,-1.8179,-1.7925,-1.8521,-1.915,-1.915,-1.9638,-2.0094,-2.0094,-2.0348,-2.0615,-2.0602,-2.1093,-2.1407,-2.1032,-2.1267,-2.1421,-2.1302,-2.1069,-2.1182,-2.2258,-2.2709,-2.2846,-2.2846,-2.314,-2.3313,-2.3313,-2.3594,-2.3754,-2.3754,-2.4035,-2.405,-2.3601,-2.3875,-2.387,-2.3426,-2.3426,-2.3438,-2.3438,-2.3438,-2.3438,-2.3451,-2.3731,-2.3845,-2.3858,-2.4596,-2.4866,-2.4866,-2.5325,-2.5491,-2.5491,-2.5491,-2.5304,-2.5064,-2.5064,-2.6279,-2.7861,-2.8012,-2.9259,-3.1179,-3.2838,-3.3558,-3.4186,-3.57,-3.6164,-3.6164,-3.6164,-3.6476,-3.6806,-3.6806,-3.7099,-3.7393,-3.7393,-3.7686,-3.7961,-3.7979,-3.831,-3.8603,-3.8621,-3.8621,-3.8621,-3.864,-3.8621,-3.8603,-3.8603,-3.8603,-3.8603,-3.8603,-3.8603,-3.8603,-3.8603,-3.8603,-3.8603,-3.8621,-3.8603,-3.8603,-3.8621,-3.8603,-3.8603,-3.8603,-3.8603,-3.8603,-3.8603,-3.8603,-3.8603,-3.8603,-3.8603,-3.8805,-1.7292,-1.7596,-1.7815,-1.8058,-1.8348,-1.8577,-1.865,-1.8933,-1.9193,-1.9435,-1.9649,-1.9839,-2.0106,-2.0361,-2.0488,-2.0361,-2.085,-2.1098,-2.1031,-2.1155,-2.1302,-2.1183,-2.1346,-2.1596,-2.1862,-2.19,-2.2318,-2.3166,-2.3166,-2.3337,-2.3621,-2.3901,-2.4062,-2.4062,-2.405,-2.414,-2.4175,-2.3967,-2.3958,-2.3985,-2.3985,-2.3833,-2.3541,-2.3728,-2.3562,-2.3249,-2.3377,-2.3544,-2.3678,-2.3932,-2.4431,-2.4918,-2.5268,-2.5524,-2.5558,-2.5945,-2.6026,-2.6047,-2.6847,-2.7647,-2.8806,-3.09,-3.2209,-3.3262,-3.4776,-3.5528,-3.5851,-3.6472,-3.6806,-3.7026,-3.7026,-3.7319,-3.7613,-3.7613,-3.7924,-3.8236,-3.8236,-3.8328,-3.8438,-3.8438,-3.8548,-3.864,-3.864,-3.864,-3.8731,-3.8988,-3.8805,-3.8731,-3.9006,-3.9025,-3.9135,-3.941,-3.9447,-3.9428,-3.9428,-3.9428,-3.9447,-3.9447,-3.9447,-3.9447,-3.9447,-3.9447,-3.9447,-3.9447,-3.9447,-3.9447,-3.9447,-3.9447,-3.9447,-3.9447,-3.9447,-3.9502,-1.8034,-1.8277,-1.8251,-1.8601,-1.8758,-1.8843,-1.8915,-1.9139,-1.9328,-1.9456,-1.953,-1.9861,-1.9989,-2.0246,-2.0413,-2.0386,-2.0758,-2.1002,-2.0927,-2.1132,-2.1296,-2.1192,-2.1356,-2.1608,-2.174,-2.1709,-2.2162,-2.3205,-2.3327,-2.3497,-2.3928,-2.4195,-2.4209,-2.4063,-2.4088,-2.4026,-2.4009,-2.3707,-2.3744,-2.3965,-2.3965,-2.386,-2.3646,-2.383,-2.3818,-2.3658,-2.3781,-2.411,-2.4409,-2.4667,-2.5033,-2.5518,-2.5872,-2.6148,-2.6186,-2.656,-2.6707,-2.6946,-2.8144,-2.9239,-3.0423,-3.3028,-3.4516,-3.561,-3.654,-3.7154,-3.7484,-3.7484,-3.7668,-3.7851,-3.7851,-3.8053,-3.8236,-3.8236,-3.8438,-3.864,-3.864,-3.864,-3.864,-3.864,-3.875,-3.886,-3.886,-3.897,-3.9153,-3.941,-3.9226,-3.9171,-3.941,-3.9447,-3.9557,-3.9813,-3.985,-3.9832,-3.9832,-3.9832,-3.985,-3.985,-3.985,-3.985,-3.985,-3.985,-3.985,-3.985,-3.985,-3.985,-3.985,-3.985,-3.985,-3.985,-3.985,-3.9923,-1.8779,-1.8949,-1.871,-1.871,-1.8891,-1.9012,-1.8758,-1.9145,-1.9456,-1.92,-1.9536,-1.998,-1.9955,-1.998,-2.021,-2.0724,-2.1149,-2.1205,-2.0798,-2.1257,-2.1463,-2.1193,-2.1064,-2.1315,-2.1894,-2.1861,-2.2214,-2.3119,-2.3484,-2.3786,-2.4222,-2.4489,-2.4341,-2.4044,-2.3909,-2.3753,-2.3265,-2.3314,-2.3292,-2.349,-2.3502,-2.3647,-2.3888,-2.39,-2.4061,-2.4554,-2.4814,-2.5251,-2.5724,-2.632,-2.66,-2.6764,-2.7118,-2.7281,-2.7268,-2.7295,-2.7308,-2.7568,-2.921,-3.0877,-3.2713,-3.4446,-3.6443,-3.8053,-3.8053,-3.8328,-3.864,-3.864,-3.864,-3.864,-3.864,-3.864,-3.864,-3.864,-3.864,-3.864,-3.864,-3.864,-3.8658,-3.8676,-3.8988,-3.9263,-3.9263,-3.9593,-3.985,-3.9868,-3.9868,-3.9868,-3.9868,-3.9868,-3.9887,-3.9905,-3.9905,-3.9905,-3.9905,-3.9905,-3.9905,-3.9905,-3.9905,-3.9905,-3.9905,-3.9905,-3.9905,-3.9905,-3.9905,-3.9905,-3.9905,-3.9905,-3.9905,-3.9905,-3.9905,-4.0125,-1.8969,-1.9103,-1.8976,-1.8976,-1.9024,-1.906,-1.8988,-1.9152,-1.92,-1.9072,-1.9389,-1.9683,-1.9683,-2.0115,-2.0215,-1.9936,-2.0497,-2.0736,-2.0148,-2.0573,-2.0974,-2.104,-2.1064,-2.1387,-2.1861,-2.1971,-2.2215,-2.294,-2.3298,-2.3632,-2.4074,-2.4153,-2.4044,-2.4044,-2.3642,-2.3429,-2.355,-2.3842,-2.39,-2.4045,-2.4238,-2.4359,-2.4432,-2.4967,-2.512,-2.5112,-2.5715,-2.6198,-2.6333,-2.6561,-2.6764,-2.7118,-2.7495,-2.7455,-2.7321,-2.7762,-2.7776,-2.8098,-3.133,-3.2566,-3.3066,-3.4835,-3.6693,-3.8475,-3.8475,-3.8566,-3.864,-3.864,-3.864,-3.864,-3.864,-3.864,-3.864,-3.864,-3.864,-3.864,-3.864,-3.864,-3.8731,-3.9025,-3.941,-3.9685,-3.9685,-3.9777,-3.9942,-4.0253,-4.0308,-4.0308,-4.0308,-4.0308,-4.0418,-4.0712,-4.0749,-4.0749,-4.0749,-4.0749,-4.0749,-4.0749,-4.0749,-4.0749,-4.0749,-4.0749,-4.0749,-4.0749,-4.0749,-4.0749,-4.0749,-4.0749,-4.0749,-4.0749,-4.0749,-4.0804,-1.8976,-1.9072,-1.9072,-1.9072,-1.9072,-1.9072,-1.9072,-1.9072,-1.9048,-1.8927,-1.9115,-1.9493,-1.9732,-1.9881,-2.0055,-2.0265,-2.0552,-2.0661,-2.0255,-2.0581,-2.0943,-2.1209,-2.1245,-2.145,-2.1993,-2.2042,-2.225,-2.2545,-2.3005,-2.3302,-2.3735,-2.3864,-2.3779,-2.3629,-2.3441,-2.3458,-2.3695,-2.3949,-2.4359,-2.4589,-2.4733,-2.4878,-2.4987,-2.5313,-2.5625,-2.5657,-2.6142,-2.6465,-2.6978,-2.6978,-2.731,-2.7669,-2.7829,-2.8288,-2.8827,-2.9174,-2.9675,-3.0525,-3.2663,-3.3758,-3.4565,-3.6182,-3.7647,-3.864,-3.864,-3.864,-3.864,-3.864,-3.864,-3.864,-3.864,-3.864,-3.864,-3.864,-3.8768,-3.8896,-3.8896,-3.9043,-3.9281,-3.9703,-3.996,-4.018,-4.0345,-4.0382,-4.0455,-4.0694,-4.073,-4.073,-4.073,-4.073,-4.0822,-4.1042,-4.106,-4.106,-4.106,-4.106,-4.106,-4.106,-4.106,-4.106,-4.106,-4.106,-4.106,-4.106,-4.106,-4.106,-4.106,-4.106,-4.106,-4.106,-4.106,-4.106,-1.8951,-1.9072,-1.9072,-1.9072,-1.9072,-1.9072,-1.9072,-1.9048,-1.8963,-1.8734,-1.8843,-1.9176,-1.969,-1.9646,-1.9771,-2.0749,-2.0784,-2.0581,-2.0617,-2.081,-2.11,-2.1486,-2.1498,-2.1679,-2.2211,-2.2259,-2.2271,-2.2307,-2.2606,-2.3055,-2.3353,-2.358,-2.3581,-2.3212,-2.3433,-2.3658,-2.3888,-2.4154,-2.454,-2.5047,-2.5083,-2.5216,-2.5433,-2.5433,-2.5775,-2.6103,-2.6103,-2.6613,-2.7487,-2.7487,-2.7643,-2.815,-2.8305,-2.9467,-3.0788,-3.112,-3.2098,-3.3397,-3.3724,-3.4684,-3.6316,-3.7809,-3.8481,-3.864,-3.864,-3.864,-3.864,-3.864,-3.864,-3.864,-3.864,-3.8676,-3.8731,-3.8731,-3.9025,-3.9318,-3.9318,-3.963,-4.0033,-4.04,-4.051,-4.0657,-4.1005,-4.106,-4.106,-4.106,-4.106,-4.106,-4.106,-4.106,-4.106,-4.106,-4.106,-4.106,-4.106,-4.106,-4.106,-4.106,-4.106,-4.106,-4.106,-4.106,-4.106,-4.106,-4.106,-4.106,-4.106,-4.106,-4.106,-4.106,-4.106,-4.106,-1.9048,-1.9072,-1.9072,-1.9072,-1.9072,-1.9072,-1.9072,-1.8915,-1.8746,-1.8698,-1.879,-1.8877,-1.8896,-1.9242,-1.9567,-1.9455,-1.9724,-2.0098,-2.0315,-2.0388,-2.0762,-2.1691,-2.1607,-2.1679,-2.2211,-2.2259,-2.2355,-2.2573,-2.2736,-2.2888,-2.3178,-2.3228,-2.331,-2.3297,-2.3357,-2.3635,-2.4166,-2.4432,-2.4721,-2.5047,-2.5264,-2.5397,-2.5433,-2.5763,-2.6103,-2.6103,-2.6443,-2.6796,-2.6965,-2.6965,-2.7135,-2.7812,-2.9286,-3.0107,-3.0954,-3.2412,-3.3069,-3.356,-3.5025,-3.5672,-3.5994,-3.6333,-3.749,-3.864,-3.864,-3.864,-3.864,-3.864,-3.864,-3.864,-3.864,-3.8878,-3.9135,-3.9135,-3.9447,-3.974,-3.974,-4.007,-4.0382,-4.0455,-4.073,-4.0987,-4.1042,-4.106,-4.106,-4.106,-4.106,-4.106,-4.106,-4.106,-4.106,-4.106,-4.106,-4.106,-4.106,-4.106,-4.106,-4.106,-4.106,-4.106,-4.106,-4.106,-4.106,-4.106,-4.106,-4.106,-4.106,-4.106,-4.106,-4.106,-4.106,-4.106,-1.8915,-1.8976,-1.9072,-1.9072,-1.9181,-1.9205,-1.8939,-1.8879,-1.8734,-1.8179,-1.8082,-1.819,-1.8215,-1.8483,-1.8875,-1.9193,-1.9615,-1.9977,-2.0243,-2.0509,-2.0931,-2.1583,-2.18,-2.2042,-2.2428,-2.2585,-2.2718,-2.285,-2.285,-2.3004,-2.3157,-2.3292,-2.3405,-2.3647,-2.3659,-2.3913,-2.4432,-2.4564,-2.4842,-2.5252,-2.5373,-2.5433,-2.5433,-2.5604,-2.5775,-2.5763,-2.5945,-2.6286,-2.6443,-2.7122,-2.7799,-2.8305,-3.0441,-3.1753,-3.2921,-3.4213,-3.5349,-3.619,-3.6992,-3.7454,-3.7614,-3.7614,-3.8148,-3.8676,-3.8896,-3.8951,-3.8988,-3.9208,-3.9263,-3.9263,-3.9263,-3.941,-3.9538,-3.9538,-3.9868,-4.0217,-4.0437,-4.0639,-4.0767,-4.0767,-4.0932,-4.106,-4.106,-4.106,-4.106,-4.106,-4.106,-4.106,-4.106,-4.1244,-4.1299,-4.1079,-4.1262,-4.139,-4.139,-4.1574,-4.1702,-4.1702,-4.1702,-4.1702,-4.1702,-4.15,-4.1482,-4.1684,-4.128,-4.117,-4.139,-4.117,-4.106,-4.106,-4.106,-4.106,-1.8794,-1.8915,-1.9084,-1.9145,-1.9265,-1.9265,-1.8794,-1.8758,-1.8529,-1.7527,-1.7274,-1.7286,-1.7491,-1.7624,-1.8022,-1.8963,-1.941,-1.9784,-2.0219,-2.0629,-2.1064,-2.151,-2.1981,-2.2367,-2.2621,-2.2887,-2.3068,-2.3128,-2.3188,-2.3188,-2.314,-2.3393,-2.3635,-2.384,-2.384,-2.4094,-2.4625,-2.4955,-2.5224,-2.5775,-2.5775,-2.5775,-2.5775,-2.5604,-2.5433,-2.5433,-2.5433,-2.5775,-2.6431,-2.7448,-2.846,-2.9286,-3.1437,-3.3085,-3.4571,-3.5689,-3.6832,-3.8163,-3.8322,-3.8577,-3.8904,-3.9065,-3.908,-3.8951,-3.9263,-3.9355,-3.9428,-3.9758,-3.985,-3.985,-3.9832,-3.9905,-3.9997,-4.0088,-4.0363,-4.0675,-4.0987,-4.106,-4.106,-4.106,-4.106,-4.106,-4.106,-4.106,-4.106,-4.106,-4.106,-4.106,-4.106,-4.1427,-4.1555,-4.1225,-4.1574,-4.1812,-4.1812,-4.2106,-4.2271,-4.2271,-4.2271,-4.2271,-4.2271,-4.1977,-4.1959,-4.2271,-4.1647,-4.1482,-4.1812,-4.139,-4.1189,-4.1189,-4.1097,-4.106,-1.8915,-1.906,-1.9132,-1.9374,-1.9265,-1.9036,-1.8746,-1.8324,-1.7756,-1.6936,-1.6573,-1.6392,-1.6429,-1.6827,-1.7358,-1.7925,-1.8456,-1.9145,-2.0134,-2.0315,-2.0714,-2.1716,-2.209,-2.2367,-2.2621,-2.2887,-2.3152,-2.3393,-2.3635,-2.3671,-2.343,-2.3671,-2.3816,-2.384,-2.384,-2.4094,-2.4625,-2.5944,-2.6721,-2.7279,-2.7279,-2.7279,-2.7109,-2.5933,-2.5433,-2.5433,-2.5433,-2.6103,-2.7266,-2.7435,-2.8446,-3.0122,-3.1933,-3.3085,-3.3756,-3.5399,-3.6207,-3.6385,-3.7188,-3.7775,-3.8257,-3.8904,-3.9465,-3.974,-3.9777,-3.9795,-3.9795,-3.9832,-3.985,-3.9832,-3.9832,-4.0125,-4.051,-4.0859,-4.0987,-4.1024,-4.106,-4.106,-4.106,-4.106,-4.106,-4.106,-4.106,-4.106,-4.106,-4.106,-4.106,-4.106,-4.106,-4.1427,-4.1666,-4.1629,-4.1996,-4.2216,-4.2216,-4.2252,-4.2271,-4.2271,-4.2271,-4.2271,-4.2271,-4.2234,-4.2234,-4.2271,-4.2197,-4.2179,-4.2216,-4.1831,-4.1629,-4.1629,-4.1244,-4.106,-1.8336,-1.8819,-1.9301,-1.9241,-1.9265,-1.912,-1.8372,-1.7901,-1.737,-1.6404,-1.5994,-1.5813,-1.5813,-1.626,-1.6791,-1.7322,-1.8118,-1.9,-1.9917,-2.0448,-2.1028,-2.1776,-2.2247,-2.2536,-2.2645,-2.3043,-2.3406,-2.3671,-2.378,-2.3804,-2.3695,-2.3792,-2.384,-2.384,-2.384,-2.4331,-2.5514,-2.6346,-2.729,-2.8356,-2.8533,-2.8278,-2.7435,-2.677,-2.6601,-2.6601,-2.6601,-2.7448,-2.8783,-2.9453,-3.0303,-3.1135,-3.3281,-3.4115,-3.4441,-3.5561,-3.6063,-3.6258,-3.6806,-3.748,-3.8505,-3.8901,-3.9739,-4.0529,-4.029,-4.0217,-4.0272,-4.051,-4.0565,-4.0565,-4.0565,-4.0694,-4.0859,-4.1024,-4.106,-4.106,-4.106,-4.106,-4.106,-4.106,-4.106,-4.106,-4.106,-4.106,-4.106,-4.106,-4.106,-4.106,-4.106,-4.1629,-4.2051,-4.2051,-4.2399,-4.2637,-4.2637,-4.2858,-4.3004,-4.3004,-4.3004,-4.3004,-4.3004,-4.2766,-4.2747,-4.3004,-4.2527,-4.2399,-4.2637,-4.2234,-4.2051,-4.2032,-4.1867,-4.2289,-1.7962,-1.8601,-1.9229,-1.9205,-1.9096,-1.8782,-1.795,-1.737,-1.6706,-1.5644,-1.527,-1.5149,-1.5149,-1.5584,-1.6175,-1.6863,-1.7805,-1.8758,-1.9639,-2.0376,-2.1064,-2.1679,-2.2223,-2.2597,-2.2754,-2.3249,-2.3647,-2.3828,-2.384,-2.384,-2.384,-2.384,-2.4,-2.432,-2.432,-2.5084,-2.664,-2.7419,-2.8371,-2.9499,-2.9979,-2.9621,-2.8615,-2.8278,-2.7941,-2.7941,-2.7941,-2.8783,-3.0122,-3.115,-3.1647,-3.2309,-3.3804,-3.4458,-3.4458,-3.5092,-3.5321,-3.5618,-3.6379,-3.7283,-3.8084,-3.9199,-4.006,-4.0668,-4.073,-4.0639,-4.0694,-4.0987,-4.106,-4.106,-4.106,-4.106,-4.106,-4.106,-4.106,-4.106,-4.106,-4.106,-4.106,-4.106,-4.106,-4.106,-4.106,-4.106,-4.106,-4.106,-4.106,-4.1097,-4.1225,-4.1849,-4.2326,-4.2436,-4.2803,-4.3059,-4.3059,-4.3316,-4.3499,-4.3499,-4.3499,-4.3499,-4.3499,-4.3206,-4.3188,-4.3481,-4.2931,-4.2766,-4.3059,-4.2527,-4.2344,-4.2436,-4.2216,-4.2758,-1.801,-1.8481,-1.8819,-1.9338,-1.8674,-1.7817,-1.7551,-1.667,-1.5608,-1.4533,-1.4304,-1.4304,-1.4304,-1.4751,-1.5463,-1.6537,-1.737,-1.8251,-1.9326,-1.9941,-2.0581,-2.139,-2.1945,-2.2464,-2.2983,-2.3526,-2.384,-2.384,-2.384,-2.384,-2.384,-2.384,-2.432,-2.5581,-2.574,-2.6348,-2.7922,-2.9676,-3.0644,-3.081,-3.1317,-3.1482,-3.1482,-3.0122,-2.9453,-2.9453,-2.9453,-3.0289,-3.1482,-3.1482,-3.2324,-3.3492,-3.3492,-3.3476,-3.3476,-3.3476,-3.3699,-3.4333,-3.6152,-3.6642,-3.6911,-3.9623,-4.006,-3.9858,-4.0873,-4.106,-4.106,-4.106,-4.106,-4.106,-4.106,-4.106,-4.106,-4.106,-4.106,-4.106,-4.106,-4.106,-4.106,-4.106,-4.106,-4.106,-4.106,-4.106,-4.106,-4.106,-4.106,-4.1207,-4.1629,-4.2032,-4.2417,-4.2821,-4.3243,-4.3481,-4.3481,-4.3499,-4.3499,-4.3499,-4.3499,-4.3499,-4.3499,-4.3499,-4.3499,-4.3499,-4.3481,-4.3481,-4.3481,-4.2674,-4.2472,-4.2839,-4.2051,-4.2348,-1.6791,-1.7261,-1.7684,-1.8022,-1.7587,-1.6996,-1.673,-1.5849,-1.4944,-1.4413,-1.4147,-1.4087,-1.4268,-1.4883,-1.5608,-1.632,-1.7249,-1.8251,-1.9314,-1.9929,-2.0641,-2.1631,-2.2211,-2.2669,-2.3007,-2.3369,-2.3647,-2.3828,-2.384,-2.384,-2.384,-2.384,-2.432,-2.574,-2.574,-2.6729,-2.9017,-2.9829,-3.0794,-3.1931,-3.2289,-3.2094,-3.1482,-3.1135,-3.0803,-3.0803,-3.0803,-3.1647,-3.2819,-3.2819,-3.3148,-3.3492,-3.3492,-3.3492,-3.3508,-3.3762,-3.3921,-3.408,-3.5216,-3.588,-3.6621,-3.8406,-3.926,-3.9858,-4.0892,-4.106,-4.106,-4.106,-4.106,-4.106,-4.106,-4.106,-4.106,-4.106,-4.106,-4.106,-4.106,-4.106,-4.106,-4.106,-4.106,-4.106,-4.106,-4.106,-4.106,-4.106,-4.106,-4.1207,-4.1629,-4.2032,-4.2417,-4.2821,-4.3243,-4.3499,-4.3499,-4.3499,-4.3499,-4.3499,-4.3499,-4.3499,-4.3499,-4.3499,-4.3499,-4.3499,-4.3499,-4.3499,-4.3499,-4.3243,-4.3533,-4.422,-4.4989,-4.5559,-1.5919,-1.638,-1.6851,-1.7117,-1.6718,-1.6199,-1.603,-1.5173,-1.4364,-1.4183,-1.3942,-1.3906,-1.4364,-1.4944,-1.562,-1.6465,-1.7322,-1.8215,-1.9181,-1.97,-2.0364,-2.1438,-2.2295,-2.2862,-2.3031,-2.3381,-2.3671,-2.3828,-2.384,-2.384,-2.384,-2.4418,-2.5257,-2.6533,-2.6413,-2.7619,-3.0129,-3.0621,-3.1275,-3.2412,-3.2777,-3.2817,-3.2309,-3.2309,-3.2309,-3.2309,-3.2309,-3.2654,0.0,-3.3492,-3.3492,-3.3492,-3.3492,-3.3572,-3.3715,-3.3937,-3.4175,-3.4461,-3.5232,-3.5816,-3.6477,-3.8255,-3.9519,-4.0367,-4.0892,-4.106,-4.106,-4.106,-4.106,-4.106,-4.106,-4.106,-4.106,-4.106,-4.106,-4.106,-4.106,-4.106,-4.106,-4.106,-4.106,-4.106,-4.106,-4.106,-4.106,-4.106,-4.106,-4.1262,-4.1849,-4.2124,-4.2491,-4.3041,-4.3334,-4.3499,-4.3499,-4.3499,-4.3499,-4.3499,-4.3997,-4.4174,-4.4174,-4.4706,-4.4883,-4.4352,-4.4883,-4.4883,-4.4352,-4.4536,-4.4682,-4.4433,-4.5287,-4.6004,0.0,-1.5846,-1.6211,-1.6537,-1.6042,-1.5475,-1.5499,-1.4702,0.0,-1.3966,-1.3773,-1.3833,-1.4606,-1.4992,-1.5608,-1.6887,-1.7551,-1.8179,-1.8963,-1.9362,-1.9953,-2.0967,-2.2223,-2.3031,-2.3068,-2.3526,-2.3828,-2.384,-2.3864,-2.3876,-2.4024,-2.5397,-2.6988,-2.8255,-2.7973,-2.893,-3.1458,-3.1792,-3.211,-3.2412,-3.2777,-3.3127,-3.3444,-3.3476,-3.3492,-3.3492,-3.3492,-3.3492,-3.3492,-3.3492,-3.3492,-3.3492,-3.3492,-3.3699,-3.4016,-3.4032,-3.4461,-3.5205,-3.6093,-3.5994,-3.6096,-3.8666,-4.0198,-4.106,-4.106,-4.106,-4.106,-4.106,-4.106,-4.106,-4.106,-4.106,-4.106,-4.106,-4.106,-4.106,-4.106,-4.106,-4.106,-4.106,-4.106,-4.106,-4.106,-4.106,-4.106,-4.106,-4.106,-4.1354,-4.2142,-4.2252,-4.2582,-4.3371,-4.3481,-4.3499,-4.3499,-4.3499,-4.3499,-4.3499,-4.4687,-4.5354,-4.553,-4.6753,-4.6947,-4.5725,-4.6947,-4.6927,-4.5686,-4.6491,-4.5837,-4.3813,-4.3832,-4.4464,-1.5427,0.0,-1.4932,-1.5608,-1.5487,-1.5246,0.0,-1.4992,-1.4521,-1.4521,-1.4473,-1.4558,-1.4944,-1.5572,-1.626,-1.6972,-1.7708,-1.8396,-1.8988,-2.0002,-2.0847,-2.1305,-2.2174,-2.2911,-2.3321,-2.3466,-2.3635,-2.3828,-2.4033,-2.4628,-2.557,-2.6339,-2.7622,-2.988,-2.9807,-3.0574,-3.2173,-3.2253,-3.2332,-3.2412,-3.2777,-3.3,-3.3095,-3.3365,-3.3492,-3.3492,-3.3492,-3.3492,-3.3492,-3.3492,-3.3492,-3.3492,-3.3492,-3.3699,-3.4048,-3.4302,-3.4668,-3.5065,-3.5524,-3.5684,-3.5922,-3.798,-3.9178,-4.0198,-4.0892,-4.106,-4.106,-4.106,-4.106,-4.106,-4.106,-4.106,-4.106,-4.106,-4.106,-4.106,-4.106,-4.106,-4.106,-4.106,-4.106,-4.106,-4.106,-4.106,-4.106,-4.106,-4.106,-4.1244,-4.1757,-4.2087,-4.2472,-4.2968,-4.3298,-4.3499,-4.3499,-4.3499,-4.3499,-4.3499,-4.3837,-4.4352,-4.553,-4.59,-4.6425,-4.7121,-4.7468,-4.7287,-4.6604,-4.6846,-4.6831,-4.6619,-4.5649,-4.6291,-1.5315,-1.5255,-1.5127,-1.5557,-1.5519,-1.5382,-1.536,-1.5004,-1.4751,-1.4871,-1.4799,-1.4871,-1.5378,-1.603,-1.6742,-1.7515,-1.8215,-1.8879,-1.9531,-2.0569,-2.1305,-2.145,-2.2271,-2.2947,-2.3237,-2.349,-2.3891,-2.4949,-2.5112,-2.5575,-2.6515,-2.7934,-2.908,-2.9894,-3.1194,-3.2102,-3.2412,-3.2412,-3.2491,-3.2666,-3.2857,-3.3047,-3.3206,-3.3397,-3.3492,-3.3492,-3.3492,-3.3492,-3.3492,-3.3492,-3.3587,-3.373,-3.373,-3.4032,-3.4493,-3.4684,-3.497,-3.5303,-3.551,-3.5922,-3.6427,-3.7808,-3.9007,-3.9858,-4.0892,-4.106,-4.106,-4.106,-4.106,-4.106,-4.106,-4.106,-4.106,-4.106,-4.106,-4.106,-4.106,-4.106,-4.106,-4.106,-4.106,-4.106,-4.106,-4.106,-4.106,-4.106,-4.1225,-4.15,-4.1904,-4.2142,-4.2491,-4.3096,-4.3023,-4.3004,-4.3188,-4.3206,-4.3298,-4.3481,-4.4193,-4.4864,-4.5549,-4.625,-4.7121,-4.8503,-4.7764,-4.761,-4.8505,-4.8317,-4.7836,-4.7145,-4.6495,-4.6533,-1.5591,-1.5927,-1.6206,-1.594,-1.5888,-1.578,-1.5413,-1.5113,-1.5016,-1.5246,-1.5173,-1.5294,-1.6006,-1.661,-1.731,-1.8263,-1.8855,-1.9446,-2.0183,-2.0931,-2.145,-2.1523,-2.2392,-2.3019,-2.3092,-2.3708,-2.4739,-2.6131,-2.6558,-2.6879,-2.7308,-2.9727,-3.0721,-2.9721,-3.2155,-3.319,-3.2587,-3.2571,-3.2698,-3.2952,-3.3015,-3.3174,-3.3413,-3.3508,-3.3572,-3.3572,-3.3619,-3.3635,-3.3635,-3.3587,-3.3778,-3.408,-3.4032,-3.443,-3.5033,-3.5033,-3.5272,-3.5573,-3.5573,-3.608,-3.6929,-3.798,-3.8837,-3.9689,-4.0723,-4.106,-4.106,-4.106,-4.106,-4.106,-4.106,-4.106,-4.106,-4.106,-4.106,-4.106,-4.106,-4.106,-4.106,-4.106,-4.106,-4.106,-4.106,-4.106,-4.106,-4.106,-4.1372,-4.1721,-4.2051,-4.2142,-4.2472,-4.3224,-4.2747,-4.2527,-4.2931,-4.2968,-4.3114,-4.3481,-4.4706,-4.5392,-4.5549,-4.6947,-4.8118,-4.9234,-4.8011,-4.8065,-4.9871,-4.9664,-4.8726,-4.7272,-4.693,-4.6447,-1.7251,-1.7508,-1.752,-1.6658,-1.6497,-1.6433,-1.6209,-1.6066,-1.6054,-1.6091,-1.6441,-1.6827,-1.7177,-1.7865,-1.8505,-1.8891,-1.941,-1.9881,-2.0231,-2.0762,-2.1293,-2.1752,-2.2343,-2.2887,-2.3345,-2.4756,-2.5844,-2.6292,-2.7744,-2.9207,-3.0395,-3.1048,-3.1902,-3.2741,-3.3281,-3.3429,-3.3317,-3.3317,-3.319,-3.2952,-3.3254,-3.327,-3.3063,-3.3651,-3.3937,-3.3953,-3.4223,-3.435,-3.4318,-3.4048,-3.4128,-3.4398,-3.4128,-3.443,-3.5033,-3.5033,-3.5272,-3.5573,-3.5573,-3.5748,-3.6096,-3.7808,-3.8323,-3.8837,-4.0536,-4.106,-4.106,-4.106,-4.106,-4.106,-4.106,-4.106,-4.106,-4.106,-4.106,-4.106,-4.106,-4.106,-4.106,-4.106,-4.106,-4.106,-4.106,-4.106,-4.106,-4.106,-4.1115,-4.117,-4.1244,-4.1555,-4.1959,-4.2417,-4.2656,-4.2949,-4.3371,-4.3408,-4.3426,-4.3499,-4.3659,-4.4352,-4.553,-4.6947,-4.7632,-4.7399,-4.8207,-4.8442,-4.8054,-4.9167,-4.9206,-4.8569,-4.7432,-4.7432,-1.7981,-1.8451,-1.8544,-1.7915,-1.7541,-1.7334,-1.7065,-1.7153,-1.7249,-1.6815,-1.7141,-1.7599,-1.7877,-1.8336,-1.8963,-1.9796,-2.0388,-2.0834,-2.11,-2.1462,-2.18,-2.2054,-2.2416,-2.2802,-2.3188,-2.485,-2.6387,-2.7486,-2.9229,-3.0557,-3.1242,-3.2067,-3.2489,-3.2489,-3.3148,-3.3492,-3.3492,-3.3492,-3.3397,-3.3238,-3.3413,-3.3397,-3.3254,-3.3572,-3.3826,-3.4016,-3.4175,-3.4334,-3.4493,-3.4334,-3.4477,-3.4779,-3.462,-3.4874,-3.5335,-3.5335,-3.543,-3.5573,-3.5573,-3.5573,-3.5748,-3.7119,-3.7619,-3.7963,-3.9689,-4.0367,-4.0385,-4.0892,-4.106,-4.106,-4.106,-4.106,-4.106,-4.106,-4.106,-4.106,-4.106,-4.106,-4.106,-4.106,-4.106,-4.106,-4.106,-4.106,-4.106,-4.106,-4.1262,-4.139,-4.139,-4.1757,-4.2161,-4.2546,-4.2381,-4.2399,-4.2803,-4.2637,-4.2803,-4.3444,-4.3499,-4.3745,-4.4015,-4.4698,-4.5165,-4.5576,-4.6542,-4.7403,-4.7622,-4.8704,-4.9126,-4.8907,-4.8251,-4.7911,-1.8262,-1.8888,-1.933,-1.9141,-1.8631,-1.8146,-1.7701,-1.795,-1.8118,-1.7503,-1.7841,-1.8447,-1.8976,-1.9308,-1.9862,-2.0909,-2.1205,-2.1498,-2.1824,-2.2042,-2.2198,-2.2259,-2.2549,-2.2992,-2.3569,-2.54,-2.7268,-2.9101,-3.0736,-3.1705,-3.1963,-3.2983,-3.2983,-3.1978,-3.2983,-3.3492,-3.3492,-3.3492,-3.3492,-3.3492,-3.3492,-3.3492,-3.3492,-3.3572,-3.3762,-3.4016,-3.4175,-3.4398,-3.4636,-3.4636,-3.4843,-3.5145,-3.5065,-3.5256,-3.5573,-3.5573,-3.5573,-3.5573,-3.5573,-3.5573,-3.5748,-3.6584,-3.6929,-3.7275,-3.8837,-3.9348,-3.9519,-4.0554,-4.0723,-4.0892,-4.106,-4.106,-4.106,-4.106,-4.106,-4.106,-4.106,-4.106,-4.106,-4.106,-4.106,-4.106,-4.106,-4.106,-4.106,-4.106,-4.1335,-4.1574,-4.1684,-4.1959,-4.2326,-4.2821,-4.2326,-4.2087,-4.2381,-4.2142,-4.2362,-4.3298,-4.3444,-4.3353,-4.3023,-4.2913,-4.318,-4.3766,-4.4699,-4.5754,-4.7129,-4.7923,-4.8569,-4.8907,-4.8907,-4.841,-1.8345,-1.892,-1.9613,-2.0219,-1.9542,-1.8467,-1.7966,-1.8082,-1.8275,-1.8215,-1.8819,-1.9813,-2.1005,-2.1641,-2.2043,-2.2147,-2.1595,-2.1269,-2.18,-2.1885,-2.1993,-2.2235,-2.2705,-2.3736,-2.5244,-2.7305,-2.9101,-3.0736,-3.2406,-3.3296,-3.3312,-3.3476,-3.3492,-3.3312,-3.3476,-3.3492,-3.3492,-3.3492,-3.3492,-3.3492,-3.3492,-3.3492,-3.3492,-3.3826,-3.3985,-3.4048,-3.4684,-3.497,-3.4986,-3.4986,-3.5208,-3.551,-3.516,-3.5256,-3.5573,-3.5573,-3.5573,-3.5573,-3.5573,-3.5573,-3.5748,-3.6584,-3.6929,-3.7102,-3.8152,-3.8323,-3.8666,-3.9519,-3.9858,-4.0028,-4.0892,-4.106,-4.106,-4.106,-4.106,-4.106,-4.106,-4.106,-4.106,-4.106,-4.106,-4.106,-4.106,-4.106,-4.106,-4.106,-4.1079,-4.1244,-4.1629,-4.1721,-4.2014,-4.2784,-4.2821,-4.2784,-4.2821,-4.2803,-4.2821,-4.2913,-4.3279,-4.3481,-4.3444,-4.3078,-4.2674,-4.2444,-4.3386,-4.4288,-4.5209,-4.6467,-4.7752,-4.8907,-4.8907,-4.8907,-1.9406,-2.0226,-2.0711,-2.1048,-2.1288,-2.1114,-1.984,-1.9979,-2.0203,-1.9212,-1.9531,-2.0441,-2.1784,-2.1607,-2.1659,-2.2873,-2.2615,-2.2162,-2.2165,-2.2695,-2.3078,-2.2627,-2.3429,-2.4329,-2.5244,-2.7973,-2.9981,-3.0644,-3.2492,-3.3492,-3.3492,-3.3492,-3.3492,-3.3492,-3.3492,-3.3492,-3.3492,-3.3492,-3.3492,-3.3492,-3.3492,-3.3492,-3.3492,-3.3619,-3.381,-3.4032,-3.4509,-3.4827,-3.5049,-3.5272,-3.5462,-3.5558,-3.543,-3.5462,-3.5573,-3.5573,-3.5573,-3.5573,-3.5573,-3.5573,-3.5573,-3.5906,-3.608,-3.6253,-3.7119,-3.7808,-3.8494,-3.9519,-4.0028,-4.0723,-4.106,-4.106,-4.106,-4.106,-4.106,-4.106,-4.106,-4.106,-4.106,-4.106,-4.106,-4.106,-4.106,-4.106,-4.106,-4.106,-4.106,-4.1115,-4.128,-4.1519,-4.1794,-4.2106,-4.2124,-4.2032,-4.1757,-4.1977,-4.2124,-4.2124,-4.2747,-4.2986,-4.2747,-4.2344,-4.1941,-4.1519,-4.2686,-4.333,-4.3837,-4.5148,-4.6467,-4.7592,-4.7592,-4.8092,-1.967,-2.0798,-2.1758,-2.1549,-2.226,-2.2754,-2.1511,-2.1385,-2.113,-1.9915,-2.0759,-2.1744,-2.2154,-2.2112,-2.232,-2.3093,-2.3145,-2.2819,-2.2323,-2.3277,-2.3676,-2.2773,-2.3479,-2.4648,-2.5985,-2.8332,-3.0126,-3.1274,-3.2655,-3.3492,-3.3492,-3.3492,-3.3492,-3.3492,-3.3492,-3.3492,-3.3492,-3.3492,-3.3492,-3.3492,-3.3492,-3.3492,-3.3492,-3.3492,-3.3619,-3.3858,-3.4207,-3.4541,-3.489,-3.5256,-3.5478,-3.5573,-3.5573,-3.5573,-3.5573,-3.5573,-3.5573,-3.5573,-3.5573,-3.5748,-3.608,-3.608,-3.608,-3.608,-3.6757,-3.7119,-3.7636,-3.8494,-3.9519,-4.0198,-4.0554,-4.0892,-4.106,-4.106,-4.106,-4.106,-4.106,-4.106,-4.106,-4.106,-4.106,-4.106,-4.106,-4.106,-4.106,-4.106,-4.106,-4.1115,-4.1244,-4.1519,-4.1739,-4.1867,-4.1757,-4.1574,-4.128,-4.1519,-4.1684,-4.1684,-4.2197,-4.2417,-4.2289,-4.1904,-4.1555,-4.1262,-4.2105,-4.2678,-4.2991,-4.4001,-4.4985,-4.6285,-4.6769,-4.7432,-1.8709,-2.0435,-2.2356,-2.1783,-2.2378,-2.301,-2.2933,-2.1881,-2.0863,-2.0099,-2.24,-2.3928,-2.212,-2.3542,-2.4327,-2.292,-2.321,-2.3254,-2.2372,-2.3277,-2.3676,-2.2773,-2.2887,-2.4326,-2.7393,-2.834,-2.9968,-3.2759,-3.3286,-3.3492,-3.3492,-3.3492,-3.3492,-3.3492,-3.3492,-3.3492,-3.3492,-3.3492,-3.3492,-3.3492,-3.3492,-3.3492,-3.3492,-3.3492,-3.3492,-3.3508,-3.3858,-3.4191,-3.4525,-3.489,-3.524,-3.5573,-3.5573,-3.5573,-3.5573,-3.5573,-3.5573,-3.5573,-3.5573,-3.6253,-3.6929,-3.6929,-3.6929,-3.6929,-3.6929,-3.6253,-3.5748,-3.6584,-3.7619,-3.8494,-3.9519,-4.0385,-4.106,-4.106,-4.106,-4.106,-4.106,-4.106,-4.106,-4.106,-4.106,-4.106,-4.106,-4.106,-4.106,-4.106,-4.106,-4.1207,-4.1629,-4.1684,-4.1831,-4.2216,-4.1922,-4.1684,-4.1684,-4.1684,-4.1684,-4.1684,-4.1684,-4.1867,-4.2252,-4.1886,-4.1684,-4.1684,-4.128,-4.1714,-4.2991,-4.2991,-4.3672,-4.5005,-4.6285,-4.693,-2.014,-2.1868,-2.3142,-2.2646,-2.345,-2.3969,-2.2214,-2.1516,-2.1227,-2.104,-2.1594,-2.2396,-2.3336,-2.2828,-2.2743,-2.4548,-2.4726,-2.4323,-2.3658,-2.4449,-2.4634,-2.3181,-2.3753,-2.5242,-2.7393,-2.8979,-3.0686,-3.2411,-3.3143,-3.3492,-3.3492,-3.3492,-3.3492,-3.3492,-3.3492,-3.3492,-3.3492,-3.3492,-3.3492,-3.3492,-3.3492,-3.3492,-3.3492,-3.3492,-3.3492,-3.3508,-3.3858,-3.4064,-3.4207,-3.4795,-3.524,-3.5573,-3.5573,-3.5573,-3.5573,-3.5573,-3.5573,-3.5573,-3.5573,-3.6253,-3.6929,-3.6929,-3.7275,-3.7808,-3.7102,-3.7102,-3.7464,-3.6929,-3.7619,-3.8494,-3.9519,-3.9858,-4.0198,-4.0892,-4.106,-4.106,-4.106,-4.106,-4.106,-4.106,-4.106,-4.106,-4.106,-4.106,-4.106,-4.106,-4.106,-4.1097,-4.1225,-4.1244,-4.1299,-4.1409,-4.1317,-4.1244,-4.1244,-4.1244,-4.1244,-4.1244,-4.1244,-4.1427,-4.1849,-4.1464,-4.1244,-4.1244,-4.1115,-4.1229,-4.1714,-4.1714,-4.2364,-4.3672,-4.3982,-4.5128,-1.9994,-2.182,-2.3352,-2.2644,-2.325,-2.3662,-2.1499,-2.1232,-2.1525,-2.1238,-2.1974,-2.2756,-2.3192,-2.2665,-2.2658,-2.4063,-2.4802,-2.4919,-2.3523,-2.4743,-2.5066,-2.3145,-2.3741,-2.5048,-2.7212,-2.8892,-3.048,-3.2253,-3.3079,-3.3492,-3.3492,-3.3492,-3.3492,-3.3492,-3.3492,-3.3492,-3.3492,-3.3492,-3.3492,-3.3492,-3.3492,-3.3492,-3.3492,-3.3492,-3.3492,-3.3508,-3.3858,-3.4096,-3.4255,-3.4811,-3.524,-3.5573,-3.5573,-3.5573,-3.5573,-3.5573,-3.5573,-3.5573,-3.5573,-3.6253,-3.6929,-3.6929,-3.7464,-3.8152,-3.7636,-3.7808,-3.8152,-3.7619,-3.8152,-3.9007,-3.9519,-4.0028,-4.0385,-4.0892,-4.106,-4.106,-4.106,-4.106,-4.106,-4.106,-4.106,-4.106,-4.106,-4.106,-4.106,-4.106,-4.106,-4.106,-4.106,-4.106,-4.106,-4.106,-4.106,-4.106,-4.106,-4.106,-4.106,-4.106,-4.106,-4.117,-4.1427,-4.1189,-4.106,-4.106,-4.106,-4.106,-4.106,-4.106,-4.1546,-4.2197,-4.2844,-4.3817,-1.8897,-2.099,-2.3126,-2.1817,-2.2136,-2.2257,-2.0687,-2.1157,-2.1752,-2.1007,-2.2881,-2.4012,-2.2038,-2.2911,-2.3497,-2.2374,-2.4276,-2.5038,-2.2992,-2.4449,-2.5012,-2.2949,-2.2899,-2.4225,-2.7003,-2.8171,-2.9676,-3.2253,-3.3079,-3.3492,-3.3492,-3.3492,-3.3492,-3.3492,-3.3492,-3.3492,-3.3492,-3.3492,-3.3492,-3.3492,-3.3492,-3.3492,-3.3492,-3.3492,-3.3492,-3.3508,-3.3826,-3.4175,-3.4525,-3.4859,-3.5224,-3.5573,-3.5573,-3.5573,-3.5573,-3.5573,-3.5573,-3.5573,-3.5573,-3.6253,-3.6929,-3.6929,-3.7464,-3.8323,-3.8152,-3.8152,-3.8323,-3.8152,-3.8837,-3.9519,-3.9689,-4.0367,-4.106,-4.106,-4.106,-4.106,-4.106,-4.106,-4.106,-4.106,-4.106,-4.106,-4.106,-4.106,-4.106,-4.106,-4.106,-4.106,-4.106,-4.106,-4.106,-4.106,-4.106,-4.106,-4.106,-4.106,-4.106,-4.106,-4.106,-4.106,-4.106,-4.106,-4.106,-4.106,-4.106,-4.106,-4.106,-4.106,-4.106,-4.106,-4.2364,-4.2844,-1.9765,-2.1142,-2.2117,-2.1555,-2.1251,-2.1108,-2.0974,-2.1722,-2.2302,-2.1641,-2.1912,-2.2325,-2.2612,-2.2631,-2.3116,-2.4663,-2.5423,-2.5611,-2.5185,-2.5478,-2.508,-2.3206,-2.3007,-2.4301,-2.7295,-2.8297,-2.9676,-3.2253,-3.3079,-3.3492,-3.3492,-3.3492,-3.3492,-3.3492,-3.3492,-3.3492,-3.3492,-3.3492,-3.3492,-3.3492,-3.3492,-3.3492,-3.3492,-3.3492,-3.3492,-3.3492,-3.3572,-3.3937,-3.4509,-3.4588,-3.5002,-3.5573,-3.5573,-3.5573,-3.5573,-3.5573,-3.5573,-3.5573,-3.5573,-3.6253,-3.6929,-3.6929,-3.7464,-3.8152,-3.7447,-3.7808,-3.8152,-3.7447,-3.7808,-3.8837,-3.9519,-3.9858,-4.0216,-4.0892,-4.106,-4.106,-4.106,-4.106,-4.106,-4.106,-4.106,-4.106,-4.106,-4.106,-4.106,-4.106,-4.106,-4.106,-4.106,-4.106,-4.106,-4.106,-4.106,-4.106,-4.106,-4.106,-4.106,-4.106,-4.106,-4.106,-4.106,-4.106,-4.106,-4.106,-4.106,-4.106,-4.106,-4.106,-4.106,-4.106,-4.1378,-4.203,-1.9278,-2.0565,-2.1587,-2.1569,-2.117,-2.0702,-2.0847,-2.1389,-2.1848,-2.171,-2.2124,-2.2551,-2.2689,-2.251,-2.2694,-2.387,-2.4596,-2.4743,-2.4153,-2.4596,-2.4459,-2.3108,-2.2971,-2.4275,-2.7184,-2.8241,-2.9676,-3.2253,-3.3079,-3.3492,-3.3492,-3.3492,-3.3492,-3.3492,-3.3492,-3.3492,-3.3492,-3.3492,-3.3492,-3.3492,-3.3492,-3.3492,-3.3492,-3.3492,-3.3492,-3.3492,-3.3492,-3.3873,-3.4509,-3.4509,-3.4922,-3.5573,-3.5573,-3.5573,-3.5573,-3.5573,-3.5573,-3.5573,-3.5573,-3.5922,-3.6253,-3.6253,-3.6946,-3.7464,-3.7102,-3.7619,-3.8323,-3.8306,-3.8666,-3.9178,-4.0216,-4.0367,-4.0536,-4.106,-4.106,-4.106,-4.106,-4.106,-4.106,-4.106,-4.106,-4.106,-4.106,-4.106,-4.106,-4.106,-4.106,-4.106,-4.106,-4.106,-4.106,-4.106,-4.106,-4.106,-4.106,-4.106,-4.106,-4.106,-4.106,-4.106,-4.106,-4.106,-4.106,-4.106,-4.106,-4.106,-4.106,-4.106,-4.106,-4.106,-4.106,-4.1378,-1.8348,-1.9615,-2.1082,-2.1538,-2.1183,-2.0678,-2.0726,-2.0943,-2.1209,-2.1486,-2.2431,-2.3095,-2.236,-2.2259,-2.2408,-2.2558,-2.3426,-2.3722,-2.2694,-2.3426,-2.3676,-2.2773,-2.2887,-2.4058,-2.6653,-2.7997,-2.9676,-3.1935,-3.2917,-3.3492,-3.3492,-3.3492,-3.3492,-3.3492,-3.3492,-3.3492,-3.3492,-3.3492,-3.3492,-3.3492,-3.3492,-3.3492,-3.3492,-3.3492,-3.3492,-3.3492,-3.3492,-3.3842,-3.443,-3.4477,-3.489,-3.5494,-3.5558,-3.5573,-3.5573,-3.5573,-3.5573,-3.5573,-3.5573,-3.5573,-3.5573,-3.5573,-3.608,-3.6757,-3.6757,-3.7275,-3.8152,-3.9007,-3.9519,-3.9858,-4.0723,-4.106,-4.106,-4.106,-4.106,-4.106,-4.106,-4.106,-4.106,-4.106,-4.106,-4.106,-4.106,-4.106,-4.106,-4.106,-4.106,-4.106,-4.106,-4.106,-4.106,-4.106,-4.106,-4.106,-4.106,-4.106,-4.106,-4.106,-4.106,-4.106,-4.106,-4.106,-4.106,-4.106,-4.106,-4.106,-4.106,-4.106,-4.106,-4.106,-4.106,-4.106,-1.7463,-1.8674,-1.9948,-2.0674,-2.078,-2.0726,-2.0955,-2.1221,-2.1498,-2.1764,-2.1995,-2.2092,-2.2211,-2.2259,-2.2558,-2.3574,-2.3857,-2.4005,-2.3857,-2.3857,-2.3676,-2.2773,-2.2887,-2.3761,-2.5413,-2.7519,-2.9191,-3.0641,-3.2429,-3.3492,-3.3492,-3.3492,-3.3492,-3.3492,-3.3492,-3.3492,-3.3492,-3.3492,-3.3492,-3.3492,-3.3492,-3.3492,-3.3492,-3.3492,-3.3492,-3.3492,-3.3492,-3.3715,-3.4096,-3.4382,-3.4747,-3.5129,-3.5462,-3.5573,-3.5573,-3.5573,-3.5573,-3.5573,-3.5573,-3.5573,-3.5573,-3.5573,-3.5748,-3.5748,-3.5748,-3.6427,-3.7102,-3.7275,-3.8477,-3.9689,-3.9858,-4.0536,-4.106,-4.106,-4.106,-4.106,-4.106,-4.106,-4.106,-4.106,-4.106,-4.106,-4.106,-4.106,-4.106,-4.106,-4.106,-4.106,-4.106,-4.106,-4.106,-4.106,-4.106,-4.106,-4.106,-4.106,-4.106,-4.106,-4.106,-4.106,-4.106,-4.106,-4.106,-4.106,-4.106,-4.106,-4.106,-4.106,-4.106,-4.106,-4.106,-4.106,-1.7668,-1.8365,-1.9072,-2.0171,-2.0557,-2.0738,-2.1003,-2.116,-2.1317,-2.1595,-2.1764,-2.1957,-2.2211,-2.2259,-2.2408,-2.2992,-2.2992,-2.2992,-2.2992,-2.2992,-2.2943,-2.2773,-2.2887,-2.3667,-2.5335,-2.6827,-2.8125,-2.9449,-3.1377,-3.2324,-3.2324,-3.3148,-3.3492,-3.3492,-3.3492,-3.3492,-3.3492,-3.3492,-3.3492,-3.3492,-3.3492,-3.3492,-3.3492,-3.3492,-3.3492,-3.3492,-3.3492,-3.3683,-3.4032,-3.4366,-3.4716,-3.5065,-3.543,-3.5573,-3.5573,-3.5573,-3.5573,-3.5573,-3.5573,-3.5573,-3.5573,-3.5573,-3.5573,-3.5573,-3.5573,-3.5922,-3.6253,-3.6757,-3.7447,-3.8306,-3.8837,-3.9689,-4.0367,-4.0367,-4.0723,-4.106,-4.106,-4.106,-4.106,-4.106,-4.106,-4.106,-4.106,-4.106,-4.106,-4.106,-4.106,-4.106,-4.106,-4.106,-4.106,-4.106,-4.106,-4.106,-4.106,-4.106,-4.106,-4.106,-4.106,-4.106,-4.106,-4.106,-4.106,-4.106,-4.106,-4.106,-4.106,-4.106,-4.106,-4.106,-4.106,-4.106,-1.7517,-1.7804,-1.8155,-1.9688,-2.0219,-2.0484,-2.0955,-2.1064,-2.1136,-2.1426,-2.1691,-2.1933,-2.2126,-2.2211,-2.2259,-2.2259,-2.2259,-2.2259,-2.2259,-2.2259,-2.2331,-2.2524,-2.279,-2.3593,-2.485,-2.5944,-2.7105,-2.8208,-2.9907,-3.0969,-3.0969,-3.2309,-3.2983,-3.2983,-3.2983,-3.2983,-3.2983,-3.2983,-3.3148,-3.3492,-3.3492,-3.3492,-3.3492,-3.3492,-3.3492,-3.3492,-3.3492,-3.3635,-3.3905,-3.4334,-3.4652,-3.4938,-3.5399,-3.5573,-3.5573,-3.5573,-3.5573,-3.5573,-3.5573,-3.5573,-3.5573,-3.5573,-3.5573,-3.5573,-3.5573,-3.5573,-3.5748,-3.6427,-3.6757,-3.7102,-3.7808,-3.8666,-3.9348,-3.9348,-4.0028,-4.0892,-4.106,-4.106,-4.106,-4.106,-4.106,-4.106,-4.106,-4.106,-4.106,-4.106,-4.106,-4.106,-4.106,-4.106,-4.106,-4.106,-4.106,-4.106,-4.106,-4.106,-4.106,-4.106,-4.106,-4.106,-4.106,-4.106,-4.106,-4.106,-4.106,-4.106,-4.106,-4.106,-4.106,-4.106,-4.106,-4.106,-1.6263,-1.648,-1.6887,-1.8988,-1.9519,-1.9796,-2.0822,-2.1064,-2.1136,-2.1426,-2.1691,-2.1873,-2.1885,-2.209,-2.2259,-2.2259,-2.2259,-2.2259,-2.2259,-2.2259,-2.2271,-2.2283,-2.2512,-2.2931,-2.321,-2.5053,-2.6462,-2.6764,-2.862,-2.9621,-2.9621,-3.0803,-3.1647,-3.1647,-3.1647,-3.1647,-3.1647,-3.1647,-3.2309,-3.3492,-3.3492,-3.3492,-3.3492,-3.3492,-3.3492,-3.3492,-3.3492,-3.3492,-3.3572,-3.4223,-3.4509,-3.4604,-3.5303,-3.5573,-3.5573,-3.5573,-3.5573,-3.5573,-3.5573,-3.5573,-3.5573,-3.5573,-3.5573,-3.5573,-3.5573,-3.5573,-3.5573,-3.5573,-3.6253,-3.6929,-3.6929,-3.7636,-3.8323,-3.8323,-3.9007,-4.0028,-4.0892,-4.106,-4.106,-4.106,-4.106,-4.106,-4.106,-4.106,-4.106,-4.106,-4.106,-4.106,-4.106,-4.106,-4.106,-4.106,-4.106,-4.106,-4.106,-4.106,-4.106,-4.106,-4.106,-4.106,-4.106,-4.106,-4.106,-4.106,-4.106,-4.106,-4.106,-4.106,-4.106,-4.106,-4.106,-4.106,-1.5268,-1.5744,-1.6211,-1.7998,-1.8831,-1.9446,-2.0352,-2.069,-2.0883,-2.1148,-2.1559,-2.1873,-2.1873,-2.209,-2.2259,-2.2259,-2.2259,-2.2259,-2.2259,-2.2259,-2.2259,-2.2259,-2.2488,-2.2826,-2.3261,-2.4344,-2.5062,-2.5533,-2.7226,-2.811,-2.811,-2.9453,-3.0289,-3.0289,-3.0289,-3.0289,-3.0289,-3.0289,-3.0455,-3.0954,-3.0954,-3.0954,-3.0954,-3.1813,-3.2144,-3.2309,-3.3148,-3.3492,-3.354,-3.4223,-3.4509,-3.4573,-3.5303,-3.5573,-3.5573,-3.5573,-3.5573,-3.5573,-3.5573,-3.5573,-3.5573,-3.5573,-3.5573,-3.5573,-3.5573,-3.5573,-3.5573,-3.5573,-3.5748,-3.608,-3.608,-3.6773,-3.7619,-3.8837,-3.9519,-4.0028,-4.0892,-4.106,-4.106,-4.106,-4.106,-4.106,-4.106,-4.106,-4.106,-4.106,-4.106,-4.106,-4.106,-4.106,-4.106,-4.106,-4.106,-4.106,-4.106,-4.106,-4.106,-4.106,-4.106,-4.106,-4.106,-4.106,-4.106,-4.106,-4.106,-4.106,-4.106,-4.106,-4.106,-4.106,-4.106,-4.106,-1.4452,-1.4936,-1.5342,-1.6936,-1.795,-1.877,-1.9664,-2.0279,-2.0738,-2.1003,-2.1486,-2.1873,-2.1873,-2.209,-2.2259,-2.2259,-2.2259,-2.2259,-2.2259,-2.2259,-2.2259,-2.2259,-2.2488,-2.2826,-2.3273,-2.3876,-2.442,-2.4866,-2.6061,-2.677,-2.677,-2.811,-2.8783,-2.8783,-2.8783,-2.8783,-2.8783,-2.8783,-2.895,-2.9453,-2.9453,-2.9453,-2.9453,-3.047,-3.0803,-3.0803,-3.1798,-3.2716,-3.3699,-3.4271,-3.4573,-3.4747,-3.5351,-3.5573,-3.5573,-3.5573,-3.5573,-3.5573,-3.5573,-3.5573,-3.5573,-3.5573,-3.5573,-3.5573,-3.5573,-3.5573,-3.5573,-3.5573,-3.5573,-3.5573,-3.5573,-3.608,-3.6929,-3.8306,-3.9007,-3.9519,-4.0385,-4.0892,-4.106,-4.106,-4.106,-4.106,-4.106,-4.106,-4.106,-4.106,-4.106,-4.106,-4.106,-4.106,-4.106,-4.106,-4.106,-4.106,-4.106,-4.106,-4.106,-4.106,-4.106,-4.106,-4.106,-4.106,-4.106,-4.106,-4.106,-4.106,-4.106,-4.106,-4.106,-4.106,-4.106,-4.106,0.0,0.0,0.0,-1.5849,-1.6863,-1.7744,-1.8807,-1.9881,-2.0726,-2.0979,-2.1486,-2.1873,-2.186,-2.2078,-2.2259,-2.2259,-2.2259,-2.2259,-2.2271,-2.2259,-2.2259,-2.2271,-2.25,-2.2766,-2.3043,-2.378,-2.4359,-2.4625,-2.5132,-2.5433,-2.5433,-2.6601,-2.7266,-2.7266,-2.7266,-2.7266,-2.7266,-2.7266,-2.811,-2.9453,-2.9453,-2.9453,-2.9453,-2.9453,-2.9453,-2.9453,-2.9453,-3.116,-3.3881,-3.4366,-3.4716,-3.5065,-3.543,-3.5573,-3.5573,-3.5573,-3.5573,-3.5573,-3.5573,-3.5573,-3.5573,-3.5573,-3.5573,-3.5573,-3.5573,-3.5573,-3.5573,-3.5573,-3.5573,-3.5573,-3.5573,-3.5573,-3.5748,-3.6757,-3.7619,-3.8494,-3.9519,-4.0385,-4.106,-4.106,-4.106,-4.106,-4.106,-4.106,-4.106,-4.106,-4.106,-4.106,-4.106,-4.106,-4.106,-4.106,-4.106,-4.106,-4.106,-4.106,-4.106,-4.106,-4.106,-4.106,-4.106,-4.106,-4.106,-4.106,-4.106,-4.106,-4.106,-4.106,-4.106,-4.106,-4.106,-4.106,-1.3278,0.0,0.0,0.0,0.0,0.0,-1.8263,-1.9338,-2.0183,-2.0436,-2.1233,-2.1812,-2.1619,-2.1957,-2.2259,-2.2259,-2.2259,-2.2331,-2.2512,-2.238,-2.2331,-2.2524,-2.2778,-2.3116,-2.3575,-2.4166,-2.4637,-2.4914,-2.524,-2.5433,-2.5433,-2.5775,-2.5933,-2.5933,-2.5933,-2.5933,-2.5933,-2.5933,-2.6103,-2.6613,-2.6613,-2.6613,-2.6613,-2.7617,-2.7941,-2.811,-2.9118,-3.0254,-3.1451,-3.2579,-3.3847,-3.5065,-3.543,-3.5573,-3.5573,-3.5573,-3.5573,-3.5573,-3.5573,-3.5573,-3.5573,-3.5573,-3.5573,-3.5573,-3.5573,-3.5573,-3.5573,-3.5573,-3.5573,-3.5573,-3.5573,-3.5573,-3.5748,-3.6757,-3.7102,-3.7791,-3.9348,-3.9858,-4.0216,-4.0892,-4.106,-4.106,-4.106,-4.106,-4.106,-4.106,-4.106,-4.106,-4.106,-4.106,-4.106,-4.106,-4.106,-4.106,-4.106,-4.106,-4.106,-4.106,-4.106,-4.106,-4.106,-4.106,-4.106,-4.106,-4.106,-4.106,-4.106,-4.106,-4.106,-4.106,-4.106,-4.106,-1.3097,-1.335,-1.3749,-1.4437,0.0,0.0,-1.7406,-1.871,-1.982,-2.0195,-2.104,-2.1667,-2.151,-2.1728,-2.2005,-2.2223,-2.2174,-2.2235,-2.2597,-2.2524,-2.2524,-2.2778,-2.3056,-2.3333,-2.3647,-2.4154,-2.4576,-2.4854,-2.512,-2.5325,-2.5433,-2.5433,-2.5433,-2.5433,-2.5433,-2.5433,-2.5433,-2.5433,-2.5433,-2.5433,-2.5433,-2.5433,-2.5433,-2.6273,-2.6601,-2.6613,-2.7565,-2.8564,-2.9699,-3.0517,-3.2308,-3.439,-3.532,-3.5573,-3.5573,-3.5573,-3.5573,-3.5573,-3.5573,-3.5573,-3.5573,-3.5573,-3.5573,-3.5573,-3.5573,-3.5573,-3.5573,-3.5573,-3.5573,-3.5573,-3.5573,-3.5573,-3.5748,-3.6253,-3.6584,-3.7275,-3.8306,-3.9178,-4.0028,-4.0892,-4.106,-4.106,-4.106,-4.106,-4.106,-4.106,-4.106,-4.106,-4.106,-4.106,-4.106,-4.106,-4.106,-4.106,-4.106,-4.106,-4.106,-4.106,-4.106,-4.106,-4.106,-4.106,-4.106,-4.106,-4.106,-4.106,-4.106,-4.106,-4.106,-4.106,-4.106,-4.106,-1.3049,-1.3097,-1.3242,-1.3737,-1.4642,0.0,-1.6429,-1.795,-1.9362,-1.9893,-2.0653,-2.1209,-2.1209,-2.1281,-2.151,-2.2005,-2.1933,-2.2005,-2.2536,-2.2585,-2.2657,-2.2923,-2.32,-2.3393,-2.349,-2.3949,-2.4347,-2.4601,-2.489,-2.5144,-2.5385,-2.5421,-2.5433,-2.5433,-2.5433,-2.5433,-2.5433,-2.5433,-2.5433,-2.5433,-2.5433,-2.5433,-2.5433,-2.5433,-2.5433,-2.5446,-2.5711,-2.6673,-2.816,-2.8608,-3.0492,-3.3249,-3.4859,-3.5399,-3.5399,-3.5573,-3.5573,-3.5573,-3.5573,-3.5573,-3.5573,-3.5573,-3.5573,-3.5573,-3.5573,-3.5573,-3.5573,-3.5573,-3.5573,-3.5573,-3.5573,-3.5573,-3.5573,-3.5573,-3.6253,-3.6757,-3.6929,-3.8306,-3.9858,-4.0892,-4.106,-4.106,-4.106,-4.106,-4.106,-4.106,-4.106,-4.106,-4.106,-4.106,-4.106,-4.106,-4.106,-4.106,-4.106,-4.106,-4.106,-4.106,-4.106,-4.106,-4.106,-4.106,-4.106,-4.106,-4.106,-4.106,-4.106,-4.106,-4.106,-4.106,-4.106,-4.106,-1.3073,-1.2952,-1.3194,-1.3507,-1.4232,0.0,-1.5861,-1.6827,-1.7708,-1.8239,-1.8988,-1.9543,-1.9543,-2.0074,-2.0617,-2.0931,-2.1293,-2.1716,-2.2259,-2.2162,-2.2126,-2.238,-2.2645,-2.3056,-2.3707,-2.4057,-2.4347,-2.4601,-2.489,-2.5071,-2.512,-2.5325,-2.5433,-2.5433,-2.5433,-2.5433,-2.5433,-2.5433,-2.5433,-2.5433,-2.5433,-2.5433,-2.5433,-2.5433,-2.5433,-2.5446,-2.5711,-2.6151,-2.6758,-2.8255,-2.9961,-3.182,-3.3249,-3.3777,-3.3968,-3.5209,-3.5573,-3.5573,-3.5573,-3.5573,-3.5573,-3.5573,-3.5573,-3.5573,-3.5573,-3.5573,-3.5573,-3.5573,-3.5573,-3.5573,-3.5573,-3.5573,-3.5573,-3.5573,-3.5748,-3.6253,-3.7636,-3.8323,-3.9007,-4.0723,-4.106,-4.106,-4.106,-4.106,-4.106,-4.106,-4.106,-4.106,-4.106,-4.106,-4.106,-4.106,-4.106,-4.106,-4.106,-4.106,-4.106,-4.106,-4.106,-4.106,-4.106,-4.106,-4.106,-4.106,-4.106,-4.106,-4.106,-4.106,-4.106,-4.106,-4.106,-4.106,-1.3725,-1.3314,-1.3181,-1.3447,-1.3821,0.0,0.0,-1.6018,-1.6682,-1.7346,-1.801,-1.8469,-1.8469,-1.9024,-1.9567,-1.9833,-2.0436,-2.0871,-2.0871,-2.1667,-2.2355,-2.2621,-2.2766,-2.3007,-2.3406,-2.3562,-2.3804,-2.4202,-2.4613,-2.4842,-2.4842,-2.5096,-2.524,-2.524,-2.5373,-2.5433,-2.5433,-2.5433,-2.5433,-2.5433,-2.5433,-2.5433,-2.5433,-2.5433,-2.5506,-2.5651,-2.5904,-2.6182,-2.6447,-2.7417,-2.8322,-2.9335,-3.1465,-3.2351,-3.2528,-3.3968,-3.4494,-3.4684,-3.5399,-3.5573,-3.5573,-3.5573,-3.5573,-3.5573,-3.5573,-3.5573,-3.5573,-3.5573,-3.5573,-3.5573,-3.5573,-3.5573,-3.5573,-3.5573,-3.5573,-3.5922,-3.6789,-3.7291,-3.7791,-3.8819,-3.9689,-4.0536,-4.106,-4.106,-4.106,-4.106,-4.106,-4.106,-4.106,-4.106,-4.106,-4.106,-4.106,-4.106,-4.106,-4.106,-4.106,-4.106,-4.106,-4.106,-4.106,-4.106,-4.106,-4.106,-4.106,-4.106,-4.106,-4.106,-4.117,-4.1372,-4.1372,-4.1482,-1.4412,-1.3882,-1.3399,-1.3616,-1.3713,-1.3978,0.0,0.0,0.0,-1.6501,-1.6972,-1.7298,-1.7394,-1.7853,-1.8287,-1.8505,-1.9301,-1.9688,-1.9096,-2.0762,0.0,-2.2404,-2.2573,-2.2718,-2.2874,-2.3164,-2.3466,-2.3744,-2.4347,-2.4661,-2.4552,-2.4866,-2.5047,-2.5047,-2.5301,-2.5433,-2.5433,-2.5433,-2.5433,-2.5433,-2.5433,-2.5433,-2.5433,-2.5433,-2.5578,-2.5844,-2.6109,-2.6375,-2.6665,-2.6918,-2.7027,-2.7208,-2.9873,-3.0931,-3.1123,-3.2543,-3.3249,-3.3601,-3.4684,-3.5399,-3.5573,-3.5573,-3.5573,-3.5573,-3.5573,-3.5573,-3.5573,-3.5573,-3.5573,-3.5573,-3.5573,-3.5573,-3.5573,-3.5573,-3.5573,-3.5573,-3.5748,-3.6427,-3.6929,-3.7447,-3.8648,-3.9858,-4.0723,-4.106,-4.106,-4.106,-4.106,-4.106,-4.106,-4.106,-4.106,-4.106,-4.106,-4.106,-4.106,-4.106,-4.106,-4.106,-4.106,-4.106,-4.106,-4.106,-4.106,-4.106,-4.106,-4.106,-4.106,-4.106,-4.128,-4.1684,-4.1684,-4.1904,-1.469,-1.4425,-1.4171,-1.4195,-1.4401,-1.4618,-1.4739,0.0,-1.4871,-1.4968,0.0,-1.5221,-1.568,0.0,0.0,-1.6622,-1.7684,-1.8251,-1.7467,-1.8782,-1.9929,-2.0207,-2.0859,-2.1571,-2.2283,-2.3623,-2.419,-2.355,-2.4432,-2.4782,-2.4311,-2.477,-2.5047,-2.5047,-2.5301,-2.5433,-2.5433,-2.5433,-2.5433,-2.5433,-2.5433,-2.5433,-2.5433,-2.5433,-2.5578,-2.5844,-2.6109,-2.6375,-2.6665,-2.6918,-2.7027,-2.7208,-2.8822,-2.9362,-2.9528,-3.0945,-3.2351,-3.3425,-3.3601,-3.4494,-3.5573,-3.5573,-3.5573,-3.5573,-3.5573,-3.5573,-3.5573,-3.5573,-3.5573,-3.5573,-3.5573,-3.5573,-3.5573,-3.5573,-3.5573,-3.5748,-3.6584,-3.6757,-3.7447,-3.9007,-3.9519,-3.9689,-3.9858,-4.0554,-4.106,-4.106,-4.106,-4.106,-4.106,-4.106,-4.106,-4.106,-4.106,-4.106,-4.106,-4.106,-4.106,-4.106,-4.106,-4.106,-4.106,-4.106,-4.106,-4.106,-4.106,-4.106,-4.106,-4.106,-4.128,-4.1684,-4.1684,-4.1904,-1.6393,-1.5568,-1.4585,-1.4945,-1.447,-1.4126,-1.4612,-1.4473,-1.4292,-1.4437,0.0,0.0,0.0,0.0,0.0,0.0,-1.6235,-1.673,0.0,0.0,-1.842,-1.9314,0.0,0.0,-2.1716,-2.2826,-2.3345,-2.3019,-2.3828,-2.4118,-2.3575,-2.4347,-2.4806,-2.4806,-2.5071,-2.5289,-2.5433,-2.5289,-2.5289,-2.5433,-2.5433,-2.5433,-2.5446,-2.559,-2.5808,-2.6073,-2.6351,-2.6616,-2.687,-2.6979,-2.7027,-2.7027,-2.7752,-2.792,-2.8101,-2.9528,-3.041,-3.1123,-3.1834,-3.2543,-3.3249,-3.4143,-3.4859,-3.5573,-3.5573,-3.5573,-3.5573,-3.5573,-3.5573,-3.5573,-3.5573,-3.5573,-3.5573,-3.5573,-3.5573,-3.5748,-3.608,-3.608,-3.66,-3.7791,-3.8494,-3.9007,-3.9519,-4.0554,-4.106,-4.106,-4.106,-4.106,-4.106,-4.106,-4.106,-4.106,-4.106,-4.106,-4.106,-4.106,-4.106,-4.106,-4.106,-4.106,-4.106,-4.106,-4.106,-4.106,-4.106,-4.106,-4.106,-4.106,-4.128,-4.1684,-4.1684,-4.2014,-1.6469,-1.5914,-1.5003,-1.5523,-1.5121,-1.4724,-1.5198,-1.4896,-1.4437,-1.4413,-1.4147,0.0,0.0,0.0,0.0,0.0,0.0,-1.5306,0.0,-1.5765,0.0,0.0,0.0,0.0,0.0,-2.2042,-2.2669,-2.2452,-2.3309,-2.3611,-2.3068,-2.3913,-2.448,-2.4625,-2.4975,-2.524,-2.5433,-2.5252,-2.5216,-2.5325,-2.5397,-2.5397,-2.5337,-2.5675,-2.5977,-2.623,-2.652,-2.6785,-2.7027,-2.7027,-2.7027,-2.7027,-2.7027,-2.7027,-2.7208,-2.8281,-2.8822,-2.9362,-3.041,-3.0931,-3.1465,-3.2528,-3.3792,-3.5034,-3.5034,-3.5034,-3.5034,-3.5573,-3.5399,-3.5034,-3.5573,-3.5573,-3.5573,-3.5573,-3.5573,-3.5573,-3.5573,-3.5573,-3.5922,-3.6757,-3.7636,-3.8666,-3.9519,-4.0554,-4.106,-4.106,-4.106,-4.106,-4.106,-4.106,-4.106,-4.106,-4.106,-4.106,-4.106,-4.106,-4.106,-4.106,-4.106,-4.106,-4.106,-4.106,-4.106,-4.106,-4.106,-4.106,-4.106,-4.106,-4.1225,-4.1519,-4.1629,-4.2051,-1.3686,-1.4704,-1.5286,-1.5982,-1.6763,-1.7358,-1.708,-1.6404,-1.5608,-1.4859,0.0,0.0,0.0,0.0,0.0,0.0,0.0,0.0,0.0,0.0,0.0,0.0,0.0,0.0,0.0,-2.1655,-2.2718,0.0,-2.3104,-2.3611,-2.3068,-2.3575,-2.4106,-2.4613,-2.5144,-2.5421,-2.5433,-2.5421,-2.5301,-2.5059,-2.5313,-2.5301,-2.5071,-2.559,-2.5977,-2.623,-2.652,-2.6785,-2.7027,-2.7027,-2.7027,-2.7027,-2.7027,-2.7027,-2.7027,-2.7027,-2.7933,-2.9182,-2.9182,-3.0231,-3.1287,-3.1287,-3.2351,-3.3425,-3.3425,-3.3425,-3.3777,-3.5225,-3.4494,-3.3777,-3.5209,-3.5573,-3.5573,-3.5573,-3.5573,-3.5573,-3.5573,-3.5573,-3.5922,-3.6757,-3.7636,-3.8666,-3.9519,-4.0554,-4.106,-4.106,-4.106,-4.106,-4.106,-4.106,-4.106,-4.106,-4.106,-4.106,-4.106,-4.106,-4.106,-4.106,-4.106,-4.106,-4.106,-4.106,-4.106,-4.106,-4.106,-4.106,-4.106,-4.106,-4.106,-4.1097,-4.15,-4.1904,-1.4145,-1.4094,-1.3813,-1.4714,-1.5298,-1.5804,-1.623,-1.6287,-1.6139,0.0,0.0,0.0,0.0,0.0,0.0,0.0,0.0,0.0,0.0,0.0,0.0,0.0,0.0,0.0,0.0,0.0,0.0,0.0,-2.2247,0.0,-2.2536,-2.3369,-2.4082,-2.4613,-2.4987,-2.5264,-2.5433,-2.5264,-2.5132,-2.5047,-2.5313,-2.5301,-2.5071,-2.5771,-2.6134,-2.6242,-2.6701,-2.6954,-2.7027,-2.7027,-2.7027,-2.7027,-2.7027,-2.7027,-2.7027,-2.7027,-2.739,-2.7752,-2.7752,-2.8642,-2.9887,-2.9887,-3.0945,-3.1997,-3.1997,-3.1997,-3.2174,-3.2543,-3.3073,-3.3425,-3.3968,-3.4859,-3.5573,-3.5573,-3.5573,-3.5573,-3.5573,-3.5573,-3.5922,-3.6757,-3.7102,-3.7791,-3.9348,-4.0028,-4.0385,-4.106,-4.106,-4.106,-4.106,-4.106,-4.106,-4.106,-4.106,-4.106,-4.106,-4.106,-4.106,-4.106,-4.106,-4.106,-4.106,-4.106,-4.106,-4.106,-4.106,-4.106,-4.106,-4.106,-4.106,-4.106,-4.1207,-4.15,-1.2984,-1.2875,-1.2816,-1.3652,-1.4309,-1.4943,-1.5575,-1.568,-1.5558,0.0,0.0,0.0,0.0,0.0,0.0,0.0,0.0,0.0,0.0,-1.3266,0.0,0.0,0.0,0.0,0.0,0.0,0.0,0.0,0.0,0.0,0.0,-2.2995,-2.3744,-2.4468,-2.4854,-2.5168,-2.5433,-2.518,-2.4999,-2.4902,-2.5071,-2.5011,-2.4782,-2.5675,-2.6073,-2.6109,-2.6749,-2.7027,-2.7027,-2.7027,-2.7027,-2.7027,-2.7027,-2.7027,-2.7027,-2.7027,-2.7027,-2.7027,-2.7027,-2.7571,-2.8462,-2.8462,-2.9349,-3.0588,-3.0588,-3.0588,-3.0588,-3.1109,-3.1642,-3.2012,-3.2528,-3.3792,-3.4859,-3.4859,-3.5225,-3.5399,-3.4859,-3.5209,-3.5573,-3.5716,-3.6394,-3.7275,-3.8477,-3.9007,-3.9689,-4.0892,-4.106,-4.106,-4.106,-4.106,-4.106,-4.106,-4.106,-4.106,-4.106,-4.106,-4.106,-4.106,-4.106,-4.106,-4.106,-4.106,-4.106,-4.106,-4.106,-4.106,-4.106,-4.106,-4.106,-4.106,-4.106,-4.1207]}]]